Time,TemperatureF,DewpointF,PressureIn,WindDirection,WindDirectionDegrees,WindSpeedMPH,WindSpeedGustMPH,Humidity,HourlyPrecipIn,Conditions,Clouds,dailyrainin,SoftwareType,DateUTC
2013-04-28 00:00:00,50.6,34.6,30.07,East,84,4.4,5.6,54,0.00,,,0.00,VWS V14.01,2013-04-28 04:00:00,
2013-04-28 00:01:00,50.8,34.9,30.07,East,79,4.5,4.5,54,0.00,,,0.00,VWS V14.01,2013-04-28 04:01:00,
2013-04-28 00:02:00,50.9,35.0,30.06,East,91,4.2,5.4,54,0.00,,,0.00,VWS V14.01,2013-04-28 04:02:00,
2013-04-28 00:03:00,50.3,35.0,30.06,East,89,4.2,4.2,55,0.00,,,0.00,VWS V14.01,2013-04-28 04:03:00,
2013-04-28 00:04:00,50.3,35.0,30.06,East,89,4.2,4.2,55,0.00,,,0.00,VWS V14.01,2013-04-28 04:04:00,
2013-04-28 00:05:00,51.2,35.5,30.10,East,89,4.9,6.4,55,0.00,,,0.00,VWS V14.01,2013-04-28 04:05:00,
2013-04-28 00:06:00,51.4,34.6,30.07,East,89,6.8,6.8,52,0.00,,,0.00,VWS V14.01,2013-04-28 04:06:00,
2013-04-28 00:07:00,50.4,34.5,30.06,East,89,4.0,6.8,54,0.00,,,0.00,VWS V14.01,2013-04-28 04:07:00,
2013-04-28 00:08:00,50.5,35.1,30.06,East,93,3.7,4.0,55,0.00,,,0.00,VWS V14.01,2013-04-28 04:08:00,
2013-04-28 00:09:00,51.1,34.7,30.06,ESE,103,5.2,5.2,53,0.00,,,0.00,VWS V14.01,2013-04-28 04:09:00,
2013-04-28 00:10:00,50.9,34.3,30.07,East,93,4.4,5.6,53,0.00,,,0.00,VWS V14.01,2013-04-28 04:10:00,
2013-04-28 00:11:00,51.0,34.8,30.06,East,92,3.9,4.4,54,0.00,,,0.00,VWS V14.01,2013-04-28 04:11:00,
2013-04-28 00:12:00,51.0,34.8,30.06,East,92,3.9,4.4,54,0.00,,,0.00,VWS V14.01,2013-04-28 04:12:00,
2013-04-28 00:13:00,50.4,34.3,30.06,East,99,4.0,4.0,54,0.00,,,0.00,VWS V14.01,2013-04-28 04:13:00,
2013-04-28 00:14:00,50.3,34.5,30.06,East,90,3.9,4.0,54,0.00,,,0.00,VWS V14.01,2013-04-28 04:14:00,
2013-04-28 00:15:00,50.7,35.2,30.05,ESE,102,4.4,4.4,55,0.00,,,0.00,VWS V14.01,2013-04-28 04:15:00,
2013-04-28 00:16:00,50.8,35.0,30.07,East,99,4.0,4.2,55,0.00,,,0.00,VWS V14.01,2013-04-28 04:16:00,
2013-04-28 00:17:00,50.9,35.1,30.06,East,97,4.0,4.0,55,0.00,,,0.00,VWS V14.01,2013-04-28 04:17:00,
2013-04-28 00:18:00,51.0,35.2,30.06,East,91,4.9,4.9,54,0.00,,,0.00,VWS V14.01,2013-04-28 04:18:00,
2013-04-28 00:19:00,50.6,35.1,30.06,East,93,3.7,4.9,55,0.00,,,0.00,VWS V14.01,2013-04-28 04:19:00,
2013-04-28 00:20:00,50.6,35.5,30.05,East,99,3.9,3.9,56,0.00,,,0.00,VWS V14.01,2013-04-28 04:20:00,
2013-04-28 00:21:00,50.6,35.5,30.06,East,92,4.5,4.5,56,0.00,,,0.00,VWS V14.01,2013-04-28 04:21:00,
2013-04-28 00:22:00,50.8,35.4,30.06,East,90,4.7,4.7,55,0.00,,,0.00,VWS V14.01,2013-04-28 04:22:00,
2013-04-28 00:23:00,50.3,35.1,30.06,ENE,70,4.7,4.9,56,0.00,,,0.00,VWS V14.01,2013-04-28 04:23:00,
2013-04-28 00:24:00,50.7,35.2,30.05,East,91,4.9,4.9,55,0.00,,,0.00,VWS V14.01,2013-04-28 04:24:00,
2013-04-28 00:25:00,50.5,35.5,30.06,ENE,71,4.7,4.9,56,0.00,,,0.00,VWS V14.01,2013-04-28 04:25:00,
2013-04-28 00:26:00,50.7,34.9,30.06,East,81,4.2,4.7,55,0.00,,,0.00,VWS V14.01,2013-04-28 04:26:00,
2013-04-28 00:27:00,50.3,35.7,30.07,East,88,3.4,4.0,57,0.00,,,0.00,VWS V14.01,2013-04-28 04:27:00,
2013-04-28 00:28:00,50.3,35.7,30.07,East,88,3.4,4.0,57,0.00,,,0.00,VWS V14.01,2013-04-28 04:28:00,
2013-04-28 00:29:00,50.2,35.9,30.07,East,88,2.5,2.5,58,0.00,,,0.00,VWS V14.01,2013-04-28 04:29:00,
2013-04-28 00:30:00,50.1,36.0,30.07,East,88,2.3,2.5,58,0.00,,,0.00,VWS V14.01,2013-04-28 04:30:00,
2013-04-28 00:31:00,50.1,36.0,30.07,East,88,2.3,2.5,58,0.00,,,0.00,VWS V14.01,2013-04-28 04:31:00,
2013-04-28 00:32:00,50.2,36.1,30.06,East,87,2.7,2.7,58,0.00,,,0.00,VWS V14.01,2013-04-28 04:32:00,
2013-04-28 00:33:00,50.3,36.2,30.06,East,87,2.5,2.5,58,0.00,,,0.00,VWS V14.01,2013-04-28 04:33:00,
2013-04-28 00:34:00,50.0,35.7,30.06,East,85,2.8,3.0,58,0.00,,,0.00,VWS V14.01,2013-04-28 04:34:00,
2013-04-28 00:36:00,50.3,35.9,30.06,East,87,3.5,3.5,58,0.00,,,0.00,VWS V14.01,2013-04-28 04:36:00,
2013-04-28 00:37:00,50.0,35.7,30.07,East,85,3.2,3.5,58,0.00,,,0.00,VWS V14.01,2013-04-28 04:37:00,
2013-04-28 00:38:00,50.3,36.1,30.07,East,83,3.4,3.4,58,0.00,,,0.00,VWS V14.01,2013-04-28 04:38:00,
2013-04-28 00:39:00,50.1,35.1,30.06,East,82,3.2,3.4,56,0.00,,,0.00,VWS V14.01,2013-04-28 04:39:00,
2013-04-28 00:40:00,50.2,36.0,30.07,ENE,72,3.0,3.2,58,0.00,,,0.00,VWS V14.01,2013-04-28 04:40:00,
2013-04-28 00:41:00,50.3,36.0,30.06,ENE,72,3.0,3.0,58,0.00,,,0.00,VWS V14.01,2013-04-28 04:41:00,
2013-04-28 00:42:00,50.2,35.7,30.07,ENE,78,2.7,2.7,57,0.00,,,0.00,VWS V14.01,2013-04-28 04:42:00,
2013-04-28 00:43:00,50.2,35.6,30.06,ENE,75,2.5,3.0,57,0.00,,,0.00,VWS V14.01,2013-04-28 04:43:00,
2013-04-28 00:44:00,50.6,35.6,30.07,ENE,74,2.5,2.8,56,0.00,,,0.00,VWS V14.01,2013-04-28 04:44:00,
2013-04-28 00:45:00,50.8,34.8,30.06,East,83,3.7,3.7,54,0.00,,,0.00,VWS V14.01,2013-04-28 04:45:00,
2013-04-28 00:46:00,51.0,34.7,30.06,ENE,67,2.7,3.7,53,0.00,,,0.00,VWS V14.01,2013-04-28 04:46:00,
2013-04-28 00:47:00,50.6,34.2,30.06,ENE,69,2.8,2.8,53,0.00,,,0.00,VWS V14.01,2013-04-28 04:47:00,
2013-04-28 00:48:00,51.0,34.3,30.06,ENE,66,2.7,2.8,53,0.00,,,0.00,VWS V14.01,2013-04-28 04:48:00,
2013-04-28 00:49:00,50.9,34.5,30.05,ENE,59,2.5,2.7,53,0.00,,,0.00,VWS V14.01,2013-04-28 04:49:00,
2013-04-28 00:50:00,50.6,34.3,30.05,East,88,2.7,2.7,53,0.00,,,0.00,VWS V14.01,2013-04-28 04:50:00,
2013-04-28 00:51:00,50.7,34.4,30.06,ENE,67,2.0,2.0,54,0.00,,,0.00,VWS V14.01,2013-04-28 04:51:00,
2013-04-28 00:52:00,50.8,34.3,30.06,ENE,65,2.5,2.5,53,0.00,,,0.00,VWS V14.01,2013-04-28 04:52:00,
2013-04-28 00:53:00,50.8,34.0,30.06,East,83,2.8,2.8,52,0.00,,,0.00,VWS V14.01,2013-04-28 04:53:00,
2013-04-28 00:54:00,51.2,33.6,30.06,ENE,71,4.2,4.2,51,0.00,,,0.00,VWS V14.01,2013-04-28 04:54:00,
2013-04-28 00:55:00,51.1,33.4,30.06,NE,51,4.4,4.5,51,0.00,,,0.00,VWS V14.01,2013-04-28 04:55:00,
2013-04-28 00:56:00,51.3,33.5,30.05,ENE,74,4.7,4.7,50,0.00,,,0.00,VWS V14.01,2013-04-28 04:56:00,
2013-04-28 00:57:00,51.0,33.3,30.06,ENE,73,4.5,4.7,51,0.00,,,0.00,VWS V14.01,2013-04-28 04:57:00,
2013-04-28 00:58:00,50.8,33.1,30.09,ENE,77,3.5,5.6,51,0.00,,,0.00,VWS V14.01,2013-04-28 04:58:00,
2013-04-28 00:59:00,50.8,33.0,30.07,ENE,62,4.2,4.2,50,0.00,,,0.00,VWS V14.01,2013-04-28 04:59:00,
2013-04-28 01:00:00,50.4,33.0,30.06,ENE,78,4.2,4.9,51,0.00,,,0.00,VWS V14.01,2013-04-28 05:00:00,
2013-04-28 01:01:00,51.1,33.7,30.05,ENE,74,4.9,4.9,51,0.00,,,0.00,VWS V14.01,2013-04-28 05:01:00,
2013-04-28 01:02:00,50.9,33.0,30.05,ENE,76,5.1,5.1,50,0.00,,,0.00,VWS V14.01,2013-04-28 05:02:00,
2013-04-28 01:03:00,51.3,33.2,30.05,ENE,76,5.7,5.7,50,0.00,,,0.00,VWS V14.01,2013-04-28 05:03:00,
2013-04-28 01:04:00,51.1,32.8,30.05,ENE,65,5.7,5.7,49,0.00,,,0.00,VWS V14.01,2013-04-28 05:04:00,
2013-04-28 01:05:00,51.0,33.2,30.06,East,85,4.4,5.7,50,0.00,,,0.00,VWS V14.01,2013-04-28 05:05:00,
2013-04-28 01:06:00,51.0,33.1,30.05,ENE,66,4.4,4.4,50,0.00,,,0.00,VWS V14.01,2013-04-28 05:06:00,
2013-04-28 01:07:00,50.6,33.8,30.05,ENE,75,3.9,3.9,52,0.00,,,0.00,VWS V14.01,2013-04-28 05:07:00,
2013-04-28 01:08:00,50.8,33.6,30.05,ENE,61,4.7,4.7,52,0.00,,,0.00,VWS V14.01,2013-04-28 05:08:00,
2013-04-28 01:09:00,50.9,33.3,30.06,ENE,73,5.4,5.4,51,0.00,,,0.00,VWS V14.01,2013-04-28 05:09:00,
2013-04-28 01:10:00,50.9,33.4,30.05,East,94,4.7,4.9,51,0.00,,,0.00,VWS V14.01,2013-04-28 05:10:00,
2013-04-28 01:11:00,50.9,33.5,30.04,ESE,105,4.9,5.1,51,0.00,,,0.00,VWS V14.01,2013-04-28 05:11:00,
2013-04-28 01:12:00,51.0,33.3,30.04,ENE,77,5.2,5.2,51,0.00,,,0.00,VWS V14.01,2013-04-28 05:12:00,
2013-04-28 01:13:00,50.7,33.3,30.04,East,99,4.4,4.4,51,0.00,,,0.00,VWS V14.01,2013-04-28 05:13:00,
2013-04-28 01:14:00,51.0,33.0,30.04,East,99,6.1,6.1,50,0.00,,,0.00,VWS V14.01,2013-04-28 05:14:00,
2013-04-28 01:15:00,50.7,32.6,30.05,ENE,78,4.2,6.1,50,0.00,,,0.00,VWS V14.01,2013-04-28 05:15:00,
2013-04-28 01:16:00,50.7,33.1,30.05,East,80,3.2,3.2,51,0.00,,,0.00,VWS V14.01,2013-04-28 05:16:00,
2013-04-28 01:17:00,51.1,32.8,30.05,ENE,77,5.2,5.2,49,0.00,,,0.00,VWS V14.01,2013-04-28 05:17:00,
2013-04-28 01:18:00,50.7,32.8,30.05,East,85,5.4,5.4,50,0.00,,,0.00,VWS V14.01,2013-04-28 05:18:00,
2013-04-28 01:19:00,50.4,33.1,30.05,ENE,73,3.7,5.4,51,0.00,,,0.00,VWS V14.01,2013-04-28 05:19:00,
2013-04-28 01:20:00,50.6,33.3,30.04,NE,56,4.9,4.9,51,0.00,,,0.00,VWS V14.01,2013-04-28 05:20:00,
2013-04-28 01:21:00,50.8,33.3,30.05,ENE,72,4.9,5.9,51,0.00,,,0.00,VWS V14.01,2013-04-28 05:21:00,
2013-04-28 01:22:00,50.6,33.3,30.05,ENE,62,4.4,4.9,51,0.00,,,0.00,VWS V14.01,2013-04-28 05:22:00,
2013-04-28 01:23:00,50.8,33.2,30.04,East,82,5.1,5.2,51,0.00,,,0.00,VWS V14.01,2013-04-28 05:23:00,
2013-04-28 01:24:00,50.6,33.1,30.04,East,85,4.5,5.1,51,0.00,,,0.00,VWS V14.01,2013-04-28 05:24:00,
2013-04-28 01:25:00,50.2,33.4,30.04,ENE,73,3.9,4.5,52,0.00,,,0.00,VWS V14.01,2013-04-28 05:25:00,
2013-04-28 01:26:00,50.8,34.0,30.05,East,80,4.2,4.2,53,0.00,,,0.00,VWS V14.01,2013-04-28 05:26:00,
2013-04-28 01:28:00,50.8,33.6,30.05,ENE,75,5.2,5.2,51,0.00,,,0.00,VWS V14.01,2013-04-28 05:28:00,
2013-04-28 01:29:00,50.9,33.4,30.04,East,85,4.5,4.5,51,0.00,,,0.00,VWS V14.01,2013-04-28 05:29:00,
2013-04-28 01:30:00,50.4,33.5,30.05,East,80,4.2,4.5,52,0.00,,,0.00,VWS V14.01,2013-04-28 05:30:00,
2013-04-28 01:31:00,50.0,33.5,30.05,East,82,3.7,4.2,53,0.00,,,0.00,VWS V14.01,2013-04-28 05:31:00,
2013-04-28 01:32:00,50.5,34.0,30.04,East,92,4.4,4.5,53,0.00,,,0.00,VWS V14.01,2013-04-28 05:32:00,
2013-04-28 01:33:00,50.1,33.7,30.04,ENE,68,3.7,3.7,53,0.00,,,0.00,VWS V14.01,2013-04-28 05:33:00,
2013-04-28 01:34:00,50.3,33.4,30.04,ENE,60,4.5,4.5,52,0.00,,,0.00,VWS V14.01,2013-04-28 05:34:00,
2013-04-28 01:35:00,50.2,33.6,30.04,ENE,57,4.0,4.0,53,0.00,,,0.00,VWS V14.01,2013-04-28 05:35:00,
2013-04-28 01:36:00,50.7,33.5,30.04,ENE,69,4.9,4.9,52,0.00,,,0.00,VWS V14.01,2013-04-28 05:36:00,
2013-04-28 01:37:00,50.1,33.5,30.05,ENE,70,3.5,4.9,53,0.00,,,0.00,VWS V14.01,2013-04-28 05:37:00,
2013-04-28 01:38:00,50.0,33.4,30.04,ENE,68,3.0,4.0,53,0.00,,,0.00,VWS V14.01,2013-04-28 05:38:00,
2013-04-28 01:39:00,50.1,33.9,30.05,ENE,64,2.8,4.0,54,0.00,,,0.00,VWS V14.01,2013-04-28 05:39:00,
2013-04-28 01:40:00,50.5,33.9,30.04,ENE,67,3.9,3.9,53,0.00,,,0.00,VWS V14.01,2013-04-28 05:40:00,
2013-04-28 01:41:00,50.2,33.5,30.04,ENE,59,3.7,3.9,52,0.00,,,0.00,VWS V14.01,2013-04-28 05:41:00,
2013-04-28 01:42:00,50.5,33.9,30.03,ENE,74,4.0,4.0,53,0.00,,,0.00,VWS V14.01,2013-04-28 05:42:00,
2013-04-28 01:43:00,50.3,33.6,30.04,ENE,68,4.5,4.5,53,0.00,,,0.00,VWS V14.01,2013-04-28 05:43:00,
2013-04-28 01:44:00,50.1,33.3,30.03,ENE,73,4.0,4.7,52,0.00,,,0.00,VWS V14.01,2013-04-28 05:44:00,
2013-04-28 01:45:00,50.2,33.5,30.03,ENE,61,4.7,4.7,53,0.00,,,0.00,VWS V14.01,2013-04-28 05:45:00,
2013-04-28 01:46:00,50.0,34.1,30.07,ENE,63,4.2,4.7,54,0.00,,,0.00,VWS V14.01,2013-04-28 05:46:00,
2013-04-28 01:47:00,50.0,34.7,30.04,ENE,62,4.0,4.2,55,0.00,,,0.00,VWS V14.01,2013-04-28 05:47:00,
2013-04-28 01:48:00,50.1,34.1,30.03,ENE,64,3.9,3.9,54,0.00,,,0.00,VWS V14.01,2013-04-28 05:48:00,
2013-04-28 01:49:00,50.6,33.8,30.04,ENE,67,6.8,6.8,52,0.00,,,0.00,VWS V14.01,2013-04-28 05:49:00,
2013-04-28 01:50:00,50.3,33.7,30.03,East,80,5.6,6.8,53,0.00,,,0.00,VWS V14.01,2013-04-28 05:50:00,
2013-04-28 01:51:00,50.2,34.0,30.02,ENE,60,4.4,5.6,53,0.00,,,0.00,VWS V14.01,2013-04-28 05:51:00,
2013-04-28 01:52:00,50.4,33.9,30.02,ENE,77,5.1,5.1,53,0.00,,,0.00,VWS V14.01,2013-04-28 05:52:00,
2013-04-28 01:53:00,50.3,33.5,30.02,ENE,73,6.3,6.3,52,0.00,,,0.00,VWS V14.01,2013-04-28 05:53:00,
2013-04-28 01:54:00,50.1,33.3,30.01,ENE,66,5.7,6.3,52,0.00,,,0.00,VWS V14.01,2013-04-28 05:54:00,
2013-04-28 01:55:00,50.2,33.3,30.02,ENE,60,5.7,5.7,52,0.00,,,0.00,VWS V14.01,2013-04-28 05:55:00,
2013-04-28 01:56:00,49.9,33.5,30.02,ENE,68,4.2,5.7,53,0.00,,,0.00,VWS V14.01,2013-04-28 05:56:00,
2013-04-28 01:57:00,50.0,33.7,30.04,ENE,61,5.2,5.2,53,0.00,,,0.00,VWS V14.01,2013-04-28 05:57:00,
2013-04-28 01:58:00,50.4,33.7,30.03,ENE,59,6.1,6.1,53,0.00,,,0.00,VWS V14.01,2013-04-28 05:58:00,
2013-04-28 01:59:00,50.1,34.1,30.02,ENE,75,6.1,6.1,54,0.00,,,0.00,VWS V14.01,2013-04-28 05:59:00,
2013-04-28 02:00:00,50.0,34.1,30.02,ENE,61,5.6,6.1,54,0.00,,,0.00,VWS V14.01,2013-04-28 06:00:00,
2013-04-28 02:02:00,49.9,33.8,30.02,NE,51,5.1,6.1,54,0.00,,,0.00,VWS V14.01,2013-04-28 06:02:00,
2013-04-28 02:03:00,49.7,34.2,30.02,ENE,67,3.5,6.1,55,0.00,,,0.00,VWS V14.01,2013-04-28 06:03:00,
2013-04-28 02:04:00,50.0,34.0,30.03,ENE,64,4.7,6.1,54,0.00,,,0.00,VWS V14.01,2013-04-28 06:04:00,
2013-04-28 02:07:00,49.5,33.7,30.02,NE,55,4.5,6.6,54,0.00,,,0.00,VWS V14.01,2013-04-28 06:07:00,
2013-04-28 02:08:00,49.8,33.6,30.03,ENE,72,6.3,6.6,53,0.00,,,0.00,VWS V14.01,2013-04-28 06:08:00,
2013-04-28 02:09:00,49.9,33.3,30.01,ENE,57,6.6,6.6,53,0.00,,,0.00,VWS V14.01,2013-04-28 06:09:00,
2013-04-28 02:11:00,49.5,33.6,30.02,ENE,68,6.1,6.6,54,0.00,,,0.00,VWS V14.01,2013-04-28 06:11:00,
2013-04-28 02:12:00,49.9,33.9,30.03,East,95,5.7,6.6,54,0.00,,,0.00,VWS V14.01,2013-04-28 06:12:00,
2013-04-28 02:13:00,50.1,33.5,30.02,NE,39,3.7,6.6,53,0.00,,,0.00,VWS V14.01,2013-04-28 06:13:00,
2013-04-28 02:14:00,49.8,33.3,30.02,NE,50,5.4,6.6,53,0.00,,,0.00,VWS V14.01,2013-04-28 06:14:00,
2013-04-28 02:16:00,49.8,33.8,30.02,ENE,65,4.7,6.6,54,0.00,,,0.00,VWS V14.01,2013-04-28 06:16:00,
2013-04-28 02:17:00,49.7,33.4,30.01,ENE,62,4.2,6.6,53,0.00,,,0.00,VWS V14.01,2013-04-28 06:17:00,
2013-04-28 02:18:00,49.4,33.7,30.02,NE,54,3.9,6.6,55,0.00,,,0.00,VWS V14.01,2013-04-28 06:18:00,
2013-04-28 02:19:00,49.5,33.8,30.02,ENE,65,4.4,6.6,54,0.00,,,0.00,VWS V14.01,2013-04-28 06:19:00,
2013-04-28 02:22:00,49.3,33.4,30.02,East,82,3.4,6.6,54,0.00,,,0.00,VWS V14.01,2013-04-28 06:22:00,
2013-04-28 02:23:00,49.7,33.4,30.02,ENE,69,4.7,6.6,53,0.00,,,0.00,VWS V14.01,2013-04-28 06:23:00,
2013-04-28 02:24:00,49.2,33.3,30.02,ENE,69,3.4,6.6,54,0.00,,,0.00,VWS V14.01,2013-04-28 06:24:00,
2013-04-28 02:25:00,49.4,33.5,30.06,ENE,67,3.2,6.6,54,0.00,,,0.00,VWS V14.01,2013-04-28 06:25:00,
2013-04-28 02:27:00,49.2,33.2,30.02,ENE,64,4.2,6.6,54,0.00,,,0.00,VWS V14.01,2013-04-28 06:27:00,
2013-04-28 02:28:00,49.4,33.2,30.01,ENE,70,4.5,6.6,53,0.00,,,0.00,VWS V14.01,2013-04-28 06:28:00,
2013-04-28 02:29:00,49.6,34.1,30.01,ENE,75,3.7,6.6,55,0.00,,,0.00,VWS V14.01,2013-04-28 06:29:00,
2013-04-28 02:31:00,49.4,34.1,30.01,ENE,75,5.1,6.6,55,0.00,,,0.00,VWS V14.01,2013-04-28 06:31:00,
2013-04-28 02:33:00,49.7,33.4,30.01,ENE,72,4.7,6.6,53,0.00,,,0.00,VWS V14.01,2013-04-28 06:33:00,
2013-04-28 02:35:00,49.4,33.5,30.01,East,89,4.5,6.6,54,0.00,,,0.00,VWS V14.01,2013-04-28 06:35:00,
2013-04-28 02:36:00,49.3,33.5,30.04,ENE,75,4.2,6.6,54,0.00,,,0.00,VWS V14.01,2013-04-28 06:36:00,
2013-04-28 02:39:00,49.2,33.8,30.01,East,86,3.5,6.6,55,0.00,,,0.00,VWS V14.01,2013-04-28 06:39:00,
2013-04-28 02:40:00,49.4,33.8,30.01,ENE,68,3.4,6.6,55,0.00,,,0.00,VWS V14.01,2013-04-28 06:40:00,
2013-04-28 02:42:00,49.5,33.8,30.00,ENE,69,3.7,6.6,55,0.00,,,0.00,VWS V14.01,2013-04-28 06:42:00,
2013-04-28 02:43:00,49.3,33.9,30.01,ENE,65,3.0,6.6,55,0.00,,,0.00,VWS V14.01,2013-04-28 06:43:00,
2013-04-28 02:44:00,49.2,33.9,30.01,NE,56,4.2,6.6,55,0.00,,,0.00,VWS V14.01,2013-04-28 06:44:00,
2013-04-28 02:45:00,49.3,34.1,30.01,ENE,69,3.4,6.6,56,0.00,,,0.00,VWS V14.01,2013-04-28 06:45:00,
2013-04-28 02:48:00,49.1,34.2,30.00,ENE,57,3.5,6.6,56,0.00,,,0.00,VWS V14.01,2013-04-28 06:48:00,
2013-04-28 02:49:00,49.2,34.6,30.00,ENE,77,3.5,6.6,57,0.00,,,0.00,VWS V14.01,2013-04-28 06:49:00,
2013-04-28 02:50:00,49.4,34.7,29.99,East,86,3.4,6.6,57,0.00,,,0.00,VWS V14.01,2013-04-28 06:50:00,
2013-04-28 02:51:00,49.1,34.6,30.03,NE,53,3.7,6.6,57,0.00,,,0.00,VWS V14.01,2013-04-28 06:51:00,
2013-04-28 02:53:00,49.3,34.4,30.00,ENE,74,3.7,6.6,56,0.00,,,0.00,VWS V14.01,2013-04-28 06:53:00,
2013-04-28 02:54:00,49.5,34.3,30.00,ENE,61,4.9,6.6,56,0.00,,,0.00,VWS V14.01,2013-04-28 06:54:00,
2013-04-28 02:56:00,49.3,34.5,30.00,ENE,66,3.0,6.6,56,0.00,,,0.00,VWS V14.01,2013-04-28 06:56:00,
2013-04-28 02:57:00,49.1,34.4,30.00,ENE,58,3.7,6.6,57,0.00,,,0.00,VWS V14.01,2013-04-28 06:57:00,
2013-04-28 02:58:00,49.0,34.6,30.00,East,79,3.0,6.6,57,0.00,,,0.00,VWS V14.01,2013-04-28 06:58:00,
2013-04-28 02:59:00,48.9,34.7,30.00,East,88,2.8,6.6,58,0.00,,,0.00,VWS V14.01,2013-04-28 06:59:00,
2013-04-28 03:00:00,48.9,34.3,29.99,ENE,58,2.7,6.6,57,0.00,,,0.00,VWS V14.01,2013-04-28 07:00:00,
2013-04-28 03:03:00,49.1,35.3,29.99,East,81,3.7,3.7,59,0.00,,,0.00,VWS V14.01,2013-04-28 07:03:00,
2013-04-28 03:05:00,48.5,34.7,29.99,East,95,3.2,3.9,59,0.00,,,0.00,VWS V14.01,2013-04-28 07:05:00,
2013-04-28 03:07:00,48.7,35.0,29.99,East,87,3.7,5.2,59,0.00,,,0.00,VWS V14.01,2013-04-28 07:07:00,
2013-04-28 03:08:00,49.0,34.5,29.99,East,79,5.4,5.4,57,0.00,,,0.00,VWS V14.01,2013-04-28 07:08:00,
2013-04-28 03:10:00,48.8,34.9,29.99,ENE,67,3.7,5.4,58,0.00,,,0.00,VWS V14.01,2013-04-28 07:10:00,
2013-04-28 03:12:00,48.9,34.5,29.98,East,90,4.2,5.4,57,0.00,,,0.00,VWS V14.01,2013-04-28 07:12:00,
2013-04-28 03:14:00,48.6,34.5,29.98,East,82,4.0,5.6,58,0.00,,,0.00,VWS V14.01,2013-04-28 07:14:00,
2013-04-28 03:15:00,48.9,34.7,29.98,East,87,4.7,5.9,58,0.00,,,0.00,VWS V14.01,2013-04-28 07:15:00,
2013-04-28 03:16:00,49.0,35.1,29.98,East,87,5.6,5.9,58,0.00,,,0.00,VWS V14.01,2013-04-28 07:16:00,
2013-04-28 03:17:00,48.8,35.2,29.98,ENE,74,5.4,5.9,59,0.00,,,0.00,VWS V14.01,2013-04-28 07:17:00,
2013-04-28 03:20:00,48.6,34.8,29.99,East,81,3.9,5.9,59,0.00,,,0.00,VWS V14.01,2013-04-28 07:20:00,
2013-04-28 03:21:00,48.7,34.8,29.99,East,85,3.4,5.9,58,0.00,,,0.00,VWS V14.01,2013-04-28 07:21:00,
2013-04-28 03:22:00,48.7,35.1,29.99,ENE,71,3.5,5.9,59,0.00,,,0.00,VWS V14.01,2013-04-28 07:22:00,
2013-04-28 03:23:00,48.8,35.2,29.99,East,82,4.4,5.9,59,0.00,,,0.00,VWS V14.01,2013-04-28 07:23:00,
2013-04-28 03:26:00,48.9,35.0,29.98,East,84,3.0,6.3,58,0.00,,,0.00,VWS V14.01,2013-04-28 07:26:00,
2013-04-28 03:27:00,48.7,34.8,29.98,East,84,4.2,6.3,58,0.00,,,0.00,VWS V14.01,2013-04-28 07:27:00,
2013-04-28 03:28:00,48.4,34.4,29.99,ENE,74,3.5,6.3,58,0.00,,,0.00,VWS V14.01,2013-04-28 07:28:00,
2013-04-28 03:29:00,49.1,34.9,29.99,East,80,4.0,6.3,58,0.00,,,0.00,VWS V14.01,2013-04-28 07:29:00,
2013-04-28 03:32:00,48.9,34.6,29.97,East,90,3.9,6.3,58,0.00,,,0.00,VWS V14.01,2013-04-28 07:32:00,
2013-04-28 03:34:00,48.9,34.9,29.98,ENE,71,3.9,6.3,58,0.00,,,0.00,VWS V14.01,2013-04-28 07:34:00,
2013-04-28 03:35:00,48.8,34.6,29.98,ENE,70,3.5,6.3,58,0.00,,,0.00,VWS V14.01,2013-04-28 07:35:00,
2013-04-28 03:38:00,48.8,34.9,29.98,ENE,71,3.5,6.3,59,0.00,,,0.00,VWS V14.01,2013-04-28 07:38:00,
2013-04-28 03:39:00,49.0,34.4,29.98,ENE,60,5.1,6.3,57,0.00,,,0.00,VWS V14.01,2013-04-28 07:39:00,
2013-04-28 03:43:00,48.9,34.6,29.98,NE,49,3.2,6.3,58,0.00,,,0.00,VWS V14.01,2013-04-28 07:43:00,
2013-04-28 03:44:00,48.7,34.9,29.98,ENE,65,4.0,6.3,59,0.00,,,0.00,VWS V14.01,2013-04-28 07:44:00,
2013-04-28 03:45:00,48.7,34.9,29.98,ENE,65,4.0,6.3,59,0.00,,,0.00,VWS V14.01,2013-04-28 07:45:00,
2013-04-28 03:46:00,49.0,35.2,29.98,ENE,70,5.9,6.3,59,0.00,,,0.00,VWS V14.01,2013-04-28 07:46:00,
2013-04-28 03:48:00,48.6,35.1,29.97,NE,56,4.2,6.3,60,0.00,,,0.00,VWS V14.01,2013-04-28 07:48:00,
2013-04-28 03:50:00,48.9,35.3,29.97,ENE,74,3.9,6.3,59,0.00,,,0.00,VWS V14.01,2013-04-28 07:50:00,
2013-04-28 03:51:00,48.6,35.8,29.97,ENE,61,4.4,6.3,61,0.00,,,0.00,VWS V14.01,2013-04-28 07:51:00,
2013-04-28 03:53:00,48.6,35.2,29.98,ENE,65,3.4,6.3,60,0.00,,,0.00,VWS V14.01,2013-04-28 07:53:00,
2013-04-28 03:54:00,49.3,33.8,29.98,ENE,71,5.9,6.3,55,0.00,,,0.00,VWS V14.01,2013-04-28 07:54:00,
2013-04-28 03:55:00,49.0,34.7,29.98,NE,51,3.4,6.3,58,0.00,,,0.00,VWS V14.01,2013-04-28 07:55:00,
2013-04-28 03:56:00,49.0,35.0,29.98,ENE,62,4.9,6.3,58,0.00,,,0.00,VWS V14.01,2013-04-28 07:56:00,
2013-04-28 03:58:00,49.0,34.5,29.98,ENE,77,5.4,7.1,57,0.00,,,0.00,VWS V14.01,2013-04-28 07:58:00,
2013-04-28 03:59:00,49.0,34.5,29.98,ENE,77,5.4,7.1,57,0.00,,,0.00,VWS V14.01,2013-04-28 07:59:00,
2013-04-28 04:00:00,48.9,34.2,30.02,ENE,72,5.6,7.1,57,0.00,,,0.00,VWS V14.01,2013-04-28 08:00:00,
2013-04-28 04:01:00,49.1,34.3,29.99,ENE,62,5.2,7.1,57,0.00,,,0.00,VWS V14.01,2013-04-28 08:01:00,
2013-04-28 04:02:00,48.7,34.5,29.97,ENE,60,4.7,5.2,58,0.00,,,0.00,VWS V14.01,2013-04-28 08:02:00,
2013-04-28 04:03:00,48.8,34.5,29.97,ENE,70,5.6,5.6,57,0.00,,,0.00,VWS V14.01,2013-04-28 08:03:00,
2013-04-28 04:04:00,48.6,34.6,29.98,ENE,65,4.9,5.6,58,0.00,,,0.00,VWS V14.01,2013-04-28 08:04:00,
2013-04-28 04:05:00,48.8,35.1,29.98,NE,47,3.7,4.9,59,0.00,,,0.00,VWS V14.01,2013-04-28 08:05:00,
2013-04-28 04:06:00,48.8,35.1,29.97,NE,54,4.0,4.0,59,0.00,,,0.00,VWS V14.01,2013-04-28 08:06:00,
2013-04-28 04:07:00,48.8,35.0,29.97,ENE,59,3.9,4.0,59,0.00,,,0.00,VWS V14.01,2013-04-28 08:07:00,
2013-04-28 04:08:00,48.9,35.0,29.97,ENE,61,4.7,5.9,59,0.00,,,0.00,VWS V14.01,2013-04-28 08:08:00,
2013-04-28 04:09:00,48.9,34.7,30.02,NE,53,4.4,5.4,58,0.00,,,0.00,VWS V14.01,2013-04-28 08:09:00,
2013-04-28 04:10:00,48.8,35.2,29.99,East,87,4.4,4.4,59,0.00,,,0.00,VWS V14.01,2013-04-28 08:10:00,
2013-04-28 04:11:00,48.9,35.4,29.98,ENE,69,4.4,4.5,59,0.00,,,0.00,VWS V14.01,2013-04-28 08:11:00,
2013-04-28 04:12:00,48.6,35.7,29.98,ENE,67,4.5,5.1,61,0.00,,,0.00,VWS V14.01,2013-04-28 08:12:00,
2013-04-28 04:13:00,49.0,35.6,29.97,ENE,62,5.7,5.7,60,0.00,,,0.00,VWS V14.01,2013-04-28 08:13:00,
2013-04-28 04:14:00,49.0,35.4,29.97,ENE,71,6.4,6.4,59,0.00,,,0.00,VWS V14.01,2013-04-28 08:14:00,
2013-04-28 04:15:00,48.4,35.1,29.97,ENE,70,4.4,6.4,60,0.00,,,0.00,VWS V14.01,2013-04-28 08:15:00,
2013-04-28 04:16:00,49.1,34.6,29.96,NE,55,7.5,7.5,57,0.00,,,0.00,VWS V14.01,2013-04-28 08:16:00,
2013-04-28 04:17:00,49.1,34.3,29.97,East,85,7.6,7.8,57,0.00,,,0.00,VWS V14.01,2013-04-28 08:17:00,
2013-04-28 04:18:00,49.1,34.9,29.97,ENE,65,4.9,7.6,58,0.00,,,0.00,VWS V14.01,2013-04-28 08:18:00,
2013-04-28 04:19:00,48.8,34.4,29.97,ENE,72,6.4,6.4,57,0.00,,,0.00,VWS V14.01,2013-04-28 08:19:00,
2013-04-28 04:20:00,49.0,34.6,29.97,East,84,5.2,6.4,57,0.00,,,0.00,VWS V14.01,2013-04-28 08:20:00,
2013-04-28 04:21:00,48.5,34.8,29.97,ENE,62,5.6,7.8,59,0.00,,,0.00,VWS V14.01,2013-04-28 08:21:00,
2013-04-28 04:22:00,48.9,34.6,29.96,ENE,77,5.7,6.4,58,0.00,,,0.00,VWS V14.01,2013-04-28 08:22:00,
2013-04-28 04:23:00,48.8,34.6,29.97,ENE,73,6.1,6.1,58,0.00,,,0.00,VWS V14.01,2013-04-28 08:23:00,
2013-04-28 04:24:00,48.8,34.6,29.97,ENE,73,6.1,6.1,58,0.00,,,0.00,VWS V14.01,2013-04-28 08:24:00,
2013-04-28 04:25:00,48.6,35.0,29.97,ENE,62,5.6,5.6,59,0.00,,,0.00,VWS V14.01,2013-04-28 08:25:00,
2013-04-28 04:26:00,48.6,34.9,29.97,East,81,5.9,5.9,59,0.00,,,0.00,VWS V14.01,2013-04-28 08:26:00,
2013-04-28 04:27:00,48.8,34.8,29.97,ENE,77,6.1,7.1,58,0.00,,,0.00,VWS V14.01,2013-04-28 08:27:00,
2013-04-28 04:28:00,48.7,34.9,29.97,ENE,73,6.4,6.4,59,0.00,,,0.00,VWS V14.01,2013-04-28 08:28:00,
2013-04-28 04:29:00,48.9,35.1,29.97,East,87,6.6,6.6,59,0.00,,,0.00,VWS V14.01,2013-04-28 08:29:00,
2013-04-28 04:30:00,48.5,35.0,29.97,ENE,75,5.6,6.6,59,0.00,,,0.00,VWS V14.01,2013-04-28 08:30:00,
2013-04-28 04:31:00,48.5,35.3,29.96,ENE,72,4.7,5.6,60,0.00,,,0.00,VWS V14.01,2013-04-28 08:31:00,
2013-04-28 04:32:00,48.5,35.2,29.97,ENE,65,5.6,6.8,60,0.00,,,0.00,VWS V14.01,2013-04-28 08:32:00,
2013-04-28 04:33:00,48.8,35.0,29.97,ENE,59,7.6,7.6,59,0.00,,,0.00,VWS V14.01,2013-04-28 08:33:00,
2013-04-28 04:34:00,48.8,35.2,29.97,ENE,70,6.4,7.6,59,0.00,,,0.00,VWS V14.01,2013-04-28 08:34:00,
2013-04-28 04:35:00,48.9,35.2,29.96,East,80,6.3,6.4,59,0.00,,,0.00,VWS V14.01,2013-04-28 08:35:00,
2013-04-28 04:36:00,48.7,35.0,29.97,East,90,5.4,6.3,59,0.00,,,0.00,VWS V14.01,2013-04-28 08:36:00,
2013-04-28 04:37:00,48.9,35.3,29.97,ENE,67,5.2,6.1,59,0.00,,,0.00,VWS V14.01,2013-04-28 08:37:00,
2013-04-28 04:38:00,49.0,34.2,29.96,ENE,64,7.3,7.3,57,0.00,,,0.00,VWS V14.01,2013-04-28 08:38:00,
2013-04-28 04:39:00,49.2,34.8,29.97,ENE,66,7.5,7.5,57,0.00,,,0.00,VWS V14.01,2013-04-28 08:39:00,
2013-04-28 04:40:00,48.8,35.2,29.96,NE,56,5.1,7.5,59,0.00,,,0.00,VWS V14.01,2013-04-28 08:40:00,
2013-04-28 04:41:00,49.0,35.0,29.97,ENE,62,6.6,6.6,58,0.00,,,0.00,VWS V14.01,2013-04-28 08:41:00,
2013-04-28 04:42:00,48.8,35.3,29.97,ENE,57,5.4,6.6,59,0.00,,,0.00,VWS V14.01,2013-04-28 08:42:00,
2013-04-28 04:43:00,48.7,35.5,29.97,ENE,66,4.9,5.4,60,0.00,,,0.00,VWS V14.01,2013-04-28 08:43:00,
2013-04-28 04:44:00,48.8,35.7,29.96,ENE,63,3.7,4.0,60,0.00,,,0.00,VWS V14.01,2013-04-28 08:44:00,
2013-04-28 04:45:00,48.9,35.4,29.97,ENE,72,5.9,5.9,59,0.00,,,0.00,VWS V14.01,2013-04-28 08:45:00,
2013-04-28 04:46:00,49.2,35.2,29.96,NE,53,5.9,5.9,58,0.00,,,0.00,VWS V14.01,2013-04-28 08:46:00,
2013-04-28 04:47:00,48.9,35.2,29.96,ENE,61,6.1,6.1,59,0.00,,,0.00,VWS V14.01,2013-04-28 08:47:00,
2013-04-28 04:48:00,48.7,35.3,29.97,ENE,58,4.4,6.4,60,0.00,,,0.00,VWS V14.01,2013-04-28 08:48:00,
2013-04-28 04:49:00,49.1,35.2,29.96,NE,55,5.6,6.9,58,0.00,,,0.00,VWS V14.01,2013-04-28 08:49:00,
2013-04-28 04:50:00,49.0,35.3,29.96,ENE,71,5.4,5.6,59,0.00,,,0.00,VWS V14.01,2013-04-28 08:50:00,
2013-04-28 04:51:00,48.9,35.5,29.96,ENE,75,4.2,5.4,60,0.00,,,0.00,VWS V14.01,2013-04-28 08:51:00,
2013-04-28 04:52:00,49.0,35.3,29.96,ENE,72,5.7,5.7,59,0.00,,,0.00,VWS V14.01,2013-04-28 08:52:00,
2013-04-28 04:53:00,49.0,35.2,29.96,NE,54,6.8,6.8,59,0.00,,,0.00,VWS V14.01,2013-04-28 08:53:00,
2013-04-28 04:54:00,48.8,33.3,29.96,NE,54,4.9,6.8,55,0.00,,,0.00,VWS V14.01,2013-04-28 08:54:00,
2013-04-28 04:55:00,49.2,34.8,29.96,ENE,62,5.6,6.6,58,0.00,,,0.00,VWS V14.01,2013-04-28 08:55:00,
2013-04-28 04:56:00,49.1,35.0,29.96,ENE,63,6.4,6.4,58,0.00,,,0.00,VWS V14.01,2013-04-28 08:56:00,
2013-04-28 04:57:00,49.0,35.0,29.96,ENE,71,5.6,5.6,58,0.00,,,0.00,VWS V14.01,2013-04-28 08:57:00,
2013-04-28 04:58:00,49.2,35.3,29.97,East,80,6.9,6.9,59,0.00,,,0.00,VWS V14.01,2013-04-28 08:58:00,
2013-04-28 04:59:00,48.9,35.2,29.96,ENE,68,4.9,6.9,59,0.00,,,0.00,VWS V14.01,2013-04-28 08:59:00,
2013-04-28 05:00:00,49.1,35.2,29.96,East,85,5.4,5.4,58,0.00,,,0.00,VWS V14.01,2013-04-28 09:00:00,
2013-04-28 05:01:00,49.1,35.1,29.97,ENE,75,5.4,5.4,58,0.00,,,0.00,VWS V14.01,2013-04-28 09:01:00,
2013-04-28 05:02:00,49.3,35.3,29.96,ENE,77,5.6,5.6,58,0.00,,,0.00,VWS V14.01,2013-04-28 09:02:00,
2013-04-28 05:03:00,49.1,35.3,29.96,ENE,70,4.4,5.6,59,0.00,,,0.00,VWS V14.01,2013-04-28 09:03:00,
2013-04-28 05:04:00,48.9,35.4,29.95,NE,46,4.2,4.4,59,0.00,,,0.00,VWS V14.01,2013-04-28 09:04:00,
2013-04-28 05:05:00,48.9,35.8,29.95,East,80,3.9,4.2,60,0.00,,,0.00,VWS V14.01,2013-04-28 09:05:00,
2013-04-28 05:06:00,49.3,35.4,29.96,ENE,63,5.6,5.6,58,0.00,,,0.00,VWS V14.01,2013-04-28 09:06:00,
2013-04-28 05:07:00,49.4,35.4,29.95,ENE,65,5.6,5.6,58,0.00,,,0.00,VWS V14.01,2013-04-28 09:07:00,
2013-04-28 05:08:00,49.2,35.2,29.96,ENE,64,4.2,5.6,58,0.00,,,0.00,VWS V14.01,2013-04-28 09:08:00,
2013-04-28 05:09:00,49.2,35.3,29.95,ENE,70,6.6,6.6,59,0.00,,,0.00,VWS V14.01,2013-04-28 09:09:00,
2013-04-28 05:10:00,48.8,34.9,29.95,ENE,78,5.7,6.6,58,0.00,,,0.00,VWS V14.01,2013-04-28 09:10:00,
2013-04-28 05:11:00,48.8,35.7,29.96,ENE,72,5.7,5.7,60,0.00,,,0.00,VWS V14.01,2013-04-28 09:11:00,
2013-04-28 05:12:00,49.1,35.8,29.96,ENE,65,5.9,5.9,60,0.00,,,0.00,VWS V14.01,2013-04-28 09:12:00,
2013-04-28 05:13:00,49.2,35.7,29.96,ESE,102,6.1,6.1,60,0.00,,,0.00,VWS V14.01,2013-04-28 09:13:00,
2013-04-28 05:14:00,49.0,35.6,29.95,East,82,6.9,6.9,60,0.00,,,0.00,VWS V14.01,2013-04-28 09:14:00,
2013-04-28 05:15:00,49.1,35.8,29.95,ENE,69,6.4,6.9,60,0.00,,,0.00,VWS V14.01,2013-04-28 09:15:00,
2013-04-28 05:16:00,48.9,35.7,29.95,ENE,71,6.3,6.3,60,0.00,,,0.00,VWS V14.01,2013-04-28 09:16:00,
2013-04-28 05:17:00,49.0,36.2,29.96,ENE,68,6.1,6.1,61,0.00,,,0.00,VWS V14.01,2013-04-28 09:17:00,
2013-04-28 05:18:00,48.8,36.3,29.96,ENE,76,5.7,5.7,62,0.00,,,0.00,VWS V14.01,2013-04-28 09:18:00,
2013-04-28 05:19:00,48.7,36.3,29.96,ENE,78,3.7,5.7,62,0.00,,,0.00,VWS V14.01,2013-04-28 09:19:00,
2013-04-28 05:20:00,48.8,36.7,29.96,ENE,64,4.2,4.2,63,0.00,,,0.00,VWS V14.01,2013-04-28 09:20:00,
2013-04-28 05:21:00,48.9,36.7,29.96,East,79,4.7,4.7,62,0.00,,,0.00,VWS V14.01,2013-04-28 09:21:00,
2013-04-28 05:22:00,48.9,36.7,29.95,NE,54,4.4,4.7,62,0.00,,,0.00,VWS V14.01,2013-04-28 09:22:00,
2013-04-28 05:23:00,49.1,36.4,29.96,ENE,78,6.1,6.8,61,0.00,,,0.00,VWS V14.01,2013-04-28 09:23:00,
2013-04-28 05:24:00,49.0,36.3,29.99,ENE,65,4.9,6.8,61,0.00,,,0.00,VWS V14.01,2013-04-28 09:24:00,
2013-04-28 05:25:00,49.3,36.4,29.97,ENE,76,5.1,5.1,61,0.00,,,0.00,VWS V14.01,2013-04-28 09:25:00,
2013-04-28 05:26:00,49.2,36.6,29.96,ENE,78,5.2,6.6,62,0.00,,,0.00,VWS V14.01,2013-04-28 09:26:00,
2013-04-28 05:27:00,48.9,36.1,29.96,East,82,5.1,5.2,61,0.00,,,0.00,VWS V14.01,2013-04-28 09:27:00,
2013-04-28 05:28:00,49.1,36.9,29.95,ESE,102,3.7,5.2,62,0.00,,,0.00,VWS V14.01,2013-04-28 09:28:00,
2013-04-28 05:29:00,48.8,36.5,29.98,ENE,73,4.7,4.7,62,0.00,,,0.00,VWS V14.01,2013-04-28 09:29:00,
2013-04-28 05:30:00,48.9,36.3,29.95,ENE,67,5.2,5.9,62,0.00,,,0.00,VWS V14.01,2013-04-28 09:30:00,
2013-04-28 05:31:00,49.3,36.7,29.95,East,86,5.7,5.7,62,0.00,,,0.00,VWS V14.01,2013-04-28 09:31:00,
2013-04-28 05:32:00,49.2,36.4,29.95,ENE,62,5.4,6.6,61,0.00,,,0.00,VWS V14.01,2013-04-28 09:32:00,
2013-04-28 05:33:00,49.0,36.5,29.95,ENE,76,4.9,6.6,62,0.00,,,0.00,VWS V14.01,2013-04-28 09:33:00,
2013-04-28 05:34:00,49.0,36.5,29.95,ENE,68,5.7,5.7,62,0.00,,,0.00,VWS V14.01,2013-04-28 09:34:00,
2013-04-28 05:35:00,48.9,36.4,29.95,ENE,58,5.6,7.8,62,0.00,,,0.00,VWS V14.01,2013-04-28 09:35:00,
2013-04-28 05:36:00,48.8,36.5,29.95,East,82,4.9,7.8,62,0.00,,,0.00,VWS V14.01,2013-04-28 09:36:00,
2013-04-28 05:37:00,48.9,36.6,29.95,ENE,61,5.9,5.9,62,0.00,,,0.00,VWS V14.01,2013-04-28 09:37:00,
2013-04-28 05:38:00,49.1,37.1,29.95,ENE,75,5.4,5.9,63,0.00,,,0.00,VWS V14.01,2013-04-28 09:38:00,
2013-04-28 05:39:00,48.9,36.8,29.95,East,81,6.8,6.8,63,0.00,,,0.00,VWS V14.01,2013-04-28 09:39:00,
2013-04-28 05:40:00,48.8,36.8,29.95,ENE,78,5.4,6.8,63,0.00,,,0.00,VWS V14.01,2013-04-28 09:40:00,
2013-04-28 05:41:00,48.8,37.0,29.95,East,83,7.1,7.1,64,0.00,,,0.00,VWS V14.01,2013-04-28 09:41:00,
2013-04-28 05:42:00,48.7,36.8,29.95,ENE,71,5.6,6.6,63,0.00,,,0.00,VWS V14.01,2013-04-28 09:42:00,
2013-04-28 05:43:00,49.0,37.1,29.94,ENE,72,6.6,6.6,64,0.00,,,0.00,VWS V14.01,2013-04-28 09:43:00,
2013-04-28 05:44:00,48.9,37.1,29.94,East,92,6.6,6.8,64,0.00,,,0.00,VWS V14.01,2013-04-28 09:44:00,
2013-04-28 05:45:00,48.2,37.1,29.94,ENE,69,4.2,6.6,65,0.00,,,0.00,VWS V14.01,2013-04-28 09:45:00,
2013-04-28 05:46:00,48.8,37.5,29.95,East,95,7.1,7.1,65,0.00,,,0.00,VWS V14.01,2013-04-28 09:46:00,
2013-04-28 05:47:00,48.8,37.0,29.95,ENE,70,5.9,7.6,64,0.00,,,0.00,VWS V14.01,2013-04-28 09:47:00,
2013-04-28 05:48:00,48.9,37.3,29.95,ENE,69,6.9,6.9,64,0.00,,,0.00,VWS V14.01,2013-04-28 09:48:00,
2013-04-28 05:49:00,48.8,37.1,29.95,East,88,6.1,7.1,64,0.00,,,0.00,VWS V14.01,2013-04-28 09:49:00,
2013-04-28 05:50:00,48.1,37.3,29.94,ENE,68,4.4,6.1,66,0.00,,,0.00,VWS V14.01,2013-04-28 09:50:00,
2013-04-28 05:51:00,48.7,38.1,29.95,ENE,67,5.7,5.7,67,0.00,,,0.00,VWS V14.01,2013-04-28 09:51:00,
2013-04-28 05:52:00,48.7,37.9,29.99,ENE,61,6.3,6.3,66,0.00,,,0.00,VWS V14.01,2013-04-28 09:52:00,
2013-04-28 05:53:00,48.6,37.8,29.95,East,85,6.1,6.3,66,0.00,,,0.00,VWS V14.01,2013-04-28 09:53:00,
2013-04-28 05:54:00,48.3,37.8,29.94,ENE,63,4.9,6.1,67,0.00,,,0.00,VWS V14.01,2013-04-28 09:54:00,
2013-04-28 05:55:00,48.4,38.0,29.94,ENE,61,5.9,5.9,67,0.00,,,0.00,VWS V14.01,2013-04-28 09:55:00,
2013-04-28 05:56:00,48.5,38.3,29.95,ENE,67,6.3,6.6,67,0.00,,,0.00,VWS V14.01,2013-04-28 09:56:00,
2013-04-28 05:57:00,48.1,38.2,29.95,ENE,64,4.0,6.6,69,0.00,,,0.00,VWS V14.01,2013-04-28 09:57:00,
2013-04-28 05:58:00,48.1,38.7,29.95,ENE,67,4.0,5.1,70,0.00,,,0.00,VWS V14.01,2013-04-28 09:58:00,
2013-04-28 05:59:00,48.7,38.9,29.95,NE,54,6.1,6.1,69,0.00,,,0.00,VWS V14.01,2013-04-28 09:59:00,
2013-04-28 06:00:00,48.4,38.0,29.95,ENE,71,5.9,6.1,67,0.00,,,0.00,VWS V14.01,2013-04-28 10:00:00,
2013-04-28 06:01:00,48.5,39.2,29.95,East,82,5.7,5.9,70,0.00,,,0.00,VWS V14.01,2013-04-28 10:01:00,
2013-04-28 06:02:00,48.1,39.0,29.94,ENE,69,3.9,5.7,71,0.00,,,0.00,VWS V14.01,2013-04-28 10:02:00,
2013-04-28 06:03:00,48.0,38.6,29.94,ENE,72,4.7,4.7,70,0.00,,,0.00,VWS V14.01,2013-04-28 10:03:00,
2013-04-28 06:04:00,48.2,39.4,29.94,East,96,4.7,4.7,71,0.00,,,0.00,VWS V14.01,2013-04-28 10:04:00,
2013-04-28 06:05:00,47.9,39.2,29.94,ENE,74,5.7,5.7,72,0.00,,,0.00,VWS V14.01,2013-04-28 10:05:00,
2013-04-28 06:06:00,47.8,39.5,29.94,ENE,62,4.7,5.9,73,0.00,,,0.00,VWS V14.01,2013-04-28 10:06:00,
2013-04-28 06:07:00,48.1,39.9,29.94,East,84,5.2,5.2,73,0.00,,,0.00,VWS V14.01,2013-04-28 10:07:00,
2013-04-28 06:08:00,48.0,39.5,29.94,ENE,58,5.4,5.7,72,0.00,,,0.00,VWS V14.01,2013-04-28 10:08:00,
2013-04-28 06:09:00,47.9,39.7,29.94,ENE,73,5.1,5.4,73,0.00,,,0.00,VWS V14.01,2013-04-28 10:09:00,
2013-04-28 06:10:00,47.8,39.8,29.94,NE,48,4.9,6.3,74,0.00,,,0.00,VWS V14.01,2013-04-28 10:10:00,
2013-04-28 06:11:00,48.0,40.0,29.94,ENE,70,5.9,5.9,74,0.00,,,0.00,VWS V14.01,2013-04-28 10:11:00,
2013-04-28 06:12:00,47.9,39.9,29.94,ENE,58,5.1,5.9,74,0.00,,,0.00,VWS V14.01,2013-04-28 10:12:00,
2013-04-28 06:13:00,48.1,40.2,29.94,East,88,7.3,7.3,74,0.00,,,0.00,VWS V14.01,2013-04-28 10:13:00,
2013-04-28 06:14:00,48.2,40.3,29.93,ENE,76,5.6,7.3,74,0.00,,,0.00,VWS V14.01,2013-04-28 10:14:00,
2013-04-28 06:15:00,47.7,39.7,29.94,ENE,66,5.9,7.1,74,0.00,,,0.00,VWS V14.01,2013-04-28 10:15:00,
2013-04-28 06:16:00,48.1,40.3,29.95,ENE,67,6.1,6.6,74,0.00,,,0.00,VWS V14.01,2013-04-28 10:16:00,
2013-04-28 06:17:00,47.7,40.0,29.94,ENE,72,4.9,6.1,74,0.00,,,0.00,VWS V14.01,2013-04-28 10:17:00,
2013-04-28 06:18:00,47.7,40.2,29.95,ENE,63,6.4,6.6,75,0.00,,,0.00,VWS V14.01,2013-04-28 10:18:00,
2013-04-28 06:19:00,47.9,40.3,29.95,ENE,65,7.5,7.5,75,0.00,,,0.00,VWS V14.01,2013-04-28 10:19:00,
2013-04-28 06:20:00,47.6,40.5,29.94,ENE,72,6.4,7.6,76,0.00,,,0.00,VWS V14.01,2013-04-28 10:20:00,
2013-04-28 06:21:00,47.8,41.0,29.94,East,97,5.1,6.4,77,0.00,,,0.00,VWS V14.01,2013-04-28 10:21:00,
2013-04-28 06:22:00,47.2,40.9,29.94,ENE,75,3.9,5.6,79,0.00,,,0.00,VWS V14.01,2013-04-28 10:22:00,
2013-04-28 06:23:00,47.8,41.5,29.93,ENE,72,4.4,4.4,79,0.00,,,0.00,VWS V14.01,2013-04-28 10:23:00,
2013-04-28 06:24:00,47.8,41.3,29.93,NE,54,6.9,6.9,78,0.00,,,0.00,VWS V14.01,2013-04-28 10:24:00,
2013-04-28 06:25:00,47.6,41.0,29.94,ENE,73,5.9,5.9,78,0.00,,,0.00,VWS V14.01,2013-04-28 10:25:00,
2013-04-28 06:26:00,47.6,41.1,29.94,ENE,69,4.2,5.9,78,0.00,,,0.00,VWS V14.01,2013-04-28 10:26:00,
2013-04-28 06:27:00,47.4,41.1,29.98,East,79,3.9,4.5,79,0.00,,,0.00,VWS V14.01,2013-04-28 10:27:00,
2013-04-28 06:28:00,47.6,41.6,29.94,NE,49,7.1,7.1,79,0.00,,,0.00,VWS V14.01,2013-04-28 10:28:00,
2013-04-28 06:29:00,47.5,41.5,29.94,East,93,4.4,7.1,80,0.00,,,0.00,VWS V14.01,2013-04-28 10:29:00,
2013-04-28 06:30:00,47.5,41.5,29.94,East,93,4.4,7.1,80,0.00,,,0.00,VWS V14.01,2013-04-28 10:30:00,
2013-04-28 06:31:00,47.4,41.7,29.94,ENE,75,4.5,4.5,81,0.00,,,0.00,VWS V14.01,2013-04-28 10:31:00,
2013-04-28 06:32:00,47.4,41.6,29.93,ENE,62,4.2,5.2,80,0.00,,,0.00,VWS V14.01,2013-04-28 10:32:00,
2013-04-28 06:33:00,47.6,41.9,29.94,ENE,71,5.2,5.2,81,0.00,,,0.00,VWS V14.01,2013-04-28 10:33:00,
2013-04-28 06:34:00,47.6,41.5,29.94,NE,52,4.7,5.4,79,0.00,,,0.00,VWS V14.01,2013-04-28 10:34:00,
2013-04-28 06:35:00,47.5,41.5,29.94,ENE,71,4.2,4.7,80,0.00,,,0.00,VWS V14.01,2013-04-28 10:35:00,
2013-04-28 06:36:00,47.5,41.5,29.94,ENE,71,4.2,4.2,80,0.00,,,0.00,VWS V14.01,2013-04-28 10:36:00,
2013-04-28 06:37:00,47.7,42.0,29.94,ENE,71,6.4,6.4,80,0.00,,,0.00,VWS V14.01,2013-04-28 10:37:00,
2013-04-28 06:38:00,47.4,41.9,29.94,ENE,60,4.7,4.7,81,0.00,,,0.00,VWS V14.01,2013-04-28 10:38:00,
2013-04-28 06:39:00,47.5,41.9,29.93,ENE,62,4.5,4.7,81,0.00,,,0.00,VWS V14.01,2013-04-28 10:39:00,
2013-04-28 06:40:00,47.7,41.9,29.94,ENE,65,5.9,6.8,80,0.00,,,0.00,VWS V14.01,2013-04-28 10:40:00,
2013-04-28 06:41:00,47.3,41.7,29.93,ENE,69,3.7,3.7,81,0.00,,,0.00,VWS V14.01,2013-04-28 10:41:00,
2013-04-28 06:42:00,47.5,42.2,29.94,ENE,67,5.2,5.2,82,0.00,,,0.00,VWS V14.01,2013-04-28 10:42:00,
2013-04-28 06:43:00,47.7,42.3,29.94,ENE,69,5.4,5.4,81,0.00,,,0.00,VWS V14.01,2013-04-28 10:43:00,
2013-04-28 06:44:00,47.3,42.0,29.94,ENE,65,4.0,5.4,82,0.00,,,0.00,VWS V14.01,2013-04-28 10:44:00,
2013-04-28 06:45:00,47.0,42.1,29.94,East,97,3.0,4.0,83,0.00,,,0.00,VWS V14.01,2013-04-28 10:45:00,
2013-04-28 06:46:00,47.2,42.1,29.93,East,85,5.1,5.1,82,0.00,,,0.00,VWS V14.01,2013-04-28 10:46:00,
2013-04-28 06:47:00,47.3,42.1,29.94,East,94,5.9,7.1,82,0.00,,,0.00,VWS V14.01,2013-04-28 10:47:00,
2013-04-28 06:48:00,47.4,42.2,29.94,East,82,5.9,5.9,82,0.00,,,0.00,VWS V14.01,2013-04-28 10:48:00,
2013-04-28 06:49:00,47.5,42.4,29.93,ENE,68,4.9,6.1,82,0.00,,,0.00,VWS V14.01,2013-04-28 10:49:00,
2013-04-28 06:50:00,47.5,42.4,29.93,ENE,63,5.6,5.6,82,0.00,,,0.00,VWS V14.01,2013-04-28 10:50:00,
2013-04-28 06:51:00,47.3,42.5,29.94,ENE,70,5.4,5.6,83,0.00,,,0.00,VWS V14.01,2013-04-28 10:51:00,
2013-04-28 06:52:00,47.5,42.7,29.94,ENE,61,5.6,5.6,83,0.00,,,0.00,VWS V14.01,2013-04-28 10:52:00,
2013-04-28 06:53:00,47.4,42.6,29.93,ENE,71,5.1,5.6,83,0.00,,,0.00,VWS V14.01,2013-04-28 10:53:00,
2013-04-28 06:54:00,47.4,42.7,29.94,ENE,70,4.2,5.6,84,0.00,,,0.00,VWS V14.01,2013-04-28 10:54:00,
2013-04-28 06:55:00,47.5,43.0,29.94,ENE,62,6.3,6.3,84,0.00,,,0.00,VWS V14.01,2013-04-28 10:55:00,
2013-04-28 06:56:00,47.5,42.9,29.94,ESE,113,4.7,6.3,84,0.00,,,0.00,VWS V14.01,2013-04-28 10:56:00,
2013-04-28 06:57:00,47.5,42.7,29.94,ENE,59,4.7,8.1,83,0.00,,,0.00,VWS V14.01,2013-04-28 10:57:00,
2013-04-28 06:58:00,47.8,43.1,29.94,ENE,72,5.4,5.4,84,0.00,,,0.00,VWS V14.01,2013-04-28 10:58:00,
2013-04-28 06:59:00,47.6,42.8,29.94,ENE,72,6.1,6.1,84,0.00,,,0.00,VWS V14.01,2013-04-28 10:59:00,
2013-04-28 07:00:00,47.6,43.0,29.94,East,79,5.4,6.1,84,0.00,,,0.00,VWS V14.01,2013-04-28 11:00:00,
2013-04-28 07:01:00,47.1,42.6,29.94,East,80,7.3,7.3,84,0.00,,,0.00,VWS V14.01,2013-04-28 11:01:00,
2013-04-28 07:02:00,47.0,42.3,29.94,East,80,5.7,7.3,83,0.00,,,0.00,VWS V14.01,2013-04-28 11:02:00,
2013-04-28 07:03:00,47.8,43.0,29.94,ENE,72,7.8,7.8,83,0.00,,,0.00,VWS V14.01,2013-04-28 11:03:00,
2013-04-28 07:04:00,47.6,42.9,29.95,ENE,69,6.8,6.8,83,0.00,,,0.00,VWS V14.01,2013-04-28 11:04:00,
2013-04-28 07:05:00,47.5,43.0,29.94,ENE,61,6.1,6.8,84,0.00,,,0.00,VWS V14.01,2013-04-28 11:05:00,
2013-04-28 07:06:00,47.7,43.1,29.94,ENE,78,6.6,6.6,84,0.00,,,0.00,VWS V14.01,2013-04-28 11:06:00,
2013-04-28 07:07:00,47.5,43.0,29.94,East,91,6.1,6.6,84,0.00,,,0.00,VWS V14.01,2013-04-28 11:07:00,
2013-04-28 07:08:00,47.8,43.4,29.94,East,79,5.6,6.9,85,0.00,,,0.00,VWS V14.01,2013-04-28 11:08:00,
2013-04-28 07:09:00,47.4,43.1,29.94,East,82,5.4,5.6,85,0.00,,,0.00,VWS V14.01,2013-04-28 11:09:00,
2013-04-28 07:10:00,47.6,43.4,29.94,East,80,4.0,5.1,85,0.00,,,0.00,VWS V14.01,2013-04-28 11:10:00,
2013-04-28 07:11:00,47.6,43.5,29.94,East,87,5.2,5.2,86,0.00,,,0.00,VWS V14.01,2013-04-28 11:11:00,
2013-04-28 07:12:00,47.5,43.5,29.93,ENE,68,4.7,5.4,86,0.00,,,0.00,VWS V14.01,2013-04-28 11:12:00,
2013-04-28 07:13:00,47.8,43.9,29.93,East,84,5.6,5.7,86,0.00,,,0.00,VWS V14.01,2013-04-28 11:13:00,
2013-04-28 07:14:00,47.6,43.6,29.93,ENE,60,5.2,6.1,86,0.00,,,0.00,VWS V14.01,2013-04-28 11:14:00,
2013-04-28 07:15:00,47.7,43.9,29.93,ENE,61,4.5,5.2,86,0.00,,,0.00,VWS V14.01,2013-04-28 11:15:00,
2013-04-28 07:16:00,47.7,43.9,29.93,ENE,60,6.4,6.4,87,0.00,,,0.00,VWS V14.01,2013-04-28 11:16:00,
2013-04-28 07:17:00,47.7,43.9,29.94,ENE,70,5.4,5.4,86,0.00,,,0.00,VWS V14.01,2013-04-28 11:17:00,
2013-04-28 07:18:00,47.7,44.1,29.93,East,79,4.4,5.4,87,0.00,,,0.00,VWS V14.01,2013-04-28 11:18:00,
2013-04-28 07:19:00,47.6,44.1,29.94,East,86,3.9,5.6,88,0.00,,,0.00,VWS V14.01,2013-04-28 11:19:00,
2013-04-28 07:20:00,47.5,44.1,29.94,ENE,57,3.5,5.6,88,0.00,,,0.00,VWS V14.01,2013-04-28 11:20:00,
2013-04-28 07:21:00,47.8,44.5,29.94,ENE,70,4.4,4.4,88,0.00,,,0.00,VWS V14.01,2013-04-28 11:21:00,
2013-04-28 07:22:00,47.5,44.3,29.94,ENE,65,4.7,4.9,89,0.00,,,0.00,VWS V14.01,2013-04-28 11:22:00,
2013-04-28 07:23:00,47.7,44.7,29.97,ENE,71,4.2,4.7,89,0.00,,,0.00,VWS V14.01,2013-04-28 11:23:00,
2013-04-28 07:24:00,47.9,44.9,29.94,East,89,4.2,5.4,89,0.00,,,0.00,VWS V14.01,2013-04-28 11:24:00,
2013-04-28 07:25:00,47.8,44.9,29.94,NE,53,3.7,4.7,90,0.00,,,0.00,VWS V14.01,2013-04-28 11:25:00,
2013-04-28 07:26:00,47.9,45.0,29.94,East,101,5.4,5.4,89,0.00,,,0.00,VWS V14.01,2013-04-28 11:26:00,
2013-04-28 07:27:00,47.8,44.8,29.93,ENE,59,3.9,5.4,90,0.00,,,0.00,VWS V14.01,2013-04-28 11:27:00,
2013-04-28 07:28:00,47.6,44.8,29.94,ENE,70,4.0,4.0,90,0.00,,,0.00,VWS V14.01,2013-04-28 11:28:00,
2013-04-28 07:29:00,47.8,45.0,29.93,ENE,70,4.7,4.9,90,0.00,,,0.00,VWS V14.01,2013-04-28 11:29:00,
2013-04-28 07:30:00,47.8,45.0,29.93,East,91,4.4,5.2,90,0.00,,,0.00,VWS V14.01,2013-04-28 11:30:00,
2013-04-28 07:31:00,47.9,45.0,29.94,ENE,74,6.8,6.8,90,0.00,,,0.00,VWS V14.01,2013-04-28 11:31:00,
2013-04-28 07:32:00,47.9,45.0,29.94,East,84,5.9,5.9,89,0.00,,,0.00,VWS V14.01,2013-04-28 11:32:00,
2013-04-28 07:33:00,47.8,44.9,29.94,East,92,4.0,5.9,90,0.00,,,0.00,VWS V14.01,2013-04-28 11:33:00,
2013-04-28 07:34:00,47.7,44.9,29.94,East,90,3.4,4.9,90,0.00,,,0.00,VWS V14.01,2013-04-28 11:34:00,
2013-04-28 07:35:00,47.8,45.0,29.94,ESE,110,4.4,4.4,90,0.00,,,0.00,VWS V14.01,2013-04-28 11:35:00,
2013-04-28 07:36:00,47.7,45.1,29.95,East,95,3.5,4.4,91,0.00,,,0.00,VWS V14.01,2013-04-28 11:36:00,
2013-04-28 07:37:00,47.7,45.3,29.95,ESE,102,4.0,4.0,91,0.00,,,0.00,VWS V14.01,2013-04-28 11:37:00,
2013-04-28 07:38:00,47.8,45.5,29.95,East,101,5.4,5.4,91,0.00,,,0.00,VWS V14.01,2013-04-28 11:38:00,
2013-04-28 07:39:00,47.8,45.4,29.95,East,97,4.9,5.4,92,0.00,,,0.00,VWS V14.01,2013-04-28 11:39:00,
2013-04-28 07:40:00,47.7,45.4,29.95,East,99,5.1,5.1,92,0.00,,,0.00,VWS V14.01,2013-04-28 11:40:00,
2013-04-28 07:41:00,47.5,45.3,29.95,East,100,4.5,5.6,92,0.04,,,0.04,VWS V14.01,2013-04-28 11:41:00,
2013-04-28 07:42:00,47.5,45.5,29.95,East,92,4.9,5.7,93,0.04,,,0.04,VWS V14.01,2013-04-28 11:42:00,
2013-04-28 07:43:00,47.5,45.6,29.94,East,95,4.9,5.4,93,0.04,,,0.04,VWS V14.01,2013-04-28 11:43:00,
2013-04-28 07:44:00,47.5,45.6,29.94,ESE,114,5.1,5.1,93,0.04,,,0.04,VWS V14.01,2013-04-28 11:44:00,
2013-04-28 07:45:00,47.3,45.6,29.95,ESE,108,3.7,5.1,94,0.04,,,0.04,VWS V14.01,2013-04-28 11:45:00,
2013-04-28 07:46:00,47.3,45.8,29.94,East,99,4.7,4.7,95,0.04,,,0.04,VWS V14.01,2013-04-28 11:46:00,
2013-04-28 07:47:00,47.3,45.9,29.98,East,83,4.0,4.7,95,0.04,,,0.04,VWS V14.01,2013-04-28 11:47:00,
2013-04-28 07:48:00,47.2,46.0,29.94,ESE,109,4.4,4.4,96,0.04,,,0.04,VWS V14.01,2013-04-28 11:48:00,
2013-04-28 07:49:00,47.1,46.0,29.94,East,87,4.0,4.4,96,0.04,,,0.04,VWS V14.01,2013-04-28 11:49:00,
2013-04-28 07:50:00,47.2,46.2,29.94,East,87,4.7,4.7,96,0.04,,,0.04,VWS V14.01,2013-04-28 11:50:00,
2013-04-28 07:51:00,47.2,46.3,29.94,East,86,3.7,4.7,97,0.04,,,0.04,VWS V14.01,2013-04-28 11:51:00,
2013-04-28 07:52:00,47.2,46.4,29.95,East,85,4.4,4.9,97,0.04,,,0.04,VWS V14.01,2013-04-28 11:52:00,
2013-04-28 07:53:00,47.1,46.4,29.94,East,97,4.2,4.4,97,0.04,,,0.04,VWS V14.01,2013-04-28 11:53:00,
2013-04-28 07:54:00,47.2,46.5,29.93,ENE,77,3.9,4.2,97,0.04,,,0.04,VWS V14.01,2013-04-28 11:54:00,
2013-04-28 07:55:00,47.4,46.8,29.98,East,83,6.4,6.4,98,0.04,,,0.04,VWS V14.01,2013-04-28 11:55:00,
2013-04-28 07:56:00,47.2,45.8,29.94,ENE,66,5.6,6.4,95,0.04,,,0.04,VWS V14.01,2013-04-28 11:56:00,
2013-04-28 07:57:00,47.3,46.6,29.94,East,101,4.9,5.6,98,0.08,,,0.08,VWS V14.01,2013-04-28 11:57:00,
2013-04-28 07:58:00,47.4,46.8,29.95,ENE,76,5.1,6.1,98,0.08,,,0.08,VWS V14.01,2013-04-28 11:58:00,
2013-04-28 07:59:00,47.4,46.8,29.94,East,92,5.4,5.4,98,0.08,,,0.08,VWS V14.01,2013-04-28 11:59:00,
2013-04-28 08:00:00,47.2,46.6,29.93,East,97,4.7,5.2,98,0.08,,,0.08,VWS V14.01,2013-04-28 12:00:00,
2013-04-28 08:01:00,47.4,46.8,29.93,ENE,59,6.1,6.1,98,0.08,,,0.08,VWS V14.01,2013-04-28 12:01:00,
2013-04-28 08:02:00,47.4,46.8,29.93,ENE,72,5.7,6.1,98,0.08,,,0.08,VWS V14.01,2013-04-28 12:02:00,
2013-04-28 08:03:00,47.5,46.9,29.93,East,93,5.2,6.1,98,0.08,,,0.08,VWS V14.01,2013-04-28 12:03:00,
2013-04-28 08:04:00,47.6,47.0,29.94,East,84,6.6,6.6,98,0.08,,,0.08,VWS V14.01,2013-04-28 12:04:00,
2013-04-28 08:05:00,47.5,47.0,29.97,East,85,4.9,6.6,98,0.08,,,0.08,VWS V14.01,2013-04-28 12:05:00,
2013-04-28 08:06:00,47.5,47.0,29.94,East,85,4.7,4.9,98,0.08,,,0.08,VWS V14.01,2013-04-28 12:06:00,
2013-04-28 08:07:00,47.6,47.1,29.94,ENE,75,4.4,5.4,98,0.08,,,0.08,VWS V14.01,2013-04-28 12:07:00,
2013-04-28 08:08:00,47.8,47.3,29.94,East,81,5.9,5.9,98,0.08,,,0.08,VWS V14.01,2013-04-28 12:08:00,
2013-04-28 08:09:00,47.7,47.3,29.94,East,94,6.8,7.6,98,0.08,,,0.08,VWS V14.01,2013-04-28 12:09:00,
2013-04-28 08:10:00,47.8,46.1,29.94,East,92,7.6,8.7,94,0.08,,,0.08,VWS V14.01,2013-04-28 12:10:00,
2013-04-28 08:11:00,47.7,47.2,29.94,East,98,6.9,7.6,98,0.08,,,0.08,VWS V14.01,2013-04-28 12:11:00,
2013-04-28 08:12:00,47.8,47.3,29.93,ENE,66,5.7,7.3,98,0.08,,,0.08,VWS V14.01,2013-04-28 12:12:00,
2013-04-28 08:13:00,47.8,47.3,29.92,ENE,74,6.6,6.6,98,0.08,,,0.08,VWS V14.01,2013-04-28 12:13:00,
2013-04-28 08:14:00,47.9,47.4,29.93,East,92,6.3,6.6,98,0.08,,,0.08,VWS V14.01,2013-04-28 12:14:00,
2013-04-28 08:15:00,47.9,47.5,29.92,East,94,7.1,8.1,98,0.12,,,0.12,VWS V14.01,2013-04-28 12:15:00,
2013-04-28 08:16:00,47.9,47.5,29.93,East,88,6.1,6.6,98,0.12,,,0.12,VWS V14.01,2013-04-28 12:16:00,
2013-04-28 08:17:00,47.9,47.5,29.93,ENE,61,5.7,5.7,98,0.12,,,0.12,VWS V14.01,2013-04-28 12:17:00,
2013-04-28 08:18:00,47.8,47.4,29.93,East,93,5.9,8.3,98,0.12,,,0.12,VWS V14.01,2013-04-28 12:18:00,
2013-04-28 08:19:00,47.9,47.5,29.94,ESE,105,6.8,6.8,98,0.12,,,0.12,VWS V14.01,2013-04-28 12:19:00,
2013-04-28 08:20:00,47.8,47.3,29.94,ENE,74,6.1,8.5,98,0.12,,,0.12,VWS V14.01,2013-04-28 12:20:00,
2013-04-28 08:21:00,47.8,47.3,29.93,East,86,7.1,7.1,98,0.12,,,0.12,VWS V14.01,2013-04-28 12:21:00,
2013-04-28 08:22:00,47.7,47.4,29.94,ENE,75,5.9,7.1,99,0.12,,,0.12,VWS V14.01,2013-04-28 12:22:00,
2013-04-28 08:23:00,47.8,47.4,29.94,ENE,72,6.3,6.3,99,0.12,,,0.12,VWS V14.01,2013-04-28 12:23:00,
2013-04-28 08:24:00,48.0,47.7,29.93,ENE,69,5.7,6.3,99,0.12,,,0.12,VWS V14.01,2013-04-28 12:24:00,
2013-04-28 08:25:00,48.0,47.8,29.94,ENE,73,6.4,6.4,99,0.12,,,0.12,VWS V14.01,2013-04-28 12:25:00,
2013-04-28 08:26:00,47.9,47.6,29.94,East,85,5.2,6.4,99,0.12,,,0.12,VWS V14.01,2013-04-28 12:26:00,
2013-04-28 08:27:00,47.9,47.7,29.92,ENE,69,6.9,6.9,99,0.12,,,0.12,VWS V14.01,2013-04-28 12:27:00,
2013-04-28 08:28:00,47.9,47.7,29.92,East,80,6.1,6.9,99,0.12,,,0.12,VWS V14.01,2013-04-28 12:28:00,
2013-04-28 08:29:00,48.0,47.8,29.93,ENE,76,6.8,6.8,99,0.12,,,0.12,VWS V14.01,2013-04-28 12:29:00,
2013-04-28 08:30:00,47.9,47.7,29.93,ESE,105,5.6,6.8,99,0.12,,,0.12,VWS V14.01,2013-04-28 12:30:00,
2013-04-28 08:31:00,48.0,47.9,29.93,East,94,6.4,6.8,99,0.12,,,0.12,VWS V14.01,2013-04-28 12:31:00,
2013-04-28 08:32:00,48.1,48.0,29.93,East,83,5.4,5.4,100,0.12,,,0.12,VWS V14.01,2013-04-28 12:32:00,
2013-04-28 08:33:00,48.0,48.0,29.93,ENE,62,4.7,5.4,100,0.12,,,0.00,VWS V14.01,2013-04-28 12:33:00,
2013-04-28 08:34:00,48.4,47.1,29.93,ENE,75,8.5,8.5,95,0.12,,,0.12,VWS V14.01,2013-04-28 12:34:00,
2013-04-28 08:35:00,48.2,48.2,29.93,ENE,76,7.1,8.5,100,0.12,,,0.12,VWS V14.01,2013-04-28 12:35:00,
2013-04-28 08:36:00,48.3,48.2,29.93,East,83,7.6,8.1,100,0.12,,,0.12,VWS V14.01,2013-04-28 12:36:00,
2013-04-28 08:37:00,48.2,48.2,29.93,East,86,5.1,7.8,100,0.12,,,0.12,VWS V14.01,2013-04-28 12:37:00,
2013-04-28 08:38:00,48.2,48.1,29.93,East,79,3.4,5.1,100,0.12,,,0.12,VWS V14.01,2013-04-28 12:38:00,
2013-04-28 08:39:00,48.3,48.3,29.93,East,84,5.9,6.6,100,0.12,,,0.12,VWS V14.01,2013-04-28 12:39:00,
2013-04-28 08:40:00,48.4,48.4,29.93,ENE,73,6.3,6.3,100,0.12,,,0.12,VWS V14.01,2013-04-28 12:40:00,
2013-04-28 08:41:00,48.4,48.4,29.92,ENE,72,5.4,6.3,100,0.16,,,0.16,VWS V14.01,2013-04-28 12:41:00,
2013-04-28 08:42:00,48.5,48.5,29.92,East,95,6.9,6.9,100,0.12,,,0.16,VWS V14.01,2013-04-28 12:42:00,
2013-04-28 08:43:00,48.4,48.4,29.91,East,85,4.5,6.9,100,0.12,,,0.16,VWS V14.01,2013-04-28 12:43:00,
2013-04-28 08:44:00,48.6,48.6,29.92,ENE,58,7.1,7.1,100,0.12,,,0.16,VWS V14.01,2013-04-28 12:44:00,
2013-04-28 08:45:00,48.5,48.5,29.92,East,89,6.9,7.1,100,0.12,,,0.16,VWS V14.01,2013-04-28 12:45:00,
2013-04-28 08:46:00,48.5,48.5,29.93,ENE,78,5.6,6.9,100,0.12,,,0.16,VWS V14.01,2013-04-28 12:46:00,
2013-04-28 08:47:00,48.5,48.5,29.93,East,92,7.3,8.5,100,0.12,,,0.16,VWS V14.01,2013-04-28 12:47:00,
2013-04-28 08:48:00,48.4,48.4,29.93,ENE,63,5.7,5.7,100,0.12,,,0.16,VWS V14.01,2013-04-28 12:48:00,
2013-04-28 08:49:00,48.4,48.4,29.93,East,89,5.1,5.7,100,0.12,,,0.16,VWS V14.01,2013-04-28 12:49:00,
2013-04-28 08:50:00,48.5,48.5,29.93,East,91,6.9,6.9,100,0.12,,,0.16,VWS V14.01,2013-04-28 12:50:00,
2013-04-28 08:51:00,48.5,48.5,29.93,East,92,5.7,6.9,100,0.12,,,0.16,VWS V14.01,2013-04-28 12:51:00,
2013-04-28 08:52:00,48.5,48.5,29.93,ESE,103,7.5,7.5,100,0.12,,,0.16,VWS V14.01,2013-04-28 12:52:00,
2013-04-28 08:53:00,48.5,48.5,29.92,East,80,7.8,7.8,100,0.16,,,0.20,VWS V14.01,2013-04-28 12:53:00,
2013-04-28 08:54:00,48.5,48.5,29.92,East,80,7.8,7.8,100,0.16,,,0.20,VWS V14.01,2013-04-28 12:54:00,
2013-04-28 08:55:00,48.4,48.4,29.93,East,90,4.4,5.9,100,0.16,,,0.20,VWS V14.01,2013-04-28 12:55:00,
2013-04-28 08:56:00,48.5,48.5,29.93,East,99,5.1,6.3,100,0.16,,,0.20,VWS V14.01,2013-04-28 12:56:00,
2013-04-28 08:57:00,48.4,48.4,29.92,East,100,6.1,8.1,100,0.16,,,0.20,VWS V14.01,2013-04-28 12:57:00,
2013-04-28 08:58:00,48.4,48.4,29.91,East,95,5.4,6.6,100,0.12,,,0.20,VWS V14.01,2013-04-28 12:58:00,
2013-04-28 08:59:00,48.4,48.4,29.92,East,84,6.4,6.4,100,0.12,,,0.20,VWS V14.01,2013-04-28 12:59:00,
2013-04-28 09:00:00,48.5,48.5,29.92,East,97,6.9,6.9,100,0.12,,,0.20,VWS V14.01,2013-04-28 13:00:00,
2013-04-28 09:01:00,48.4,48.4,29.92,ESE,102,8.1,8.1,100,0.12,,,0.20,VWS V14.01,2013-04-28 13:01:00,
2013-04-28 09:02:00,48.4,48.4,29.93,East,90,6.3,6.3,100,0.12,,,0.20,VWS V14.01,2013-04-28 13:02:00,
2013-04-28 09:03:00,48.4,48.4,29.93,East,87,8.0,8.0,100,0.12,,,0.20,VWS V14.01,2013-04-28 13:03:00,
2013-04-28 09:04:00,48.3,48.3,29.92,ESE,109,6.8,8.0,100,0.12,,,0.20,VWS V14.01,2013-04-28 13:04:00,
2013-04-28 09:05:00,48.4,47.0,29.92,East,101,7.6,7.6,95,0.16,,,0.24,VWS V14.01,2013-04-28 13:05:00,
2013-04-28 09:06:00,48.4,48.4,29.92,East,92,6.9,7.6,100,0.16,,,0.24,VWS V14.01,2013-04-28 13:06:00,
2013-04-28 09:07:00,48.5,48.5,29.92,East,99,6.8,6.9,100,0.16,,,0.24,VWS V14.01,2013-04-28 13:07:00,
2013-04-28 09:08:00,48.5,48.5,29.93,East,100,6.1,7.3,100,0.16,,,0.24,VWS V14.01,2013-04-28 13:08:00,
2013-04-28 09:09:00,48.4,48.4,29.92,East,84,5.9,6.6,100,0.16,,,0.24,VWS V14.01,2013-04-28 13:09:00,
2013-04-28 09:10:00,48.4,48.4,29.91,East,97,5.9,6.6,100,0.16,,,0.24,VWS V14.01,2013-04-28 13:10:00,
2013-04-28 09:11:00,48.5,48.5,29.91,ESE,105,8.0,8.0,100,0.16,,,0.24,VWS V14.01,2013-04-28 13:11:00,
2013-04-28 09:12:00,48.5,48.5,29.91,ESE,105,8.0,8.0,100,0.16,,,0.24,VWS V14.01,2013-04-28 13:12:00,
2013-04-28 09:13:00,48.5,48.5,29.91,East,98,4.9,6.4,100,0.16,,,0.24,VWS V14.01,2013-04-28 13:13:00,
2013-04-28 09:14:00,48.4,48.4,29.92,SE,125,4.9,6.3,100,0.16,,,0.24,VWS V14.01,2013-04-28 13:14:00,
2013-04-28 09:15:00,48.5,48.5,29.92,ESE,117,5.2,5.2,100,0.16,,,0.24,VWS V14.01,2013-04-28 13:15:00,
2013-04-28 09:16:00,48.5,48.5,29.92,ESE,111,5.2,5.2,100,0.12,,,0.24,VWS V14.01,2013-04-28 13:16:00,
2013-04-28 09:17:00,48.4,48.4,29.92,East,93,5.9,5.9,100,0.12,,,0.24,VWS V14.01,2013-04-28 13:17:00,
2013-04-28 09:18:00,48.5,48.5,29.91,East,86,7.8,7.8,100,0.12,,,0.24,VWS V14.01,2013-04-28 13:18:00,
2013-04-28 09:19:00,48.5,48.5,29.92,ESE,105,5.6,7.6,100,0.12,,,0.24,VWS V14.01,2013-04-28 13:19:00,
2013-04-28 09:20:00,48.6,47.3,29.92,ESE,112,7.3,7.3,95,0.12,,,0.24,VWS V14.01,2013-04-28 13:20:00,
2013-04-28 09:21:00,48.5,48.6,29.92,East,99,5.9,7.3,100,0.12,,,0.24,VWS V14.01,2013-04-28 13:21:00,
2013-04-28 09:22:00,48.6,48.6,29.92,East,91,4.7,5.9,100,0.12,,,0.24,VWS V14.01,2013-04-28 13:22:00,
2013-04-28 09:23:00,48.5,48.5,29.92,ESE,114,7.1,7.1,100,0.12,,,0.24,VWS V14.01,2013-04-28 13:23:00,
2013-04-28 09:24:00,48.6,48.6,29.92,ESE,105,6.1,7.1,100,0.12,,,0.24,VWS V14.01,2013-04-28 13:24:00,
2013-04-28 09:25:00,48.5,48.5,29.92,ESE,102,6.1,6.3,100,0.12,,,0.24,VWS V14.01,2013-04-28 13:25:00,
2013-04-28 09:26:00,48.6,48.6,29.92,East,90,5.6,6.1,100,0.12,,,0.24,VWS V14.01,2013-04-28 13:26:00,
2013-04-28 09:27:00,48.6,48.6,29.91,East,88,5.1,5.6,100,0.12,,,0.24,VWS V14.01,2013-04-28 13:27:00,
2013-04-28 09:28:00,48.7,48.7,29.92,East,101,6.4,7.3,100,0.12,,,0.24,VWS V14.01,2013-04-28 13:28:00,
2013-04-28 09:29:00,48.6,48.6,29.91,ESE,111,6.1,6.1,100,0.12,,,0.00,VWS V14.01,2013-04-28 13:29:00,
2013-04-28 09:30:00,48.7,48.7,29.91,ESE,104,5.1,6.1,100,0.12,,,0.24,VWS V14.01,2013-04-28 13:30:00,
2013-04-28 09:31:00,48.8,48.8,29.91,East,100,5.6,7.3,100,0.12,,,0.24,VWS V14.01,2013-04-28 13:31:00,
2013-04-28 09:32:00,48.9,48.9,29.91,East,86,6.4,7.1,100,0.12,,,0.24,VWS V14.01,2013-04-28 13:32:00,
2013-04-28 09:33:00,48.9,48.9,29.91,East,95,5.9,6.4,100,0.12,,,0.24,VWS V14.01,2013-04-28 13:33:00,
2013-04-28 09:34:00,49.2,49.2,29.92,ESE,112,12.3,12.3,100,0.12,,,0.24,VWS V14.01,2013-04-28 13:34:00,
2013-04-28 09:35:00,49.2,49.2,29.92,ESE,112,12.3,12.3,100,0.12,,,0.24,VWS V14.01,2013-04-28 13:35:00,
2013-04-28 09:36:00,49.2,49.2,29.92,SE,130,8.5,9.0,100,0.12,,,0.24,VWS V14.01,2013-04-28 13:36:00,
2013-04-28 09:37:00,49.0,49.0,29.92,East,100,9.0,10.9,100,0.12,,,0.24,VWS V14.01,2013-04-28 13:37:00,
2013-04-28 09:38:00,49.0,48.0,29.91,ESE,113,7.1,9.0,96,0.12,,,0.24,VWS V14.01,2013-04-28 13:38:00,
2013-04-28 09:39:00,49.1,49.1,29.91,East,79,6.4,7.1,100,0.12,,,0.24,VWS V14.01,2013-04-28 13:39:00,
2013-04-28 09:40:00,49.1,49.1,29.92,East,80,5.6,6.4,100,0.12,,,0.24,VWS V14.01,2013-04-28 13:40:00,
2013-04-28 09:41:00,49.2,48.8,29.91,ESE,116,6.1,7.6,99,0.12,,,0.24,VWS V14.01,2013-04-28 13:41:00,
2013-04-28 09:42:00,49.2,49.2,29.92,East,79,5.7,6.1,100,0.12,,,0.28,VWS V14.01,2013-04-28 13:42:00,
2013-04-28 09:43:00,49.0,49.0,29.91,East,97,5.4,6.9,100,0.12,,,0.28,VWS V14.01,2013-04-28 13:43:00,
2013-04-28 09:44:00,49.2,49.2,29.92,East,95,6.6,6.6,100,0.12,,,0.28,VWS V14.01,2013-04-28 13:44:00,
2013-04-28 09:45:00,49.2,49.2,29.91,East,97,6.3,6.6,100,0.12,,,0.28,VWS V14.01,2013-04-28 13:45:00,
2013-04-28 09:46:00,49.1,49.1,29.91,ESE,107,7.1,7.1,100,0.12,,,0.28,VWS V14.01,2013-04-28 13:46:00,
2013-04-28 09:47:00,49.4,49.4,29.91,ESE,115,5.2,6.3,100,0.12,,,0.28,VWS V14.01,2013-04-28 13:47:00,
2013-04-28 09:48:00,49.5,49.5,29.90,East,95,7.6,7.6,100,0.12,,,0.28,VWS V14.01,2013-04-28 13:48:00,
2013-04-28 09:49:00,49.4,49.4,29.91,ESE,108,8.0,8.7,100,0.12,,,0.28,VWS V14.01,2013-04-28 13:49:00,
2013-04-28 09:50:00,49.4,49.4,29.91,East,100,6.9,8.0,100,0.12,,,0.28,VWS V14.01,2013-04-28 13:50:00,
2013-04-28 09:51:00,49.5,49.5,29.91,ESE,109,6.4,6.6,100,0.12,,,0.28,VWS V14.01,2013-04-28 13:51:00,
2013-04-28 09:52:00,49.5,49.5,29.91,East,101,5.2,6.4,100,0.12,,,0.28,VWS V14.01,2013-04-28 13:52:00,
2013-04-28 09:53:00,49.7,49.7,29.91,ESE,119,8.1,9.3,100,0.12,,,0.28,VWS V14.01,2013-04-28 13:53:00,
2013-04-28 09:54:00,49.7,49.7,29.91,ESE,106,6.9,8.1,100,0.12,,,0.28,VWS V14.01,2013-04-28 13:54:00,
2013-04-28 09:55:00,49.7,49.7,29.91,East,95,7.6,8.0,100,0.08,,,0.28,VWS V14.01,2013-04-28 13:55:00,
2013-04-28 09:56:00,49.7,49.7,29.90,East,98,8.5,8.5,100,0.08,,,0.28,VWS V14.01,2013-04-28 13:56:00,
2013-04-28 09:57:00,49.6,49.6,29.91,ESE,108,6.6,8.5,100,0.08,,,0.28,VWS V14.01,2013-04-28 13:57:00,
2013-04-28 09:58:00,49.8,49.8,29.91,East,89,5.2,6.4,100,0.08,,,0.28,VWS V14.01,2013-04-28 13:58:00,
2013-04-28 09:59:00,49.7,49.7,29.90,East,98,6.1,6.1,100,0.08,,,0.28,VWS V14.01,2013-04-28 13:59:00,
2013-04-28 10:00:00,49.8,49.8,29.91,ESE,105,6.9,6.9,100,0.08,,,0.28,VWS V14.01,2013-04-28 14:00:00,
2013-04-28 10:01:00,50.2,50.2,29.96,ESE,120,5.6,6.9,100,0.08,,,0.28,VWS V14.01,2013-04-28 14:01:00,
2013-04-28 10:02:00,50.1,50.1,29.96,East,87,6.3,6.3,100,0.08,,,0.28,VWS V14.01,2013-04-28 14:02:00,
2013-04-28 10:03:00,50.0,50.0,29.91,ESE,122,6.3,6.3,100,0.08,,,0.28,VWS V14.01,2013-04-28 14:03:00,
2013-04-28 10:04:00,50.0,50.0,29.91,ESE,107,6.9,8.1,100,0.08,,,0.28,VWS V14.01,2013-04-28 14:04:00,
2013-04-28 10:05:00,50.0,50.0,29.92,ESE,112,9.9,9.9,100,0.08,,,0.28,VWS V14.01,2013-04-28 14:05:00,
2013-04-28 10:06:00,50.0,50.0,29.91,ESE,108,7.3,9.9,100,0.04,,,0.28,VWS V14.01,2013-04-28 14:06:00,
2013-04-28 10:07:00,50.2,50.2,29.90,East,90,5.6,7.3,100,0.04,,,0.28,VWS V14.01,2013-04-28 14:07:00,
2013-04-28 10:08:00,50.3,50.3,29.89,East,101,8.0,8.8,100,0.04,,,0.28,VWS V14.01,2013-04-28 14:08:00,
2013-04-28 10:09:00,50.2,50.2,29.89,ESE,109,7.8,8.5,100,0.04,,,0.28,VWS V14.01,2013-04-28 14:09:00,
2013-04-28 10:10:00,50.4,50.4,29.89,East,99,5.4,7.8,100,0.04,,,0.28,VWS V14.01,2013-04-28 14:10:00,
2013-04-28 10:11:00,50.2,50.2,29.89,ESE,103,6.1,6.1,100,0.04,,,0.28,VWS V14.01,2013-04-28 14:11:00,
2013-04-28 10:12:00,50.1,50.1,29.90,ESE,119,9.2,9.2,100,0.04,,,0.28,VWS V14.01,2013-04-28 14:12:00,
2013-04-28 10:13:00,50.2,50.2,29.90,East,96,7.3,9.2,100,0.04,,,0.28,VWS V14.01,2013-04-28 14:13:00,
2013-04-28 10:14:00,50.2,50.2,29.90,ESE,107,7.3,7.3,100,0.04,,,0.28,VWS V14.01,2013-04-28 14:14:00,
2013-04-28 10:15:00,50.4,50.4,29.90,East,101,5.9,7.3,100,0.04,,,0.28,VWS V14.01,2013-04-28 14:15:00,
2013-04-28 10:16:00,50.2,50.2,29.91,East,93,6.9,6.9,100,0.04,,,0.28,VWS V14.01,2013-04-28 14:16:00,
2013-04-28 10:17:00,50.2,50.2,29.90,ESE,111,5.6,7.1,100,0.04,,,0.28,VWS V14.01,2013-04-28 14:17:00,
2013-04-28 10:18:00,50.3,50.2,29.90,ESE,110,6.3,6.3,100,0.04,,,0.28,VWS V14.01,2013-04-28 14:18:00,
2013-04-28 10:19:00,50.3,50.2,29.90,ESE,110,6.3,6.3,100,0.04,,,0.28,VWS V14.01,2013-04-28 14:19:00,
2013-04-28 10:20:00,50.3,50.3,29.90,ESE,113,7.1,8.1,100,0.04,,,0.28,VWS V14.01,2013-04-28 14:20:00,
2013-04-28 10:21:00,50.4,50.4,29.90,East,97,5.1,7.1,100,0.04,,,0.28,VWS V14.01,2013-04-28 14:21:00,
2013-04-28 10:22:00,50.2,50.2,29.90,ESE,102,8.1,8.1,100,0.04,,,0.28,VWS V14.01,2013-04-28 14:22:00,
2013-04-28 10:23:00,50.5,50.5,29.93,ESE,105,6.9,8.1,100,0.04,,,0.28,VWS V14.01,2013-04-28 14:23:00,
2013-04-28 10:24:00,50.5,50.5,29.91,East,97,6.8,6.9,100,0.04,,,0.28,VWS V14.01,2013-04-28 14:24:00,
2013-04-28 10:25:00,50.4,50.4,29.90,ESE,109,6.8,6.8,100,0.04,,,0.28,VWS V14.01,2013-04-28 14:25:00,
2013-04-28 10:26:00,50.5,50.5,29.90,East,82,5.4,7.6,100,0.04,,,0.28,VWS V14.01,2013-04-28 14:26:00,
2013-04-28 10:27:00,50.4,50.4,29.89,East,84,5.1,5.4,100,0.04,,,0.28,VWS V14.01,2013-04-28 14:27:00,
2013-04-28 10:28:00,50.5,50.5,29.89,East,84,5.7,5.7,100,0.04,,,0.28,VWS V14.01,2013-04-28 14:28:00,
2013-04-28 10:29:00,50.7,50.7,29.90,ESE,102,4.9,6.3,100,0.04,,,0.28,VWS V14.01,2013-04-28 14:29:00,
2013-04-28 10:30:00,50.6,50.6,29.89,ESE,122,6.1,6.1,100,0.04,,,0.28,VWS V14.01,2013-04-28 14:30:00,
2013-04-28 10:31:00,50.6,50.6,29.90,SE,133,5.6,6.1,100,0.04,,,0.28,VWS V14.01,2013-04-28 14:31:00,
2013-04-28 10:32:00,50.5,50.5,29.90,ESE,105,5.9,5.9,100,0.04,,,0.28,VWS V14.01,2013-04-28 14:32:00,
2013-04-28 10:33:00,50.7,50.7,29.90,ESE,118,4.4,4.4,100,0.04,,,0.28,VWS V14.01,2013-04-28 14:33:00,
2013-04-28 10:34:00,50.7,50.7,29.90,ESE,118,4.4,4.4,100,0.04,,,0.28,VWS V14.01,2013-04-28 14:34:00,
2013-04-28 10:35:00,50.7,50.7,29.89,ESE,104,5.1,6.1,100,0.04,,,0.28,VWS V14.01,2013-04-28 14:35:00,
2013-04-28 10:36:00,50.5,50.5,29.90,East,93,7.6,7.6,100,0.04,,,0.28,VWS V14.01,2013-04-28 14:36:00,
2013-04-28 10:37:00,50.6,50.6,29.89,East,100,6.9,7.6,100,0.04,,,0.28,VWS V14.01,2013-04-28 14:37:00,
2013-04-28 10:38:00,50.5,50.5,29.89,East,89,7.5,7.5,100,0.04,,,0.28,VWS V14.01,2013-04-28 14:38:00,
2013-04-28 10:39:00,50.8,50.8,29.90,ESE,110,4.2,6.4,100,0.04,,,0.28,VWS V14.01,2013-04-28 14:39:00,
2013-04-28 10:40:00,50.7,50.7,29.90,ESE,104,4.7,4.7,100,0.04,,,0.28,VWS V14.01,2013-04-28 14:40:00,
2013-04-28 10:41:00,50.7,50.7,29.89,East,89,6.3,8.1,100,0.04,,,0.28,VWS V14.01,2013-04-28 14:41:00,
2013-04-28 10:42:00,50.7,50.7,29.89,ESE,104,6.1,8.1,100,0.04,,,0.28,VWS V14.01,2013-04-28 14:42:00,
2013-04-28 10:43:00,50.8,50.8,29.89,East,96,5.6,5.6,100,0.00,,,0.28,VWS V14.01,2013-04-28 14:43:00,
2013-04-28 10:44:00,50.7,50.7,29.88,SE,126,5.2,5.6,100,0.00,,,0.28,VWS V14.01,2013-04-28 14:44:00,
2013-04-28 10:45:00,50.8,50.8,29.88,ESE,123,4.9,5.2,100,0.00,,,0.28,VWS V14.01,2013-04-28 14:45:00,
2013-04-28 10:46:00,50.9,50.9,29.89,East,83,4.9,4.9,100,0.00,,,0.28,VWS V14.01,2013-04-28 14:46:00,
2013-04-28 10:47:00,50.8,50.8,29.89,East,101,6.4,6.4,100,0.00,,,0.28,VWS V14.01,2013-04-28 14:47:00,
2013-04-28 10:48:00,50.9,50.9,29.88,ESE,121,6.4,6.4,100,0.00,,,0.28,VWS V14.01,2013-04-28 14:48:00,
2013-04-28 10:49:00,50.8,50.8,29.88,ESE,110,6.9,7.3,100,0.04,,,0.31,VWS V14.01,2013-04-28 14:49:00,
2013-04-28 10:50:00,51.0,51.0,29.88,East,91,5.7,6.9,100,0.04,,,0.31,VWS V14.01,2013-04-28 14:50:00,
2013-04-28 10:51:00,51.0,51.0,29.89,East,98,5.2,5.7,100,0.04,,,0.31,VWS V14.01,2013-04-28 14:51:00,
2013-04-28 10:52:00,51.0,51.0,29.88,ESE,104,4.9,5.2,100,0.04,,,0.31,VWS V14.01,2013-04-28 14:52:00,
2013-04-28 10:53:00,50.9,50.9,29.90,East,100,4.4,4.9,100,0.04,,,0.31,VWS V14.01,2013-04-28 14:53:00,
2013-04-28 10:54:00,50.8,50.8,29.89,East,92,5.4,5.4,100,0.04,,,0.31,VWS V14.01,2013-04-28 14:54:00,
2013-04-28 10:55:00,50.9,50.9,29.89,ESE,105,5.4,6.3,100,0.04,,,0.31,VWS V14.01,2013-04-28 14:55:00,
2013-04-28 10:56:00,51.0,51.0,29.89,East,101,5.1,6.3,100,0.04,,,0.31,VWS V14.01,2013-04-28 14:56:00,
2013-04-28 10:57:00,51.1,51.1,29.88,East,100,6.1,8.7,100,0.04,,,0.31,VWS V14.01,2013-04-28 14:57:00,
2013-04-28 10:58:00,50.9,50.9,29.88,East,94,5.2,6.3,100,0.04,,,0.31,VWS V14.01,2013-04-28 14:58:00,
2013-04-28 10:59:00,51.2,51.2,29.88,East,101,4.2,5.2,100,0.04,,,0.31,VWS V14.01,2013-04-28 14:59:00,
2013-04-28 11:00:00,51.2,51.2,29.88,ESE,105,4.5,4.5,100,0.04,,,0.31,VWS V14.01,2013-04-28 15:00:00,
2013-04-28 11:01:00,51.2,51.2,29.88,ESE,105,4.5,4.5,100,0.04,,,0.31,VWS V14.01,2013-04-28 15:01:00,
2013-04-28 11:02:00,51.0,51.0,29.88,East,88,5.1,5.1,100,0.04,,,0.31,VWS V14.01,2013-04-28 15:02:00,
2013-04-28 11:03:00,51.0,51.0,29.88,ESE,105,5.9,7.1,100,0.00,,,0.31,VWS V14.01,2013-04-28 15:03:00,
2013-04-28 11:05:00,51.1,51.1,29.89,East,92,6.1,7.1,100,0.00,,,0.31,VWS V14.01,2013-04-28 15:05:00,
2013-04-28 11:06:00,51.1,51.1,29.89,ESE,105,5.6,7.1,100,0.00,,,0.31,VWS V14.01,2013-04-28 15:06:00,
2013-04-28 11:08:00,51.2,51.2,29.89,SE,126,6.1,7.1,100,0.00,,,0.31,VWS V14.01,2013-04-28 15:08:00,
2013-04-28 11:11:00,51.3,51.3,29.88,East,97,6.1,7.1,100,0.00,,,0.31,VWS V14.01,2013-04-28 15:11:00,
2013-04-28 11:13:00,51.5,51.5,29.88,East,93,5.1,7.1,100,0.00,,,0.31,VWS V14.01,2013-04-28 15:13:00,
2013-04-28 11:15:00,51.5,51.5,29.87,East,101,4.7,7.1,100,0.00,,,0.31,VWS V14.01,2013-04-28 15:15:00,
2013-04-28 11:16:00,51.5,51.5,29.87,East,98,5.4,7.1,100,0.00,,,0.31,VWS V14.01,2013-04-28 15:16:00,
2013-04-28 11:17:00,51.6,51.6,29.87,ESE,103,5.2,7.1,100,0.00,,,0.31,VWS V14.01,2013-04-28 15:17:00,
2013-04-28 11:20:00,51.7,51.7,29.88,East,94,5.1,7.1,100,0.00,,,0.31,VWS V14.01,2013-04-28 15:20:00,
2013-04-28 11:22:00,52.2,52.2,29.88,ESE,102,4.9,7.1,100,0.00,,,0.31,VWS V14.01,2013-04-28 15:22:00,
2013-04-28 11:23:00,52.2,52.2,29.88,East,101,5.7,7.1,100,0.00,,,0.31,VWS V14.01,2013-04-28 15:23:00,
2013-04-28 11:24:00,51.8,51.8,29.88,ESE,117,5.1,7.1,100,0.00,,,0.31,VWS V14.01,2013-04-28 15:24:00,
2013-04-28 11:25:00,52.3,52.3,29.88,ESE,102,5.4,7.1,100,0.00,,,0.31,VWS V14.01,2013-04-28 15:25:00,
2013-04-28 11:28:00,51.8,51.8,29.88,East,94,6.4,8.3,100,0.00,,,0.31,VWS V14.01,2013-04-28 15:28:00,
2013-04-28 11:29:00,52.2,52.2,29.88,ESE,103,7.1,8.3,100,0.00,,,0.31,VWS V14.01,2013-04-28 15:29:00,
2013-04-28 11:30:00,51.9,51.9,29.87,ESE,112,6.4,8.3,100,0.00,,,0.31,VWS V14.01,2013-04-28 15:30:00,
2013-04-28 11:33:00,51.8,51.8,29.86,ESE,115,6.6,8.8,100,0.00,,,0.31,VWS V14.01,2013-04-28 15:33:00,
2013-04-28 11:35:00,52.1,52.1,29.86,ESE,119,6.6,8.8,100,0.00,,,0.31,VWS V14.01,2013-04-28 15:35:00,
2013-04-28 11:36:00,52.0,52.0,29.90,ESE,112,8.5,9.5,100,0.00,,,0.31,VWS V14.01,2013-04-28 15:36:00,
2013-04-28 11:39:00,52.2,52.2,29.88,ESE,108,6.8,9.5,100,0.00,,,0.31,VWS V14.01,2013-04-28 15:39:00,
2013-04-28 11:40:00,52.2,52.2,29.88,ESE,120,6.1,9.5,100,0.00,,,0.31,VWS V14.01,2013-04-28 15:40:00,
2013-04-28 11:41:00,52.0,52.0,29.88,ESE,104,8.5,9.5,100,0.00,,,0.31,VWS V14.01,2013-04-28 15:41:00,
2013-04-28 11:42:00,51.9,51.9,29.88,ESE,115,8.8,9.5,100,0.00,,,0.31,VWS V14.01,2013-04-28 15:42:00,
2013-04-28 11:45:00,52.5,52.5,29.87,ESE,103,7.6,9.5,100,0.00,,,0.31,VWS V14.01,2013-04-28 15:45:00,
2013-04-28 11:47:00,52.3,52.3,29.88,SE,136,8.7,9.5,100,0.00,,,0.31,VWS V14.01,2013-04-28 15:47:00,
2013-04-28 11:50:00,52.3,52.3,29.87,SE,139,8.7,9.5,100,0.00,,,0.31,VWS V14.01,2013-04-28 15:50:00,
2013-04-28 11:51:00,52.3,52.3,29.87,ESE,113,5.6,9.5,100,0.00,,,0.31,VWS V14.01,2013-04-28 15:51:00,
2013-04-28 11:52:00,52.8,52.8,29.87,East,93,4.7,9.5,100,0.00,,,0.31,VWS V14.01,2013-04-28 15:52:00,
2013-04-28 11:53:00,52.3,52.4,29.87,ESE,120,7.6,9.5,100,0.00,,,0.31,VWS V14.01,2013-04-28 15:53:00,
2013-04-28 11:55:00,52.7,52.7,29.87,SE,133,6.9,9.5,100,0.00,,,0.31,VWS V14.01,2013-04-28 15:55:00,
2013-04-28 11:57:00,52.7,52.7,29.87,ESE,123,7.3,9.5,100,0.00,,,0.31,VWS V14.01,2013-04-28 15:57:00,
2013-04-28 11:59:00,52.9,52.9,29.90,ESE,116,5.2,9.5,100,0.00,,,0.31,VWS V14.01,2013-04-28 15:59:00,
2013-04-28 12:01:00,52.8,52.8,29.87,ESE,123,6.4,9.5,100,0.00,,,0.31,VWS V14.01,2013-04-28 16:01:00,
2013-04-28 12:02:00,52.9,52.9,29.88,ESE,116,7.1,9.5,100,0.00,,,0.31,VWS V14.01,2013-04-28 16:02:00,
2013-04-28 12:03:00,52.8,52.8,29.87,ESE,117,7.6,7.6,100,0.00,,,0.31,VWS V14.01,2013-04-28 16:03:00,
2013-04-28 12:04:00,52.8,52.8,29.87,ESE,113,7.6,8.3,100,0.00,,,0.31,VWS V14.01,2013-04-28 16:04:00,
2013-04-28 12:05:00,53.1,53.1,29.86,ESE,113,5.6,6.6,100,0.00,,,0.31,VWS V14.01,2013-04-28 16:05:00,
2013-04-28 12:06:00,53.1,53.1,29.87,SE,128,5.7,6.4,100,0.00,,,0.31,VWS V14.01,2013-04-28 16:06:00,
2013-04-28 12:07:00,53.0,53.0,29.87,SE,127,7.5,7.5,100,0.00,,,0.31,VWS V14.01,2013-04-28 16:07:00,
2013-04-28 12:08:00,52.9,52.9,29.87,SE,124,6.6,7.5,100,0.00,,,0.31,VWS V14.01,2013-04-28 16:08:00,
2013-04-28 12:09:00,53.2,53.2,29.87,SE,131,6.1,6.6,100,0.00,,,0.31,VWS V14.01,2013-04-28 16:09:00,
2013-04-28 12:10:00,53.1,53.2,29.87,SE,129,6.4,6.4,100,0.00,,,0.31,VWS V14.01,2013-04-28 16:10:00,
2013-04-28 12:11:00,53.3,53.3,29.87,SE,137,5.9,5.9,100,0.00,,,0.31,VWS V14.01,2013-04-28 16:11:00,
2013-04-28 12:12:00,53.0,53.0,29.87,SSE,156,5.1,8.3,100,0.00,,,0.31,VWS V14.01,2013-04-28 16:12:00,
2013-04-28 12:13:00,53.1,53.1,29.87,SSE,155,5.7,5.7,100,0.00,,,0.31,VWS V14.01,2013-04-28 16:13:00,
2013-04-28 12:14:00,53.4,53.4,29.87,SE,140,4.0,4.9,100,0.00,,,0.31,VWS V14.01,2013-04-28 16:14:00,
2013-04-28 12:15:00,53.4,53.4,29.86,SE,127,5.7,5.7,100,0.00,,,0.31,VWS V14.01,2013-04-28 16:15:00,
2013-04-28 12:16:00,53.2,53.2,29.87,ESE,105,5.4,5.7,100,0.00,,,0.31,VWS V14.01,2013-04-28 16:16:00,
2013-04-28 12:17:00,53.3,53.3,29.88,ESE,118,5.7,5.7,100,0.00,,,0.31,VWS V14.01,2013-04-28 16:17:00,
2013-04-28 12:18:00,53.5,53.5,29.91,East,100,5.4,5.7,100,0.00,,,0.31,VWS V14.01,2013-04-28 16:18:00,
2013-04-28 12:19:00,53.4,53.5,29.88,ESE,120,4.7,5.4,100,0.00,,,0.31,VWS V14.01,2013-04-28 16:19:00,
2013-04-28 12:20:00,53.4,53.4,29.86,SE,127,4.5,5.2,100,0.00,,,0.31,VWS V14.01,2013-04-28 16:20:00,
2013-04-28 12:21:00,53.3,53.3,29.86,ESE,105,4.9,6.6,100,0.00,,,0.31,VWS V14.01,2013-04-28 16:21:00,
2013-04-28 12:22:00,53.2,53.2,29.86,SE,129,5.7,6.6,100,0.00,,,0.31,VWS V14.01,2013-04-28 16:22:00,
2013-04-28 12:23:00,53.3,53.3,29.87,SE,126,6.8,6.8,100,0.00,,,0.31,VWS V14.01,2013-04-28 16:23:00,
2013-04-28 12:24:00,53.1,53.1,29.87,ESE,108,5.9,5.9,100,0.00,,,0.31,VWS V14.01,2013-04-28 16:24:00,
2013-04-28 12:25:00,53.4,53.4,29.86,ESE,119,4.2,5.1,100,0.00,,,0.31,VWS V14.01,2013-04-28 16:25:00,
2013-04-28 12:26:00,53.4,53.4,29.86,ESE,117,3.4,4.2,100,0.00,,,0.31,VWS V14.01,2013-04-28 16:26:00,
2013-04-28 12:27:00,53.3,53.3,29.86,ESE,115,5.4,5.7,100,0.00,,,0.31,VWS V14.01,2013-04-28 16:27:00,
2013-04-28 12:28:00,53.3,53.3,29.86,ESE,117,4.9,5.4,100,0.00,,,0.31,VWS V14.01,2013-04-28 16:28:00,
2013-04-28 12:29:00,53.3,53.3,29.86,SE,124,5.4,5.4,100,0.00,,,0.31,VWS V14.01,2013-04-28 16:29:00,
2013-04-28 12:30:00,53.5,53.5,29.85,ESE,120,4.4,5.4,100,0.00,,,0.31,VWS V14.01,2013-04-28 16:30:00,
2013-04-28 12:31:00,53.4,53.5,29.86,ESE,111,3.7,4.4,100,0.00,,,0.31,VWS V14.01,2013-04-28 16:31:00,
2013-04-28 12:32:00,53.4,53.4,29.86,SE,134,6.8,6.8,100,0.00,,,0.31,VWS V14.01,2013-04-28 16:32:00,
2013-04-28 12:33:00,53.4,53.4,29.86,ESE,120,6.8,6.8,100,0.00,,,0.31,VWS V14.01,2013-04-28 16:33:00,
2013-04-28 12:34:00,53.5,53.5,29.86,ESE,119,4.9,5.9,100,0.00,,,0.31,VWS V14.01,2013-04-28 16:34:00,
2013-04-28 12:35:00,53.5,53.5,29.86,ESE,117,4.5,4.9,100,0.00,,,0.31,VWS V14.01,2013-04-28 16:35:00,
2013-04-28 12:36:00,53.4,53.4,29.86,East,90,4.4,5.2,100,0.00,,,0.31,VWS V14.01,2013-04-28 16:36:00,
2013-04-28 12:37:00,53.5,53.5,29.86,ESE,104,4.4,5.2,100,0.00,,,0.31,VWS V14.01,2013-04-28 16:37:00,
2013-04-28 12:38:00,53.5,53.5,29.86,ESE,117,4.0,4.4,100,0.00,,,0.31,VWS V14.01,2013-04-28 16:38:00,
2013-04-28 12:39:00,53.5,53.5,29.86,East,101,4.9,4.9,100,0.00,,,0.31,VWS V14.01,2013-04-28 16:39:00,
2013-04-28 12:40:00,53.6,53.6,29.86,ESE,103,4.5,4.9,100,0.00,,,0.31,VWS V14.01,2013-04-28 16:40:00,
2013-04-28 12:41:00,53.6,53.6,29.87,ESE,117,3.7,4.9,100,0.00,,,0.31,VWS V14.01,2013-04-28 16:41:00,
2013-04-28 12:42:00,53.8,53.8,29.86,ESE,116,3.0,4.9,100,0.00,,,0.31,VWS V14.01,2013-04-28 16:42:00,
2013-04-28 12:43:00,53.8,53.8,29.85,SE,134,3.5,3.5,100,0.00,,,0.31,VWS V14.01,2013-04-28 16:43:00,
2013-04-28 12:44:00,54.0,54.0,29.85,ESE,104,2.5,3.5,100,0.00,,,0.31,VWS V14.01,2013-04-28 16:44:00,
2013-04-28 12:45:00,53.7,53.7,29.85,East,97,3.7,4.5,100,0.00,,,0.31,VWS V14.01,2013-04-28 16:45:00,
2013-04-28 12:46:00,53.7,53.7,29.85,ESE,105,2.8,3.2,100,0.00,,,0.31,VWS V14.01,2013-04-28 16:46:00,
2013-04-28 12:47:00,53.7,53.7,29.85,ESE,105,2.8,3.2,100,0.00,,,0.31,VWS V14.01,2013-04-28 16:47:00,
2013-04-28 12:48:00,53.7,53.7,29.86,ESE,109,2.5,4.2,100,0.00,,,0.31,VWS V14.01,2013-04-28 16:48:00,
2013-04-28 12:49:00,53.9,53.9,29.85,ESE,105,3.9,3.9,100,0.00,,,0.31,VWS V14.01,2013-04-28 16:49:00,
2013-04-28 12:50:00,54.0,54.0,29.85,ESE,104,2.5,3.9,100,0.00,,,0.31,VWS V14.01,2013-04-28 16:50:00,
2013-04-28 12:51:00,53.8,53.8,29.85,ESE,116,3.2,3.2,100,0.00,,,0.31,VWS V14.01,2013-04-28 16:51:00,
2013-04-28 12:52:00,54.1,54.1,29.85,SSE,149,4.5,4.5,100,0.00,,,0.31,VWS V14.01,2013-04-28 16:52:00,
2013-04-28 12:53:00,54.0,53.6,29.85,ESE,114,3.0,3.0,99,0.00,,,0.31,VWS V14.01,2013-04-28 16:53:00,
2013-04-28 12:54:00,54.1,54.1,29.86,ESE,116,3.7,3.7,100,0.00,,,0.31,VWS V14.01,2013-04-28 16:54:00,
2013-04-28 12:55:00,54.2,54.2,29.86,ESE,121,2.8,3.4,100,0.00,,,0.31,VWS V14.01,2013-04-28 16:55:00,
2013-04-28 12:56:00,54.2,54.2,29.86,ESE,117,1.8,3.0,100,0.00,,,0.31,VWS V14.01,2013-04-28 16:56:00,
2013-04-28 12:57:00,54.3,54.3,29.86,ESE,119,1.0,3.0,100,0.00,,,0.31,VWS V14.01,2013-04-28 16:57:00,
2013-04-28 12:58:00,54.1,54.1,29.85,ESE,119,2.2,2.2,100,0.00,,,0.31,VWS V14.01,2013-04-28 16:58:00,
2013-04-28 12:59:00,54.3,54.3,29.86,ESE,118,0.0,2.2,100,0.00,,,0.31,VWS V14.01,2013-04-28 16:59:00,
2013-04-28 13:00:00,54.2,54.2,29.86,SE,126,1.0,1.8,100,0.00,,,0.31,VWS V14.01,2013-04-28 17:00:00,
2013-04-28 13:01:00,54.2,54.2,29.89,ESE,106,2.0,2.0,100,0.00,,,0.31,VWS V14.01,2013-04-28 17:01:00,
2013-04-28 13:02:00,54.2,53.3,29.86,ESE,121,4.2,4.2,97,0.00,,,0.31,VWS V14.01,2013-04-28 17:02:00,
2013-04-28 13:03:00,54.4,54.4,29.86,SE,126,3.5,3.5,100,0.00,,,0.31,VWS V14.01,2013-04-28 17:03:00,
2013-04-28 13:04:00,54.3,54.3,29.86,SE,141,3.5,3.5,100,0.00,,,0.31,VWS V14.01,2013-04-28 17:04:00,
2013-04-28 13:05:00,54.3,53.7,29.85,ESE,121,2.7,3.5,98,0.00,,,0.31,VWS V14.01,2013-04-28 17:05:00,
2013-04-28 13:06:00,54.4,54.4,29.85,ESE,123,2.8,2.8,100,0.00,,,0.31,VWS V14.01,2013-04-28 17:06:00,
2013-04-28 13:07:00,54.5,54.5,29.85,SE,126,2.7,3.9,100,0.00,,,0.31,VWS V14.01,2013-04-28 17:07:00,
2013-04-28 13:08:00,54.4,54.5,29.85,SE,137,2.3,3.9,100,0.00,,,0.31,VWS V14.01,2013-04-28 17:08:00,
2013-04-28 13:09:00,54.4,54.4,29.85,SE,140,3.5,5.2,100,0.00,,,0.31,VWS V14.01,2013-04-28 17:09:00,
2013-04-28 13:10:00,54.5,54.5,29.85,SE,136,3.2,3.9,100,0.00,,,0.31,VWS V14.01,2013-04-28 17:10:00,
2013-04-28 13:11:00,54.6,54.6,29.85,SSE,152,3.0,3.9,100,0.00,,,0.31,VWS V14.01,2013-04-28 17:11:00,
2013-04-28 13:12:00,54.5,54.5,29.84,SE,145,3.0,3.0,100,0.00,,,0.31,VWS V14.01,2013-04-28 17:12:00,
2013-04-28 13:13:00,54.3,54.3,29.84,ESE,114,5.6,5.6,100,0.00,,,0.31,VWS V14.01,2013-04-28 17:13:00,
2013-04-28 13:14:00,54.5,54.5,29.85,SE,144,3.4,5.6,100,0.00,,,0.31,VWS V14.01,2013-04-28 17:14:00,
2013-04-28 13:15:00,54.7,54.7,29.85,SE,131,3.9,3.9,100,0.00,,,0.31,VWS V14.01,2013-04-28 17:15:00,
2013-04-28 13:16:00,54.6,54.6,29.86,SE,136,3.4,3.9,100,0.00,,,0.31,VWS V14.01,2013-04-28 17:16:00,
2013-04-28 13:17:00,54.6,54.6,29.84,SE,130,3.5,3.5,100,0.00,,,0.31,VWS V14.01,2013-04-28 17:17:00,
2013-04-28 13:18:00,54.8,54.8,29.86,SE,138,3.4,3.5,100,0.00,,,0.31,VWS V14.01,2013-04-28 17:18:00,
2013-04-28 13:19:00,54.5,53.1,29.85,SE,124,4.7,4.7,95,0.00,,,0.31,VWS V14.01,2013-04-28 17:19:00,
2013-04-28 13:20:00,54.7,54.7,29.85,SE,129,4.0,4.7,100,0.00,,,0.31,VWS V14.01,2013-04-28 17:20:00,
2013-04-28 13:21:00,54.6,53.8,29.85,SE,133,3.9,3.9,97,0.00,,,0.31,VWS V14.01,2013-04-28 17:21:00,
2013-04-28 13:22:00,54.6,53.8,29.85,SE,133,3.9,3.9,97,0.00,,,0.31,VWS V14.01,2013-04-28 17:22:00,
2013-04-28 13:23:00,54.9,54.9,29.85,SE,128,3.2,3.2,100,0.00,,,0.31,VWS V14.01,2013-04-28 17:23:00,
2013-04-28 13:24:00,54.9,54.9,29.84,ESE,119,2.8,3.2,100,0.00,,,0.31,VWS V14.01,2013-04-28 17:24:00,
2013-04-28 13:25:00,54.9,54.9,29.84,ESE,119,2.8,3.2,100,0.00,,,0.31,VWS V14.01,2013-04-28 17:25:00,
2013-04-28 13:26:00,55.0,55.0,29.84,SE,132,3.2,4.0,100,0.00,,,0.31,VWS V14.01,2013-04-28 17:26:00,
2013-04-28 13:27:00,54.7,54.8,29.84,SSE,148,3.7,3.7,100,0.00,,,0.31,VWS V14.01,2013-04-28 17:27:00,
2013-04-28 13:28:00,55.0,55.0,29.85,ESE,115,2.3,3.7,100,0.00,,,0.31,VWS V14.01,2013-04-28 17:28:00,
2013-04-28 13:29:00,54.8,54.9,29.85,SE,133,2.3,3.7,100,0.00,,,0.31,VWS V14.01,2013-04-28 17:29:00,
2013-04-28 13:30:00,55.0,55.0,29.85,SE,133,1.3,1.3,100,0.00,,,0.31,VWS V14.01,2013-04-28 17:30:00,
2013-04-28 13:31:00,54.8,54.8,29.85,SE,128,3.0,3.0,100,0.00,,,0.31,VWS V14.01,2013-04-28 17:31:00,
2013-04-28 13:32:00,54.9,54.9,29.85,SE,126,2.8,3.0,100,0.00,,,0.31,VWS V14.01,2013-04-28 17:32:00,
2013-04-28 13:33:00,55.0,55.0,29.85,SE,138,3.0,3.0,100,0.00,,,0.31,VWS V14.01,2013-04-28 17:33:00,
2013-04-28 13:34:00,54.9,54.9,29.85,SE,137,5.1,5.1,100,0.00,,,0.31,VWS V14.01,2013-04-28 17:34:00,
2013-04-28 13:35:00,54.9,54.9,29.85,SE,137,5.1,5.1,100,0.00,,,0.31,VWS V14.01,2013-04-28 17:35:00,
2013-04-28 13:36:00,54.9,54.9,29.84,SE,143,3.9,4.7,100,0.00,,,0.31,VWS V14.01,2013-04-28 17:36:00,
2013-04-28 13:37:00,54.9,54.9,29.84,SSE,155,3.0,3.9,100,0.00,,,0.31,VWS V14.01,2013-04-28 17:37:00,
2013-04-28 13:38:00,55.0,55.0,29.85,SE,133,2.5,3.0,100,0.00,,,0.31,VWS V14.01,2013-04-28 17:38:00,
2013-04-28 13:39:00,55.0,55.0,29.84,ESE,119,2.0,2.5,100,0.00,,,0.31,VWS V14.01,2013-04-28 17:39:00,
2013-04-28 13:40:00,55.0,55.0,29.84,SE,131,3.0,3.0,100,0.00,,,0.31,VWS V14.01,2013-04-28 17:40:00,
2013-04-28 13:41:00,55.1,55.1,29.85,SSE,157,2.5,3.0,100,0.00,,,0.31,VWS V14.01,2013-04-28 17:41:00,
2013-04-28 13:42:00,55.2,55.2,29.85,SSE,150,3.0,4.5,100,0.00,,,0.31,VWS V14.01,2013-04-28 17:42:00,
2013-04-28 13:43:00,55.2,55.2,29.85,SSE,166,2.8,3.0,100,0.00,,,0.31,VWS V14.01,2013-04-28 17:43:00,
2013-04-28 13:44:00,55.2,55.2,29.85,SSE,162,3.4,3.5,100,0.00,,,0.31,VWS V14.01,2013-04-28 17:44:00,
2013-04-28 13:45:00,55.3,55.3,29.84,SSE,160,2.8,3.5,100,0.00,,,0.31,VWS V14.01,2013-04-28 17:45:00,
2013-04-28 13:46:00,55.1,55.1,29.84,SSE,149,3.0,3.0,100,0.00,,,0.31,VWS V14.01,2013-04-28 17:46:00,
2013-04-28 13:47:00,55.2,55.2,29.85,SSE,151,3.4,3.4,100,0.00,,,0.31,VWS V14.01,2013-04-28 17:47:00,
2013-04-28 13:48:00,55.2,55.2,29.84,SSE,155,3.5,3.5,100,0.00,,,0.31,VWS V14.01,2013-04-28 17:48:00,
2013-04-28 13:49:00,55.1,55.1,29.84,SE,137,3.5,3.5,100,0.00,,,0.31,VWS V14.01,2013-04-28 17:49:00,
2013-04-28 13:50:00,55.1,55.1,29.84,SE,145,3.7,3.7,100,0.00,,,0.31,VWS V14.01,2013-04-28 17:50:00,
2013-04-28 13:51:00,55.2,55.2,29.84,SSE,158,3.2,3.2,100,0.00,,,0.31,VWS V14.01,2013-04-28 17:51:00,
2013-04-28 13:52:00,55.2,55.2,29.84,SE,137,2.5,3.2,100,0.00,,,0.31,VWS V14.01,2013-04-28 17:52:00,
2013-04-28 13:53:00,55.2,55.2,29.87,SE,146,2.2,2.5,100,0.00,,,0.31,VWS V14.01,2013-04-28 17:53:00,
2013-04-28 13:54:00,55.3,55.3,29.85,SE,144,1.6,2.2,100,0.00,,,0.31,VWS V14.01,2013-04-28 17:54:00,
2013-04-28 13:55:00,55.3,55.3,29.85,ESE,122,2.5,2.5,100,0.00,,,0.31,VWS V14.01,2013-04-28 17:55:00,
2013-04-28 13:56:00,55.4,55.4,29.87,SSE,160,3.0,3.0,100,0.00,,,0.31,VWS V14.01,2013-04-28 17:56:00,
2013-04-28 13:57:00,55.3,55.3,29.88,SSE,153,2.5,3.0,100,0.00,,,0.31,VWS V14.01,2013-04-28 17:57:00,
2013-04-28 13:58:00,55.3,55.3,29.85,SSE,162,3.2,3.5,100,0.00,,,0.31,VWS V14.01,2013-04-28 17:58:00,
2013-04-28 13:59:00,55.3,55.3,29.84,SSE,163,4.0,4.0,100,0.00,,,0.31,VWS V14.01,2013-04-28 17:59:00,
2013-04-28 14:00:00,55.4,55.4,29.84,SSE,158,3.9,4.0,100,0.00,,,0.31,VWS V14.01,2013-04-28 18:00:00,
2013-04-28 14:01:00,55.3,55.3,29.85,SSE,161,2.8,3.9,100,0.00,,,0.31,VWS V14.01,2013-04-28 18:01:00,
2013-04-28 14:02:00,55.3,55.3,29.84,SE,133,2.7,2.8,100,0.00,,,0.31,VWS V14.01,2013-04-28 18:02:00,
2013-04-28 14:03:00,55.5,55.5,29.84,SE,142,2.0,2.7,100,0.00,,,0.31,VWS V14.01,2013-04-28 18:03:00,
2013-04-28 14:04:00,55.5,55.5,29.84,SE,142,2.7,2.7,100,0.00,,,0.31,VWS V14.01,2013-04-28 18:04:00,
2013-04-28 14:05:00,55.4,55.4,29.84,SSE,161,2.2,2.7,100,0.00,,,0.31,VWS V14.01,2013-04-28 18:05:00,
2013-04-28 14:06:00,55.6,55.6,29.84,SSE,165,2.3,3.2,100,0.00,,,0.31,VWS V14.01,2013-04-28 18:06:00,
2013-04-28 14:07:00,55.5,55.5,29.85,SE,139,2.3,3.2,100,0.00,,,0.31,VWS V14.01,2013-04-28 18:07:00,
2013-04-28 14:08:00,55.6,55.6,29.84,SSE,155,3.5,3.5,100,0.00,,,0.31,VWS V14.01,2013-04-28 18:08:00,
2013-04-28 14:09:00,55.7,55.7,29.84,SE,140,3.0,3.5,100,0.00,,,0.31,VWS V14.01,2013-04-28 18:09:00,
2013-04-28 14:10:00,55.6,55.6,29.84,SE,135,1.8,3.0,100,0.00,,,0.31,VWS V14.01,2013-04-28 18:10:00,
2013-04-28 14:11:00,55.6,55.6,29.84,SE,135,2.2,2.2,100,0.00,,,0.31,VWS V14.01,2013-04-28 18:11:00,
2013-04-28 14:12:00,55.4,55.4,29.83,ESE,109,0.0,2.2,100,0.04,,,0.35,VWS V14.01,2013-04-28 18:12:00,
2013-04-28 14:13:00,55.5,55.5,29.84,East,89,0.0,0.0,100,0.04,,,0.35,VWS V14.01,2013-04-28 18:13:00,
2013-04-28 14:14:00,55.3,55.3,29.83,ESE,109,1.5,1.5,100,0.04,,,0.35,VWS V14.01,2013-04-28 18:14:00,
2013-04-28 14:15:00,55.4,55.4,29.83,ESE,108,2.2,2.2,100,0.04,,,0.35,VWS V14.01,2013-04-28 18:15:00,
2013-04-28 14:16:00,55.5,55.5,29.84,ESE,112,0.0,1.0,100,0.04,,,0.35,VWS V14.01,2013-04-28 18:16:00,
2013-04-28 14:17:00,55.6,55.6,29.83,ESE,104,3.0,3.0,100,0.04,,,0.35,VWS V14.01,2013-04-28 18:17:00,
2013-04-28 14:18:00,55.5,55.5,29.84,ESE,121,3.0,3.0,100,0.04,,,0.35,VWS V14.01,2013-04-28 18:18:00,
2013-04-28 14:19:00,55.7,55.7,29.83,ESE,115,2.2,2.8,100,0.04,,,0.35,VWS V14.01,2013-04-28 18:19:00,
2013-04-28 14:20:00,55.5,55.5,29.83,East,96,0.0,2.2,100,0.04,,,0.35,VWS V14.01,2013-04-28 18:20:00,
2013-04-28 14:21:00,55.7,55.7,29.83,ESE,104,2.2,2.2,100,0.04,,,0.35,VWS V14.01,2013-04-28 18:21:00,
2013-04-28 14:22:00,55.4,55.5,29.83,East,89,1.8,1.8,100,0.04,,,0.35,VWS V14.01,2013-04-28 18:22:00,
2013-04-28 14:23:00,55.2,55.2,29.84,East,88,2.7,2.7,100,0.04,,,0.35,VWS V14.01,2013-04-28 18:23:00,
2013-04-28 14:24:00,55.7,55.7,29.83,ESE,113,0.0,2.7,100,0.04,,,0.35,VWS V14.01,2013-04-28 18:24:00,
2013-04-28 14:25:00,55.7,55.7,29.83,East,97,2.3,2.3,100,0.04,,,0.35,VWS V14.01,2013-04-28 18:25:00,
2013-04-28 14:26:00,55.7,55.7,29.83,East,87,2.0,2.3,100,0.04,,,0.35,VWS V14.01,2013-04-28 18:26:00,
2013-04-28 14:27:00,55.6,55.6,29.83,East,94,2.2,2.5,100,0.04,,,0.35,VWS V14.01,2013-04-28 18:27:00,
2013-04-28 14:28:00,55.4,55.5,29.84,East,94,2.3,2.5,100,0.04,,,0.35,VWS V14.01,2013-04-28 18:28:00,
2013-04-28 14:29:00,55.6,55.6,29.83,East,97,2.3,3.0,100,0.04,,,0.35,VWS V14.01,2013-04-28 18:29:00,
2013-04-28 14:30:00,55.5,55.5,29.83,East,97,3.4,3.4,100,0.04,,,0.35,VWS V14.01,2013-04-28 18:30:00,
2013-04-28 14:31:00,55.6,55.7,29.83,East,93,1.5,3.0,100,0.04,,,0.35,VWS V14.01,2013-04-28 18:31:00,
2013-04-28 14:32:00,55.8,55.8,29.83,East,95,2.5,3.0,100,0.04,,,0.35,VWS V14.01,2013-04-28 18:32:00,
2013-04-28 14:33:00,55.6,55.6,29.86,ESE,119,1.6,2.5,100,0.04,,,0.35,VWS V14.01,2013-04-28 18:33:00,
2013-04-28 14:34:00,56.1,54.9,29.83,ESE,117,1.1,1.6,96,0.04,,,0.35,VWS V14.01,2013-04-28 18:34:00,
2013-04-28 14:35:00,55.6,55.6,29.83,ESE,121,2.3,2.3,100,0.04,,,0.35,VWS V14.01,2013-04-28 18:35:00,
2013-04-28 14:36:00,55.6,55.6,29.83,ESE,107,3.4,3.4,100,0.04,,,0.35,VWS V14.01,2013-04-28 18:36:00,
2013-04-28 14:37:00,55.6,55.6,29.83,East,101,3.7,3.7,100,0.04,,,0.35,VWS V14.01,2013-04-28 18:37:00,
2013-04-28 14:38:00,55.5,55.5,29.82,ESE,103,3.5,3.7,100,0.04,,,0.35,VWS V14.01,2013-04-28 18:38:00,
2013-04-28 14:39:00,56.0,56.0,29.83,East,101,2.3,3.5,100,0.04,,,0.35,VWS V14.01,2013-04-28 18:39:00,
2013-04-28 14:40:00,56.0,56.0,29.83,ESE,117,4.0,4.0,100,0.04,,,0.35,VWS V14.01,2013-04-28 18:40:00,
2013-04-28 14:41:00,55.8,55.8,29.82,SE,134,3.5,4.0,100,0.04,,,0.35,VWS V14.01,2013-04-28 18:41:00,
2013-04-28 14:42:00,56.2,56.2,29.82,SE,127,2.0,3.5,100,0.04,,,0.35,VWS V14.01,2013-04-28 18:42:00,
2013-04-28 14:43:00,56.3,56.3,29.83,SE,131,3.5,3.5,100,0.04,,,0.35,VWS V14.01,2013-04-28 18:43:00,
2013-04-28 14:44:00,55.8,55.8,29.82,SE,129,3.7,3.7,100,0.04,,,0.35,VWS V14.01,2013-04-28 18:44:00,
2013-04-28 14:45:00,55.4,55.1,29.83,SE,125,3.5,3.7,99,0.04,,,0.35,VWS V14.01,2013-04-28 18:45:00,
2013-04-28 14:46:00,55.6,55.6,29.83,ESE,107,2.8,3.5,100,0.04,,,0.35,VWS V14.01,2013-04-28 18:46:00,
2013-04-28 14:47:00,55.6,55.6,29.82,ESE,117,3.0,3.0,100,0.04,,,0.35,VWS V14.01,2013-04-28 18:47:00,
2013-04-28 14:48:00,55.7,55.7,29.83,SE,144,3.2,3.9,100,0.04,,,0.35,VWS V14.01,2013-04-28 18:48:00,
2013-04-28 14:49:00,55.8,55.8,29.83,SE,140,1.6,3.2,100,0.04,,,0.35,VWS V14.01,2013-04-28 18:49:00,
2013-04-28 14:50:00,55.9,55.9,29.82,East,97,0.0,2.8,100,0.04,,,0.35,VWS V14.01,2013-04-28 18:50:00,
2013-04-28 14:51:00,55.5,55.5,29.81,ESE,107,1.0,1.0,100,0.04,,,0.35,VWS V14.01,2013-04-28 18:51:00,
2013-04-28 14:52:00,55.7,55.7,29.82,ESE,121,3.5,3.5,100,0.04,,,0.35,VWS V14.01,2013-04-28 18:52:00,
2013-04-28 14:53:00,55.5,55.6,29.83,ESE,113,1.5,3.5,100,0.04,,,0.35,VWS V14.01,2013-04-28 18:53:00,
2013-04-28 14:54:00,55.4,55.4,29.83,East,101,0.0,1.5,100,0.04,,,0.35,VWS V14.01,2013-04-28 18:54:00,
2013-04-28 14:55:00,55.6,55.6,29.83,East,101,1.8,1.8,100,0.04,,,0.35,VWS V14.01,2013-04-28 18:55:00,
2013-04-28 14:56:00,55.8,55.8,29.82,ESE,109,2.2,2.2,100,0.04,,,0.35,VWS V14.01,2013-04-28 18:56:00,
2013-04-28 14:57:00,55.6,55.6,29.83,ESE,114,2.8,2.8,100,0.04,,,0.35,VWS V14.01,2013-04-28 18:57:00,
2013-04-28 14:58:00,55.7,55.7,29.83,ESE,104,0.0,2.8,100,0.04,,,0.35,VWS V14.01,2013-04-28 18:58:00,
2013-04-28 14:59:00,55.9,55.9,29.84,East,79,2.0,2.0,100,0.04,,,0.35,VWS V14.01,2013-04-28 18:59:00,
2013-04-28 15:00:00,55.5,55.5,29.82,ESE,121,3.7,3.7,100,0.04,,,0.35,VWS V14.01,2013-04-28 19:00:00,
2013-04-28 15:01:00,55.8,55.8,29.83,SE,129,3.0,3.7,100,0.04,,,0.35,VWS V14.01,2013-04-28 19:01:00,
2013-04-28 15:02:00,55.6,55.6,29.83,SE,126,3.2,3.2,100,0.04,,,0.35,VWS V14.01,2013-04-28 19:02:00,
2013-04-28 15:03:00,55.6,55.6,29.83,ESE,113,1.5,3.2,100,0.04,,,0.35,VWS V14.01,2013-04-28 19:03:00,
2013-04-28 15:04:00,55.9,55.9,29.83,ESE,117,0.0,2.2,100,0.04,,,0.35,VWS V14.01,2013-04-28 19:04:00,
2013-04-28 15:05:00,55.9,55.9,29.83,ESE,117,0.0,2.2,100,0.04,,,0.35,VWS V14.01,2013-04-28 19:05:00,
2013-04-28 15:06:00,55.5,55.5,29.82,SE,128,2.3,2.3,100,0.04,,,0.35,VWS V14.01,2013-04-28 19:06:00,
2013-04-28 15:07:00,55.5,55.5,29.82,SE,128,2.3,2.3,100,0.04,,,0.35,VWS V14.01,2013-04-28 19:07:00,
2013-04-28 15:08:00,55.8,55.8,29.83,ESE,114,1.3,2.8,100,0.04,,,0.35,VWS V14.01,2013-04-28 19:08:00,
2013-04-28 15:09:00,55.8,55.8,29.82,ESE,122,0.0,1.3,100,0.04,,,0.35,VWS V14.01,2013-04-28 19:09:00,
2013-04-28 15:10:00,55.7,55.7,29.83,SE,126,1.8,1.8,100,0.04,,,0.35,VWS V14.01,2013-04-28 19:10:00,
2013-04-28 15:12:00,55.5,54.0,29.82,ESE,112,2.3,2.3,95,0.00,,,0.35,VWS V14.01,2013-04-28 19:12:00,
2013-04-28 15:13:00,55.7,55.7,29.83,ESE,105,1.0,2.0,100,0.00,,,0.35,VWS V14.01,2013-04-28 19:13:00,
2013-04-28 15:14:00,55.7,55.7,29.83,ESE,105,1.0,2.0,100,0.00,,,0.35,VWS V14.01,2013-04-28 19:14:00,
2013-04-28 15:15:00,55.6,53.7,29.83,East,98,2.2,2.2,93,0.00,,,0.35,VWS V14.01,2013-04-28 19:15:00,
2013-04-28 15:16:00,55.7,55.7,29.83,East,99,2.0,2.2,100,0.00,,,0.35,VWS V14.01,2013-04-28 19:16:00,
2013-04-28 15:17:00,55.7,55.7,29.83,East,99,1.5,1.5,100,0.00,,,0.35,VWS V14.01,2013-04-28 19:17:00,
2013-04-28 15:18:00,55.5,55.5,29.83,East,97,2.5,2.5,100,0.00,,,0.35,VWS V14.01,2013-04-28 19:18:00,
2013-04-28 15:19:00,55.8,55.8,29.83,East,99,2.0,2.0,100,0.00,,,0.35,VWS V14.01,2013-04-28 19:19:00,
2013-04-28 15:20:00,55.5,55.5,29.83,SE,124,2.5,2.8,100,0.00,,,0.35,VWS V14.01,2013-04-28 19:20:00,
2013-04-28 15:21:00,55.7,55.7,29.83,ESE,122,0.0,2.5,100,0.00,,,0.35,VWS V14.01,2013-04-28 19:21:00,
2013-04-28 15:22:00,55.9,55.9,29.83,ESE,122,1.1,1.1,100,0.00,,,0.35,VWS V14.01,2013-04-28 19:22:00,
2013-04-28 15:23:00,55.6,55.6,29.83,ESE,120,0.0,1.1,100,0.00,,,0.35,VWS V14.01,2013-04-28 19:23:00,
2013-04-28 15:24:00,55.6,55.6,29.83,ESE,120,2.0,2.0,100,0.00,,,0.35,VWS V14.01,2013-04-28 19:24:00,
2013-04-28 15:25:00,55.7,55.7,29.83,ESE,111,1.5,1.5,100,0.00,,,0.35,VWS V14.01,2013-04-28 19:25:00,
2013-04-28 15:26:00,55.9,55.9,29.83,ESE,110,0.0,0.0,100,0.00,,,0.35,VWS V14.01,2013-04-28 19:26:00,
2013-04-28 15:27:00,55.7,55.7,29.82,East,100,0.0,2.0,100,0.00,,,0.35,VWS V14.01,2013-04-28 19:27:00,
2013-04-28 15:28:00,55.6,55.6,29.82,East,100,2.5,2.5,100,0.00,,,0.35,VWS V14.01,2013-04-28 19:28:00,
2013-04-28 15:29:00,55.9,55.9,29.82,ESE,105,1.5,2.5,100,0.00,,,0.35,VWS V14.01,2013-04-28 19:29:00,
2013-04-28 15:30:00,55.6,55.6,29.82,East,97,2.3,2.7,100,0.00,,,0.35,VWS V14.01,2013-04-28 19:30:00,
2013-04-28 15:31:00,55.6,55.6,29.82,East,97,2.0,2.5,100,0.00,,,0.35,VWS V14.01,2013-04-28 19:31:00,
2013-04-28 15:32:00,55.7,55.8,29.83,ESE,102,2.2,3.0,100,0.00,,,0.35,VWS V14.01,2013-04-28 19:32:00,
2013-04-28 15:33:00,56.0,56.0,29.82,ESE,106,1.5,1.5,100,0.00,,,0.35,VWS V14.01,2013-04-28 19:33:00,
2013-04-28 15:34:00,56.1,56.1,29.82,ESE,112,3.0,3.0,100,0.00,,,0.35,VWS V14.01,2013-04-28 19:34:00,
2013-04-28 15:35:00,56.2,56.2,29.82,ESE,108,1.6,3.0,100,0.00,,,0.35,VWS V14.01,2013-04-28 19:35:00,
2013-04-28 15:36:00,56.2,56.2,29.82,East,94,2.7,2.8,100,0.00,,,0.35,VWS V14.01,2013-04-28 19:36:00,
2013-04-28 15:37:00,56.0,56.0,29.82,ESE,104,2.8,2.8,100,0.00,,,0.35,VWS V14.01,2013-04-28 19:37:00,
2013-04-28 15:38:00,56.1,56.1,29.81,ESE,105,0.0,3.2,100,0.00,,,0.35,VWS V14.01,2013-04-28 19:38:00,
2013-04-28 15:39:00,56.1,56.1,29.81,ESE,114,2.2,2.2,100,0.00,,,0.35,VWS V14.01,2013-04-28 19:39:00,
2013-04-28 15:40:00,56.2,56.2,29.80,East,97,2.3,2.3,100,0.00,,,0.35,VWS V14.01,2013-04-28 19:40:00,
2013-04-28 15:41:00,56.4,56.4,29.81,ESE,108,1.3,2.3,100,0.00,,,0.35,VWS V14.01,2013-04-28 19:41:00,
2013-04-28 15:42:00,56.1,56.1,29.82,ESE,108,2.3,2.5,100,0.00,,,0.35,VWS V14.01,2013-04-28 19:42:00,
2013-04-28 15:43:00,56.0,56.0,29.82,East,100,1.3,2.3,100,0.00,,,0.35,VWS V14.01,2013-04-28 19:43:00,
2013-04-28 15:44:00,56.2,56.2,29.82,East,99,0.0,1.3,100,0.00,,,0.35,VWS V14.01,2013-04-28 19:44:00,
2013-04-28 15:45:00,56.0,56.0,29.82,East,99,0.0,0.0,100,0.00,,,0.35,VWS V14.01,2013-04-28 19:45:00,
2013-04-28 15:46:00,56.2,56.2,29.82,East,97,1.5,1.5,100,0.00,,,0.35,VWS V14.01,2013-04-28 19:46:00,
2013-04-28 15:47:00,56.3,56.3,29.82,East,97,0.0,1.5,100,0.00,,,0.35,VWS V14.01,2013-04-28 19:47:00,
2013-04-28 15:48:00,56.2,56.2,29.82,East,83,0.0,1.5,100,0.00,,,0.35,VWS V14.01,2013-04-28 19:48:00,
2013-04-28 15:49:00,56.7,56.7,29.82,East,91,2.3,2.3,100,0.00,,,0.35,VWS V14.01,2013-04-28 19:49:00,
2013-04-28 15:50:00,56.4,56.4,29.82,ESE,105,0.0,2.3,100,0.00,,,0.35,VWS V14.01,2013-04-28 19:50:00,
2013-04-28 15:51:00,56.3,56.3,29.82,East,86,1.0,1.0,100,0.00,,,0.35,VWS V14.01,2013-04-28 19:51:00,
2013-04-28 15:52:00,56.6,56.6,29.81,ENE,75,0.0,0.0,100,0.00,,,0.35,VWS V14.01,2013-04-28 19:52:00,
2013-04-28 15:53:00,56.3,56.3,29.82,ESE,113,2.7,2.7,100,0.00,,,0.35,VWS V14.01,2013-04-28 19:53:00,
2013-04-28 15:54:00,56.7,56.7,29.82,ESE,110,0.0,2.7,100,0.00,,,0.35,VWS V14.01,2013-04-28 19:54:00,
2013-04-28 15:55:00,56.9,56.9,29.81,East,99,1.0,1.0,100,0.00,,,0.35,VWS V14.01,2013-04-28 19:55:00,
2013-04-28 15:56:00,57.0,57.0,29.81,East,99,0.0,1.0,100,0.00,,,0.35,VWS V14.01,2013-04-28 19:56:00,
2013-04-28 15:57:00,56.6,56.6,29.81,East,99,1.1,1.1,100,0.00,,,0.35,VWS V14.01,2013-04-28 19:57:00,
2013-04-28 15:58:00,56.8,56.8,29.82,East,94,1.1,2.0,100,0.00,,,0.35,VWS V14.01,2013-04-28 19:58:00,
2013-04-28 15:59:00,57.1,57.1,29.81,East,94,1.3,1.3,100,0.00,,,0.35,VWS V14.01,2013-04-28 19:59:00,
2013-04-28 16:00:00,57.4,57.3,29.82,East,97,0.0,1.3,100,0.00,,,0.35,VWS V14.01,2013-04-28 20:00:00,
2013-04-28 16:01:00,57.4,57.3,29.81,East,97,0.0,1.3,100,0.00,,,0.35,VWS V14.01,2013-04-28 20:01:00,
2013-04-28 16:02:00,58.2,58.1,29.81,SE,130,0.0,0.0,100,0.00,,,0.35,VWS V14.01,2013-04-28 20:02:00,
2013-04-28 16:03:00,56.9,56.9,29.81,East,89,1.6,1.6,100,0.00,,,0.35,VWS V14.01,2013-04-28 20:03:00,
2013-04-28 16:04:00,57.4,57.0,29.80,East,87,0.0,1.6,98,0.00,,,0.35,VWS V14.01,2013-04-28 20:04:00,
2013-04-28 16:05:00,57.0,56.5,29.80,East,87,0.0,0.0,98,0.00,,,0.35,VWS V14.01,2013-04-28 20:05:00,
2013-04-28 16:06:00,57.2,56.7,29.81,ESE,104,1.3,1.3,98,0.00,,,0.35,VWS V14.01,2013-04-28 20:06:00,
2013-04-28 16:07:00,57.3,56.5,29.81,ESE,120,0.0,2.5,97,0.00,,,0.35,VWS V14.01,2013-04-28 20:07:00,
2013-04-28 16:08:00,57.1,56.3,29.80,East,88,0.0,0.0,97,0.00,,,0.35,VWS V14.01,2013-04-28 20:08:00,
2013-04-28 16:09:00,57.3,56.7,29.81,East,89,1.0,1.0,98,0.00,,,0.35,VWS V14.01,2013-04-28 20:09:00,
2013-04-28 16:10:00,57.5,56.7,29.81,East,82,0.0,1.0,97,0.00,,,0.35,VWS V14.01,2013-04-28 20:10:00,
2013-04-28 16:11:00,58.0,57.3,29.80,ESE,120,1.3,1.3,97,0.00,,,0.35,VWS V14.01,2013-04-28 20:11:00,
2013-04-28 16:12:00,57.6,56.5,29.81,SSE,152,0.0,2.7,96,0.00,,,0.35,VWS V14.01,2013-04-28 20:12:00,
2013-04-28 16:13:00,57.9,56.9,29.81,SSE,152,0.0,0.0,96,0.00,,,0.35,VWS V14.01,2013-04-28 20:13:00,
2013-04-28 16:14:00,57.1,55.9,29.80,East,100,2.3,2.3,96,0.00,,,0.35,VWS V14.01,2013-04-28 20:14:00,
2013-04-28 16:15:00,57.4,56.2,29.80,ESE,107,0.0,2.3,96,0.00,,,0.35,VWS V14.01,2013-04-28 20:15:00,
2013-04-28 16:16:00,58.3,57.3,29.81,ESE,109,3.0,3.0,97,0.00,,,0.35,VWS V14.01,2013-04-28 20:16:00,
2013-04-28 16:17:00,58.4,57.0,29.81,ESE,116,0.0,1.5,95,0.00,,,0.35,VWS V14.01,2013-04-28 20:17:00,
2013-04-28 16:18:00,56.8,55.3,29.81,ENE,75,3.7,3.7,95,0.00,,,0.35,VWS V14.01,2013-04-28 20:18:00,
2013-04-28 16:19:00,56.9,55.3,29.79,ENE,77,3.0,3.7,94,0.00,,,0.35,VWS V14.01,2013-04-28 20:19:00,
2013-04-28 16:20:00,57.2,55.7,29.80,East,86,2.2,2.2,95,0.00,,,0.35,VWS V14.01,2013-04-28 20:20:00,
2013-04-28 16:21:00,56.9,55.5,29.80,ENE,72,2.3,2.3,95,0.00,,,0.35,VWS V14.01,2013-04-28 20:21:00,
2013-04-28 16:22:00,57.3,55.8,29.80,ENE,71,1.8,2.3,95,0.00,,,0.35,VWS V14.01,2013-04-28 20:22:00,
2013-04-28 16:23:00,57.5,56.1,29.80,ESE,103,0.0,2.2,95,0.00,,,0.35,VWS V14.01,2013-04-28 20:23:00,
2013-04-28 16:24:00,57.6,56.2,29.80,ESE,103,0.0,0.0,95,0.00,,,0.35,VWS V14.01,2013-04-28 20:24:00,
2013-04-28 16:25:00,57.7,56.5,29.80,East,98,2.7,2.7,96,0.00,,,0.35,VWS V14.01,2013-04-28 20:25:00,
2013-04-28 16:26:00,57.5,56.2,29.80,SE,141,4.2,4.2,95,0.00,,,0.35,VWS V14.01,2013-04-28 20:26:00,
2013-04-28 16:27:00,57.4,55.8,29.80,ESE,118,2.0,4.2,95,0.00,,,0.35,VWS V14.01,2013-04-28 20:27:00,
2013-04-28 16:28:00,57.4,55.8,29.80,ESE,122,2.7,2.7,94,0.00,,,0.35,VWS V14.01,2013-04-28 20:28:00,
2013-04-28 16:29:00,57.2,55.8,29.79,ESE,104,3.4,3.4,95,0.00,,,0.35,VWS V14.01,2013-04-28 20:29:00,
2013-04-28 16:30:00,57.8,56.3,29.79,East,94,2.2,3.4,95,0.00,,,0.35,VWS V14.01,2013-04-28 20:30:00,
2013-04-28 16:31:00,57.7,56.5,29.80,East,100,3.0,3.0,96,0.00,,,0.35,VWS V14.01,2013-04-28 20:31:00,
2013-04-28 16:32:00,57.4,56.0,29.80,East,91,2.7,3.0,95,0.00,,,0.35,VWS V14.01,2013-04-28 20:32:00,
2013-04-28 16:33:00,57.4,55.6,29.80,SE,137,3.2,3.4,94,0.00,,,0.35,VWS V14.01,2013-04-28 20:33:00,
2013-04-28 16:34:00,57.9,56.1,29.80,SE,136,2.2,2.2,94,0.00,,,0.35,VWS V14.01,2013-04-28 20:34:00,
2013-04-28 16:35:00,57.8,56.2,29.80,ESE,117,2.5,3.4,94,0.00,,,0.35,VWS V14.01,2013-04-28 20:35:00,
2013-04-28 16:36:00,57.7,56.1,29.79,East,98,1.0,2.5,94,0.00,,,0.35,VWS V14.01,2013-04-28 20:36:00,
2013-04-28 16:37:00,57.5,56.0,29.80,ESE,122,1.6,2.8,95,0.00,,,0.35,VWS V14.01,2013-04-28 20:37:00,
2013-04-28 16:38:00,57.7,56.2,29.79,ESE,122,0.0,1.6,95,0.00,,,0.35,VWS V14.01,2013-04-28 20:38:00,
2013-04-28 16:39:00,58.3,56.9,29.79,SE,134,2.7,2.7,95,0.00,,,0.35,VWS V14.01,2013-04-28 20:39:00,
2013-04-28 16:40:00,57.8,56.2,29.79,SE,129,2.7,2.7,94,0.00,,,0.35,VWS V14.01,2013-04-28 20:40:00,
2013-04-28 16:41:00,58.3,56.7,29.79,SE,137,1.0,1.8,94,0.00,,,0.35,VWS V14.01,2013-04-28 20:41:00,
2013-04-28 16:42:00,58.0,56.3,29.79,SE,137,0.0,1.8,94,0.00,,,0.35,VWS V14.01,2013-04-28 20:42:00,
2013-04-28 16:43:00,57.6,55.8,29.79,ESE,113,2.3,2.3,94,0.00,,,0.35,VWS V14.01,2013-04-28 20:43:00,
2013-04-28 16:44:00,57.4,55.2,29.80,ESE,105,3.5,3.5,92,0.00,,,0.35,VWS V14.01,2013-04-28 20:44:00,
2013-04-28 16:45:00,57.9,55.5,29.80,SE,125,0.0,0.0,92,0.00,,,0.35,VWS V14.01,2013-04-28 20:45:00,
2013-04-28 16:46:00,58.0,56.0,29.80,ESE,114,1.3,1.3,93,0.00,,,0.35,VWS V14.01,2013-04-28 20:46:00,
2013-04-28 16:47:00,57.3,55.2,29.80,East,80,2.5,2.5,92,0.00,,,0.35,VWS V14.01,2013-04-28 20:47:00,
2013-04-28 16:48:00,57.7,55.6,29.80,East,80,0.0,2.5,93,0.00,,,0.35,VWS V14.01,2013-04-28 20:48:00,
2013-04-28 16:49:00,57.8,55.8,29.80,East,80,0.0,0.0,93,0.00,,,0.35,VWS V14.01,2013-04-28 20:49:00,
2013-04-28 16:50:00,57.6,55.5,29.80,ESE,103,2.8,2.8,93,0.00,,,0.35,VWS V14.01,2013-04-28 20:50:00,
2013-04-28 16:51:00,57.6,55.6,29.80,SE,125,3.7,3.7,93,0.00,,,0.35,VWS V14.01,2013-04-28 20:51:00,
2013-04-28 16:52:00,57.7,55.8,29.83,ESE,120,2.8,3.0,94,0.00,,,0.35,VWS V14.01,2013-04-28 20:52:00,
2013-04-28 16:53:00,57.8,56.1,29.81,ESE,120,0.0,3.0,94,0.00,,,0.35,VWS V14.01,2013-04-28 20:53:00,
2013-04-28 16:54:00,57.8,56.0,29.80,ESE,111,1.3,1.5,94,0.00,,,0.35,VWS V14.01,2013-04-28 20:54:00,
2013-04-28 16:55:00,57.9,56.2,29.80,SSE,165,0.0,1.3,94,0.00,,,0.35,VWS V14.01,2013-04-28 20:55:00,
2013-04-28 16:56:00,57.6,55.7,29.80,South,176,0.0,1.3,93,0.00,,,0.35,VWS V14.01,2013-04-28 20:56:00,
2013-04-28 16:57:00,57.6,55.7,29.80,South,176,0.0,1.3,93,0.00,,,0.35,VWS V14.01,2013-04-28 20:57:00,
2013-04-28 16:58:00,57.9,55.9,29.80,South,176,0.0,0.0,93,0.00,,,0.35,VWS V14.01,2013-04-28 20:58:00,
2013-04-28 16:59:00,57.7,55.8,29.80,SSE,159,3.2,3.2,93,0.00,,,0.35,VWS V14.01,2013-04-28 20:59:00,
2013-04-28 17:00:00,57.6,55.7,29.79,SSE,168,2.5,3.2,93,0.00,,,0.35,VWS V14.01,2013-04-28 21:00:00,
2013-04-28 17:01:00,57.6,55.6,29.79,SSE,168,0.0,2.5,93,0.00,,,0.35,VWS V14.01,2013-04-28 21:01:00,
2013-04-28 17:02:00,57.7,55.7,29.80,SSE,168,1.8,1.8,93,0.00,,,0.35,VWS V14.01,2013-04-28 21:02:00,
2013-04-28 17:03:00,57.7,55.8,29.80,SSE,161,0.0,2.5,93,0.00,,,0.35,VWS V14.01,2013-04-28 21:03:00,
2013-04-28 17:04:00,57.9,56.0,29.80,SSE,161,0.0,0.0,93,0.00,,,0.35,VWS V14.01,2013-04-28 21:04:00,
2013-04-28 17:05:00,57.6,55.6,29.80,SSE,148,3.7,3.7,93,0.00,,,0.35,VWS V14.01,2013-04-28 21:05:00,
2013-04-28 17:06:00,57.7,55.5,29.79,SSE,167,4.0,4.0,92,0.00,,,0.35,VWS V14.01,2013-04-28 21:06:00,
2013-04-28 17:07:00,57.7,55.4,29.78,South,169,2.0,4.0,92,0.00,,,0.35,VWS V14.01,2013-04-28 21:07:00,
2013-04-28 17:08:00,57.8,55.7,29.78,South,169,2.2,2.2,93,0.00,,,0.35,VWS V14.01,2013-04-28 21:08:00,
2013-04-28 17:09:00,57.6,55.7,29.78,ESE,120,3.2,3.2,93,0.00,,,0.35,VWS V14.01,2013-04-28 21:09:00,
2013-04-28 17:10:00,57.7,55.7,29.79,ESE,114,2.7,3.2,93,0.00,,,0.35,VWS V14.01,2013-04-28 21:10:00,
2013-04-28 17:11:00,57.9,56.2,29.79,SSE,152,2.8,3.5,94,0.00,,,0.35,VWS V14.01,2013-04-28 21:11:00,
2013-04-28 17:12:00,57.7,55.9,29.79,SSE,147,3.9,3.9,94,0.00,,,0.35,VWS V14.01,2013-04-28 21:12:00,
2013-04-28 17:13:00,57.7,55.7,29.78,SSE,157,3.2,3.2,93,0.00,,,0.35,VWS V14.01,2013-04-28 21:13:00,
2013-04-28 17:14:00,57.8,55.9,29.80,SSE,155,3.5,3.5,93,0.00,,,0.35,VWS V14.01,2013-04-28 21:14:00,
2013-04-28 17:15:00,57.8,55.9,29.80,SE,138,2.8,3.5,93,0.00,,,0.35,VWS V14.01,2013-04-28 21:15:00,
2013-04-28 17:16:00,57.8,55.9,29.80,SE,138,2.8,3.5,93,0.00,,,0.35,VWS V14.01,2013-04-28 21:16:00,
2013-04-28 17:17:00,57.6,55.8,29.80,SE,142,3.2,3.2,94,0.00,,,0.35,VWS V14.01,2013-04-28 21:17:00,
2013-04-28 17:18:00,57.6,55.8,29.80,ESE,114,3.0,3.2,94,0.00,,,0.35,VWS V14.01,2013-04-28 21:18:00,
2013-04-28 17:19:00,57.7,56.2,29.79,SE,132,3.4,3.4,95,0.00,,,0.35,VWS V14.01,2013-04-28 21:19:00,
2013-04-28 17:20:00,57.5,56.0,29.79,ESE,111,3.7,3.7,95,0.00,,,0.35,VWS V14.01,2013-04-28 21:20:00,
2013-04-28 17:21:00,57.6,56.2,29.78,SE,133,3.4,3.7,95,0.00,,,0.35,VWS V14.01,2013-04-28 21:21:00,
2013-04-28 17:22:00,57.2,55.0,29.80,SSE,151,4.7,4.9,92,0.00,,,0.35,VWS V14.01,2013-04-28 21:22:00,
2013-04-28 17:23:00,57.1,55.8,29.80,SE,146,4.9,4.9,95,0.00,,,0.35,VWS V14.01,2013-04-28 21:23:00,
2013-04-28 17:24:00,57.2,55.9,29.80,SE,131,4.4,4.9,95,0.00,,,0.35,VWS V14.01,2013-04-28 21:24:00,
2013-04-28 17:25:00,57.1,55.9,29.80,SSE,151,3.5,4.5,96,0.00,,,0.35,VWS V14.01,2013-04-28 21:25:00,
2013-04-28 17:26:00,56.9,55.8,29.80,SE,137,4.2,4.2,96,0.00,,,0.35,VWS V14.01,2013-04-28 21:26:00,
2013-04-28 17:27:00,57.0,56.1,29.80,SE,143,3.9,4.0,97,0.00,,,0.35,VWS V14.01,2013-04-28 21:27:00,
2013-04-28 17:28:00,56.9,55.2,29.80,SE,144,3.9,4.0,94,0.00,,,0.35,VWS V14.01,2013-04-28 21:28:00,
2013-04-28 17:29:00,57.0,56.1,29.80,SE,140,3.2,3.9,97,0.00,,,0.35,VWS V14.01,2013-04-28 21:29:00,
2013-04-28 17:31:00,56.9,56.2,29.80,SSE,163,3.2,3.2,97,0.00,,,0.35,VWS V14.01,2013-04-28 21:31:00,
2013-04-28 17:32:00,57.0,56.3,29.79,SSE,159,2.8,3.2,98,0.00,,,0.35,VWS V14.01,2013-04-28 21:32:00,
2013-04-28 17:33:00,57.1,56.6,29.80,SSE,166,2.3,2.8,98,0.00,,,0.35,VWS V14.01,2013-04-28 21:33:00,
2013-04-28 17:34:00,56.9,56.4,29.79,SSE,166,3.2,3.2,98,0.00,,,0.35,VWS V14.01,2013-04-28 21:34:00,
2013-04-28 17:35:00,56.8,56.2,29.78,SSE,168,3.2,3.2,98,0.00,,,0.35,VWS V14.01,2013-04-28 21:35:00,
2013-04-28 17:36:00,56.8,56.2,29.79,SSE,166,3.2,3.2,98,0.00,,,0.35,VWS V14.01,2013-04-28 21:36:00,
2013-04-28 17:37:00,56.8,56.1,29.79,SSE,150,2.3,2.3,98,0.00,,,0.35,VWS V14.01,2013-04-28 21:37:00,
2013-04-28 17:38:00,57.0,56.3,29.79,SSE,150,1.0,2.3,98,0.00,,,0.35,VWS V14.01,2013-04-28 21:38:00,
2013-04-28 17:39:00,56.9,56.3,29.80,SSE,150,1.1,1.1,98,0.00,,,0.35,VWS V14.01,2013-04-28 21:39:00,
2013-04-28 17:40:00,57.0,56.5,29.79,SSE,152,0.0,0.0,98,0.00,,,0.35,VWS V14.01,2013-04-28 21:40:00,
2013-04-28 17:41:00,56.9,56.3,29.79,South,180,1.1,1.1,98,0.00,,,0.35,VWS V14.01,2013-04-28 21:41:00,
2013-04-28 17:42:00,56.7,56.1,29.80,South,183,3.0,3.0,98,0.00,,,0.35,VWS V14.01,2013-04-28 21:42:00,
2013-04-28 17:43:00,56.7,56.2,29.79,South,176,1.5,3.0,98,0.00,,,0.35,VWS V14.01,2013-04-28 21:43:00,
2013-04-28 17:44:00,56.8,56.3,29.79,South,170,2.2,2.2,98,0.00,,,0.35,VWS V14.01,2013-04-28 21:44:00,
2013-04-28 17:45:00,56.8,56.3,29.82,South,180,2.8,2.8,98,0.00,,,0.35,VWS V14.01,2013-04-28 21:45:00,
2013-04-28 17:46:00,56.8,56.4,29.80,South,183,2.8,2.8,99,0.00,,,0.35,VWS V14.01,2013-04-28 21:46:00,
2013-04-28 17:47:00,56.7,56.4,29.79,SSE,157,3.2,3.2,99,0.00,,,0.35,VWS V14.01,2013-04-28 21:47:00,
2013-04-28 17:48:00,56.9,56.6,29.79,SSE,159,2.0,2.0,99,0.00,,,0.35,VWS V14.01,2013-04-28 21:48:00,
2013-04-28 17:49:00,56.9,56.6,29.79,SSE,165,2.8,2.8,99,0.00,,,0.35,VWS V14.01,2013-04-28 21:49:00,
2013-04-28 17:50:00,57.0,56.8,29.79,SSE,167,2.3,2.8,99,0.00,,,0.35,VWS V14.01,2013-04-28 21:50:00,
2013-04-28 17:51:00,56.8,56.6,29.78,South,172,2.2,2.5,99,0.00,,,0.35,VWS V14.01,2013-04-28 21:51:00,
2013-04-28 17:52:00,57.0,56.9,29.79,South,174,1.0,2.2,100,0.00,,,0.35,VWS V14.01,2013-04-28 21:52:00,
2013-04-28 17:53:00,56.8,56.7,29.80,South,174,1.1,1.1,100,0.00,,,0.35,VWS V14.01,2013-04-28 21:53:00,
2013-04-28 17:54:00,56.7,56.6,29.80,South,175,2.2,2.2,100,0.00,,,0.35,VWS V14.01,2013-04-28 21:54:00,
2013-04-28 17:55:00,56.8,56.7,29.80,South,176,0.0,2.2,99,0.00,,,0.35,VWS V14.01,2013-04-28 21:55:00,
2013-04-28 17:56:00,56.8,56.7,29.80,South,176,0.0,2.2,99,0.00,,,0.35,VWS V14.01,2013-04-28 21:56:00,
2013-04-28 17:57:00,56.9,56.8,29.81,SSW,192,1.3,1.3,100,0.00,,,0.35,VWS V14.01,2013-04-28 21:57:00,
2013-04-28 17:58:00,56.8,56.7,29.80,SSW,192,2.0,2.2,100,0.00,,,0.35,VWS V14.01,2013-04-28 21:58:00,
2013-04-28 17:59:00,56.7,56.6,29.80,South,190,1.0,2.0,100,0.00,,,0.35,VWS V14.01,2013-04-28 21:59:00,
2013-04-28 18:00:00,56.9,56.8,29.80,South,188,0.0,1.0,100,0.00,,,0.35,VWS V14.01,2013-04-28 22:00:00,
2013-04-28 18:02:00,57.0,56.9,29.81,South,188,0.0,0.0,100,0.00,,,0.35,VWS V14.01,2013-04-28 22:02:00,
2013-04-28 18:03:00,56.9,56.9,29.80,South,182,2.0,2.0,100,0.00,,,0.35,VWS V14.01,2013-04-28 22:03:00,
2013-04-28 18:06:00,56.8,56.8,29.79,South,181,1.3,1.3,100,0.00,,,0.35,VWS V14.01,2013-04-28 22:06:00,
2013-04-28 18:07:00,56.8,56.8,29.80,South,181,1.3,1.3,100,0.00,,,0.35,VWS V14.01,2013-04-28 22:07:00,
2013-04-28 18:08:00,57.0,57.0,29.79,South,180,0.0,0.0,100,0.00,,,0.35,VWS V14.01,2013-04-28 22:08:00,
2013-04-28 18:09:00,57.0,57.0,29.79,South,178,0.0,0.0,100,0.00,,,0.35,VWS V14.01,2013-04-28 22:09:00,
2013-04-28 18:10:00,57.1,57.1,29.80,South,178,0.0,0.0,100,0.00,,,0.35,VWS V14.01,2013-04-28 22:10:00,
2013-04-28 18:11:00,57.0,57.0,29.80,South,178,1.0,1.0,100,0.00,,,0.35,VWS V14.01,2013-04-28 22:11:00,
2013-04-28 18:13:00,56.9,56.9,29.79,South,170,0.0,2.2,100,0.00,,,0.35,VWS V14.01,2013-04-28 22:13:00,
2013-04-28 18:14:00,56.8,56.8,29.79,South,170,1.8,1.8,100,0.00,,,0.35,VWS V14.01,2013-04-28 22:14:00,
2013-04-28 18:15:00,57.0,57.0,29.80,South,170,0.0,0.0,100,0.00,,,0.35,VWS V14.01,2013-04-28 22:15:00,
2013-04-28 18:16:00,56.9,56.9,29.79,South,170,0.0,0.0,100,0.00,,,0.35,VWS V14.01,2013-04-28 22:16:00,
2013-04-28 18:18:00,56.7,56.7,29.80,SE,136,2.0,2.2,100,0.00,,,0.35,VWS V14.01,2013-04-28 22:18:00,
2013-04-28 18:19:00,56.7,56.7,29.80,SE,136,2.0,2.0,100,0.00,,,0.35,VWS V14.01,2013-04-28 22:19:00,
2013-04-28 18:20:00,56.7,56.7,29.80,SE,136,2.0,2.0,100,0.00,,,0.35,VWS V14.01,2013-04-28 22:20:00,
2013-04-28 18:21:00,56.7,56.7,29.83,SE,136,0.0,0.0,100,0.00,,,0.35,VWS V14.01,2013-04-28 22:21:00,
2013-04-28 18:25:00,56.7,56.7,29.80,SE,136,0.0,0.0,100,0.00,,,0.35,VWS V14.01,2013-04-28 22:25:00,
2013-04-28 18:26:00,56.6,56.6,29.80,SE,136,0.0,0.0,100,0.00,,,0.35,VWS V14.01,2013-04-28 22:26:00,
2013-04-28 18:28:00,56.7,56.7,29.80,SE,136,0.0,0.0,100,0.00,,,0.35,VWS V14.01,2013-04-28 22:28:00,
2013-04-28 18:29:00,56.6,56.6,29.80,SE,136,0.0,0.0,100,0.00,,,0.35,VWS V14.01,2013-04-28 22:29:00,
2013-04-28 18:30:00,56.6,56.6,29.79,SE,136,0.0,0.0,100,0.00,,,0.35,VWS V14.01,2013-04-28 22:30:00,
2013-04-28 18:31:00,56.6,56.6,29.83,SE,136,0.0,0.0,100,0.00,,,0.35,VWS V14.01,2013-04-28 22:31:00,
2013-04-28 18:32:00,56.6,56.6,29.81,SE,136,0.0,0.0,100,0.00,,,0.35,VWS V14.01,2013-04-28 22:32:00,
2013-04-28 18:33:00,56.6,56.6,29.80,SE,136,0.0,0.0,100,0.00,,,0.35,VWS V14.01,2013-04-28 22:33:00,
2013-04-28 18:34:00,56.5,56.6,29.81,SE,136,0.0,0.0,100,0.00,,,0.35,VWS V14.01,2013-04-28 22:34:00,
2013-04-28 18:36:00,56.5,56.5,29.81,ESE,108,2.5,2.5,100,0.00,,,0.35,VWS V14.01,2013-04-28 22:36:00,
2013-04-28 18:37:00,56.5,56.5,29.79,East,100,2.2,2.5,100,0.00,,,0.35,VWS V14.01,2013-04-28 22:37:00,
2013-04-28 18:39:00,56.5,56.5,29.80,East,97,3.2,3.4,100,0.00,,,0.35,VWS V14.01,2013-04-28 22:39:00,
2013-04-28 18:40:00,56.5,56.5,29.80,East,97,3.0,3.2,100,0.00,,,0.35,VWS V14.01,2013-04-28 22:40:00,
2013-04-28 18:42:00,56.6,56.6,29.81,East,101,2.5,3.5,100,0.00,,,0.35,VWS V14.01,2013-04-28 22:42:00,
2013-04-28 18:45:00,56.5,56.5,29.80,East,97,3.4,3.7,100,0.00,,,0.35,VWS V14.01,2013-04-28 22:45:00,
2013-04-28 18:46:00,56.7,56.7,29.79,East,97,2.3,3.4,100,0.00,,,0.35,VWS V14.01,2013-04-28 22:46:00,
2013-04-28 18:47:00,56.6,56.6,29.79,ESE,110,3.0,3.0,100,0.00,,,0.35,VWS V14.01,2013-04-28 22:47:00,
2013-04-28 18:48:00,56.7,56.7,29.80,ESE,103,2.7,2.7,100,0.00,,,0.35,VWS V14.01,2013-04-28 22:48:00,
2013-04-28 18:50:00,56.9,56.9,29.80,ESE,110,1.1,3.2,100,0.00,,,0.35,VWS V14.01,2013-04-28 22:50:00,
2013-04-28 18:52:00,57.0,57.0,29.80,ESE,110,0.0,0.0,100,0.00,,,0.35,VWS V14.01,2013-04-28 22:52:00,
2013-04-28 18:53:00,56.7,56.7,29.80,East,100,2.2,2.2,100,0.00,,,0.35,VWS V14.01,2013-04-28 22:53:00,
2013-04-28 18:54:00,56.8,56.8,29.80,East,100,0.0,2.2,100,0.00,,,0.35,VWS V14.01,2013-04-28 22:54:00,
2013-04-28 18:56:00,56.8,56.8,29.80,East,100,0.0,0.0,100,0.00,,,0.35,VWS V14.01,2013-04-28 22:56:00,
2013-04-28 18:58:00,57.0,57.0,29.80,East,100,0.0,0.0,100,0.00,,,0.35,VWS V14.01,2013-04-28 22:58:00,
2013-04-28 19:00:00,56.8,56.8,29.80,East,81,0.0,0.0,100,0.00,,,0.35,VWS V14.01,2013-04-28 23:00:00,
2013-04-28 19:01:00,56.6,56.7,29.80,East,81,0.0,0.0,100,0.00,,,0.35,VWS V14.01,2013-04-28 23:01:00,
2013-04-28 19:02:00,57.0,56.9,29.81,South,188,0.0,0.0,100,0.00,,,0.35,VWS V14.01,2013-04-28 23:02:00,
2013-04-28 19:03:00,56.7,56.7,29.80,East,79,0.0,0.0,100,0.00,,,0.35,VWS V14.01,2013-04-28 23:03:00,
2013-04-28 19:04:00,56.6,56.7,29.80,ENE,63,0.0,0.0,100,0.00,,,0.35,VWS V14.01,2013-04-28 23:04:00,
2013-04-28 19:05:00,56.7,56.7,29.80,ENE,63,0.0,0.0,100,0.00,,,0.35,VWS V14.01,2013-04-28 23:05:00,
2013-04-28 19:06:00,56.8,56.8,29.80,ENE,63,0.0,0.0,100,0.00,,,0.35,VWS V14.01,2013-04-28 23:06:00,
2013-04-28 19:07:00,56.8,56.8,29.80,ENE,63,0.0,0.0,100,0.00,,,0.35,VWS V14.01,2013-04-28 23:07:00,
2013-04-28 19:08:00,57.0,57.0,29.80,South,181,0.0,1.8,100,0.00,,,0.35,VWS V14.01,2013-04-28 23:08:00,
2013-04-28 19:09:00,56.8,56.8,29.80,ENE,63,0.0,0.0,100,0.00,,,0.35,VWS V14.01,2013-04-28 23:09:00,
2013-04-28 19:10:00,57.0,57.0,29.80,South,178,0.0,0.0,100,0.00,,,0.35,VWS V14.01,2013-04-28 23:10:00,
2013-04-28 19:11:00,56.7,56.7,29.78,ENE,63,0.0,0.0,100,0.00,,,0.35,VWS V14.01,2013-04-28 23:11:00,
2013-04-28 19:12:00,56.6,56.6,29.80,ENE,63,0.0,0.0,100,0.00,,,0.35,VWS V14.01,2013-04-28 23:12:00,
2013-04-28 19:13:00,56.8,56.8,29.79,South,170,2.2,2.2,100,0.00,,,0.35,VWS V14.01,2013-04-28 23:13:00,
2013-04-28 19:14:00,56.7,56.7,29.80,ENE,63,0.0,0.0,100,0.00,,,0.35,VWS V14.01,2013-04-28 23:14:00,
2013-04-28 19:15:00,56.7,56.7,29.79,ENE,63,0.0,0.0,100,0.00,,,0.35,VWS V14.01,2013-04-28 23:15:00,
2013-04-28 19:16:00,56.9,56.9,29.80,ENE,63,0.0,0.0,100,0.00,,,0.35,VWS V14.01,2013-04-28 23:16:00,
2013-04-28 19:17:00,56.9,56.9,29.80,ENE,63,0.0,0.0,100,0.00,,,0.35,VWS V14.01,2013-04-28 23:17:00,
2013-04-28 19:18:00,56.8,56.8,29.79,SE,136,2.2,2.2,100,0.00,,,0.35,VWS V14.01,2013-04-28 23:18:00,
2013-04-28 19:19:00,56.7,56.7,29.80,SE,136,2.0,2.2,100,0.00,,,0.35,VWS V14.01,2013-04-28 23:19:00,
2013-04-28 19:20:00,56.7,56.7,29.80,SE,136,2.0,2.0,100,0.00,,,0.35,VWS V14.01,2013-04-28 23:20:00,
2013-04-28 19:21:00,56.8,56.8,29.79,ENE,65,0.0,0.0,100,0.00,,,0.35,VWS V14.01,2013-04-28 23:21:00,
2013-04-28 19:22:00,56.7,56.7,29.79,ENE,65,0.0,0.0,100,0.00,,,0.35,VWS V14.01,2013-04-28 23:22:00,
2013-04-28 19:23:00,56.7,56.7,29.80,SE,136,1.1,1.3,100,0.00,,,0.35,VWS V14.01,2013-04-28 23:23:00,
2013-04-28 19:24:00,56.8,56.8,29.80,SE,136,0.0,1.1,100,0.00,,,0.35,VWS V14.01,2013-04-28 23:24:00,
2013-04-28 19:25:00,56.7,56.7,29.80,SE,136,0.0,0.0,100,0.00,,,0.35,VWS V14.01,2013-04-28 23:25:00,
2013-04-28 19:26:00,56.7,56.7,29.81,SE,136,0.0,0.0,100,0.00,,,0.35,VWS V14.01,2013-04-28 23:26:00,
2013-04-28 19:27:00,56.8,56.8,29.78,ENE,65,0.0,0.0,100,0.00,,,0.35,VWS V14.01,2013-04-28 23:27:00,
2013-04-28 19:28:00,56.7,56.7,29.80,ENE,65,0.0,0.0,100,0.00,,,0.35,VWS V14.01,2013-04-28 23:28:00,
2013-04-28 19:29:00,56.6,56.6,29.80,SE,136,0.0,0.0,100,0.00,,,0.35,VWS V14.01,2013-04-28 23:29:00,
2013-04-28 19:30:00,56.7,56.7,29.79,ENE,65,0.0,0.0,100,0.00,,,0.35,VWS V14.01,2013-04-28 23:30:00,
2013-04-28 19:31:00,56.6,56.6,29.80,SE,136,0.0,0.0,100,0.00,,,0.35,VWS V14.01,2013-04-28 23:31:00,
2013-04-28 19:32:00,56.7,56.7,29.79,ENE,65,1.5,1.8,100,0.00,,,0.35,VWS V14.01,2013-04-28 23:32:00,
2013-04-28 19:33:00,56.6,56.6,29.80,SE,136,0.0,0.0,100,0.00,,,0.35,VWS V14.01,2013-04-28 23:33:00,
2013-04-28 19:34:00,56.7,56.7,29.79,ENE,65,0.0,1.8,100,0.00,,,0.35,VWS V14.01,2013-04-28 23:34:00,
2013-04-28 19:35:00,56.7,56.7,29.79,ENE,65,0.0,1.8,100,0.00,,,0.35,VWS V14.01,2013-04-28 23:35:00,
2013-04-28 19:36:00,56.7,56.7,29.80,ENE,65,0.0,1.8,100,0.00,,,0.35,VWS V14.01,2013-04-28 23:36:00,
2013-04-28 19:37:00,56.5,56.5,29.79,East,100,2.2,2.5,100,0.00,,,0.35,VWS V14.01,2013-04-28 23:37:00,
2013-04-28 19:38:00,56.5,56.5,29.79,East,100,3.2,3.2,100,0.00,,,0.35,VWS V14.01,2013-04-28 23:38:00,
2013-04-28 19:39:00,56.8,56.8,29.79,ENE,65,0.0,1.8,100,0.00,,,0.35,VWS V14.01,2013-04-28 23:39:00,
2013-04-28 19:40:00,56.7,56.7,29.79,ENE,65,0.0,1.8,100,0.00,,,0.35,VWS V14.01,2013-04-28 23:40:00,
2013-04-28 19:41:00,56.9,56.9,29.79,ENE,65,0.0,1.8,100,0.00,,,0.35,VWS V14.01,2013-04-28 23:41:00,
2013-04-28 19:42:00,56.4,56.4,29.80,East,101,3.5,3.5,100,0.00,,,0.35,VWS V14.01,2013-04-28 23:42:00,
2013-04-28 19:43:00,56.8,56.8,29.78,ENE,63,0.0,1.8,100,0.00,,,0.35,VWS V14.01,2013-04-28 23:43:00,
2013-04-28 19:44:00,56.5,56.5,29.81,East,100,3.7,3.7,100,0.00,,,0.35,VWS V14.01,2013-04-28 23:44:00,
2013-04-28 19:45:00,56.8,56.8,29.78,ENE,63,0.0,1.8,100,0.00,,,0.35,VWS V14.01,2013-04-28 23:45:00,
2013-04-28 19:46:00,56.5,56.6,29.78,ENE,63,0.0,1.8,100,0.00,,,0.35,VWS V14.01,2013-04-28 23:46:00,
2013-04-28 19:47:00,56.8,56.8,29.78,ENE,63,0.0,1.8,100,0.00,,,0.35,VWS V14.01,2013-04-28 23:47:00,
2013-04-28 19:48:00,56.7,56.7,29.80,ESE,103,2.7,2.8,100,0.00,,,0.35,VWS V14.01,2013-04-28 23:48:00,
2013-04-28 19:49:00,56.7,56.7,29.80,ESE,111,3.2,3.2,100,0.00,,,0.35,VWS V14.01,2013-04-28 23:49:00,
2013-04-28 19:50:00,56.6,56.6,29.79,ENE,64,1.1,2.5,100,0.00,,,0.35,VWS V14.01,2013-04-28 23:50:00,
2013-04-28 19:51:00,56.5,56.6,29.79,East,80,2.3,2.5,100,0.00,,,0.35,VWS V14.01,2013-04-28 23:51:00,
2013-04-28 19:52:00,56.6,56.6,29.78,East,80,1.6,2.5,100,0.00,,,0.35,VWS V14.01,2013-04-28 23:52:00,
2013-04-28 19:53:00,57.0,57.0,29.79,East,101,0.0,0.0,100,0.00,,,0.35,VWS V14.01,2013-04-28 23:53:00,
2013-04-28 19:54:00,56.7,56.7,29.80,East,100,2.2,2.2,100,0.00,,,0.35,VWS V14.01,2013-04-28 23:54:00,
2013-04-28 19:55:00,56.6,56.6,29.80,East,80,0.0,2.5,100,0.00,,,0.35,VWS V14.01,2013-04-28 23:55:00,
2013-04-28 19:56:00,56.8,56.8,29.80,East,100,0.0,0.0,100,0.00,,,0.35,VWS V14.01,2013-04-28 23:56:00,
2013-04-28 19:57:00,56.5,56.5,29.79,ENE,76,2.3,2.5,100,0.00,,,0.35,VWS V14.01,2013-04-28 23:57:00,
2013-04-28 19:58:00,56.5,56.5,29.78,ENE,75,1.6,2.5,100,0.00,,,0.35,VWS V14.01,2013-04-28 23:58:00,
2013-04-28 19:59:00,56.9,56.9,29.80,East,81,0.0,0.0,100,0.00,,,0.35,VWS V14.01,2013-04-28 23:59:00,
2013-04-28 20:00:00,56.6,56.6,29.80,East,81,0.0,0.0,100,0.00,,,0.35,VWS V14.01,2013-04-29 00:00:00,
2013-04-28 20:01:00,56.5,56.5,29.79,NE,53,0.0,2.5,100,0.00,,,0.35,VWS V14.01,2013-04-29 00:01:00,
2013-04-28 20:02:00,56.4,56.4,29.79,ENE,73,0.0,2.2,100,0.00,,,0.35,VWS V14.01,2013-04-29 00:02:00,
2013-04-28 20:03:00,56.4,56.4,29.79,ENE,73,1.3,1.3,100,0.00,,,0.35,VWS V14.01,2013-04-29 00:03:00,
2013-04-28 20:04:00,56.4,56.4,29.79,ENE,73,0.0,1.3,100,0.00,,,0.35,VWS V14.01,2013-04-29 00:04:00,
2013-04-28 20:05:00,56.4,56.4,29.79,ENE,75,0.0,2.2,100,0.00,,,0.35,VWS V14.01,2013-04-29 00:05:00,
2013-04-28 20:06:00,56.4,56.4,29.79,ENE,75,0.0,0.0,100,0.00,,,0.35,VWS V14.01,2013-04-29 00:06:00,
2013-04-28 20:07:00,56.4,56.4,29.79,ENE,75,1.0,1.0,100,0.00,,,0.35,VWS V14.01,2013-04-29 00:07:00,
2013-04-28 20:08:00,56.4,56.4,29.79,ENE,75,1.0,1.1,100,0.00,,,0.35,VWS V14.01,2013-04-29 00:08:00,
2013-04-28 20:09:00,56.3,56.3,29.80,ENE,75,1.0,1.0,100,0.00,,,0.35,VWS V14.01,2013-04-29 00:09:00,
2013-04-28 20:10:00,56.4,56.4,29.79,ENE,76,0.0,0.0,100,0.00,,,0.35,VWS V14.01,2013-04-29 00:10:00,
2013-04-28 20:11:00,56.3,56.3,29.80,ENE,76,1.1,1.1,100,0.00,,,0.35,VWS V14.01,2013-04-29 00:11:00,
2013-04-28 20:12:00,56.3,56.3,29.80,ENE,76,0.0,1.1,100,0.00,,,0.35,VWS V14.01,2013-04-29 00:12:00,
2013-04-28 20:13:00,56.2,56.2,29.79,ENE,76,0.0,0.0,100,0.00,,,0.35,VWS V14.01,2013-04-29 00:13:00,
2013-04-28 20:14:00,56.3,56.3,29.79,ENE,76,0.0,0.0,100,0.00,,,0.35,VWS V14.01,2013-04-29 00:14:00,
2013-04-28 20:15:00,56.3,56.3,29.79,ENE,76,0.0,0.0,100,0.00,,,0.35,VWS V14.01,2013-04-29 00:15:00,
2013-04-28 20:16:00,56.3,56.3,29.78,ENE,76,0.0,0.0,100,0.00,,,0.35,VWS V14.01,2013-04-29 00:16:00,
2013-04-28 20:17:00,56.3,56.3,29.79,ENE,76,0.0,0.0,100,0.00,,,0.35,VWS V14.01,2013-04-29 00:17:00,
2013-04-28 20:18:00,56.2,56.2,29.79,ENE,76,0.0,0.0,100,0.00,,,0.35,VWS V14.01,2013-04-29 00:18:00,
2013-04-28 20:19:00,56.2,56.2,29.79,ENE,76,0.0,0.0,100,0.00,,,0.35,VWS V14.01,2013-04-29 00:19:00,
2013-04-28 20:20:00,56.3,56.3,29.79,ENE,76,0.0,0.0,100,0.00,,,0.35,VWS V14.01,2013-04-29 00:20:00,
2013-04-28 20:21:00,56.3,56.3,29.80,ENE,76,0.0,0.0,100,0.00,,,0.35,VWS V14.01,2013-04-29 00:21:00,
2013-04-28 20:22:00,56.3,56.3,29.80,ENE,76,0.0,0.0,100,0.00,,,0.35,VWS V14.01,2013-04-29 00:22:00,
2013-04-28 20:23:00,56.3,56.3,29.80,ENE,76,0.0,0.0,100,0.00,,,0.35,VWS V14.01,2013-04-29 00:23:00,
2013-04-28 20:24:00,56.2,56.2,29.80,ENE,76,0.0,0.0,100,0.00,,,0.35,VWS V14.01,2013-04-29 00:24:00,
2013-04-28 20:25:00,56.3,56.3,29.81,ENE,76,0.0,0.0,100,0.00,,,0.35,VWS V14.01,2013-04-29 00:25:00,
2013-04-28 20:26:00,56.3,56.3,29.83,ENE,76,0.0,0.0,100,0.00,,,0.35,VWS V14.01,2013-04-29 00:26:00,
2013-04-28 20:27:00,56.3,56.3,29.81,ENE,76,0.0,0.0,100,0.00,,,0.35,VWS V14.01,2013-04-29 00:27:00,
2013-04-28 20:28:00,56.3,56.3,29.80,ENE,76,0.0,0.0,100,0.00,,,0.35,VWS V14.01,2013-04-29 00:28:00,
2013-04-28 20:29:00,56.1,56.2,29.80,ENE,76,0.0,0.0,100,0.00,,,0.35,VWS V14.01,2013-04-29 00:29:00,
2013-04-28 20:30:00,56.2,56.2,29.80,ENE,75,0.0,0.0,100,0.00,,,0.35,VWS V14.01,2013-04-29 00:30:00,
2013-04-28 20:31:00,56.2,56.2,29.80,ENE,76,0.0,0.0,100,0.00,,,0.35,VWS V14.01,2013-04-29 00:31:00,
2013-04-28 20:32:00,56.2,56.2,29.80,ENE,76,0.0,0.0,100,0.00,,,0.35,VWS V14.01,2013-04-29 00:32:00,
2013-04-28 20:33:00,56.2,56.2,29.80,ENE,76,0.0,0.0,100,0.00,,,0.35,VWS V14.01,2013-04-29 00:33:00,
2013-04-28 20:34:00,56.2,56.2,29.80,ENE,76,0.0,0.0,100,0.00,,,0.35,VWS V14.01,2013-04-29 00:34:00,
2013-04-28 20:35:00,56.3,56.3,29.80,ENE,76,0.0,0.0,100,0.00,,,0.35,VWS V14.01,2013-04-29 00:35:00,
2013-04-28 20:36:00,56.3,56.3,29.80,ENE,76,0.0,0.0,100,0.00,,,0.35,VWS V14.01,2013-04-29 00:36:00,
2013-04-28 20:37:00,56.3,56.3,29.80,ENE,76,0.0,0.0,100,0.00,,,0.35,VWS V14.01,2013-04-29 00:37:00,
2013-04-28 20:38:00,56.2,56.2,29.80,ENE,76,0.0,0.0,100,0.00,,,0.35,VWS V14.01,2013-04-29 00:38:00,
2013-04-28 20:39:00,56.3,56.3,29.81,ENE,76,0.0,0.0,100,0.00,,,0.35,VWS V14.01,2013-04-29 00:39:00,
2013-04-28 20:40:00,56.3,56.3,29.81,ENE,76,0.0,0.0,100,0.00,,,0.35,VWS V14.01,2013-04-29 00:40:00,
2013-04-28 20:41:00,56.3,56.3,29.80,ENE,76,0.0,0.0,100,0.00,,,0.35,VWS V14.01,2013-04-29 00:41:00,
2013-04-28 20:42:00,56.3,56.3,29.81,ENE,76,0.0,0.0,100,0.00,,,0.35,VWS V14.01,2013-04-29 00:42:00,
2013-04-28 20:43:00,56.2,56.2,29.80,ENE,76,0.0,0.0,100,0.00,,,0.35,VWS V14.01,2013-04-29 00:43:00,
2013-04-28 20:44:00,56.1,56.1,29.81,ENE,75,0.0,0.0,100,0.00,,,0.35,VWS V14.01,2013-04-29 00:44:00,
2013-04-28 20:45:00,56.1,56.1,29.80,ENE,76,0.0,0.0,100,0.00,,,0.35,VWS V14.01,2013-04-29 00:45:00,
2013-04-28 20:46:00,56.0,56.1,29.80,ENE,76,0.0,0.0,100,0.00,,,0.35,VWS V14.01,2013-04-29 00:46:00,
2013-04-28 20:47:00,55.9,55.9,29.81,ENE,76,0.0,0.0,100,0.00,,,0.35,VWS V14.01,2013-04-29 00:47:00,
2013-04-28 20:48:00,55.9,55.9,29.81,ENE,76,0.0,0.0,100,0.00,,,0.35,VWS V14.01,2013-04-29 00:48:00,
2013-04-28 20:49:00,56.0,56.0,29.81,ENE,76,0.0,0.0,100,0.00,,,0.35,VWS V14.01,2013-04-29 00:49:00,
2013-04-28 20:50:00,55.8,55.8,29.81,ENE,76,0.0,0.0,100,0.00,,,0.35,VWS V14.01,2013-04-29 00:50:00,
2013-04-28 20:51:00,55.9,55.9,29.81,ENE,76,0.0,0.0,100,0.00,,,0.35,VWS V14.01,2013-04-29 00:51:00,
2013-04-28 20:52:00,55.9,55.9,29.81,ENE,76,0.0,0.0,100,0.00,,,0.35,VWS V14.01,2013-04-29 00:52:00,
2013-04-28 20:53:00,55.9,55.9,29.81,ENE,76,0.0,0.0,100,0.00,,,0.35,VWS V14.01,2013-04-29 00:53:00,
2013-04-28 20:54:00,55.8,55.8,29.82,ENE,76,0.0,0.0,100,0.00,,,0.35,VWS V14.01,2013-04-29 00:54:00,
2013-04-28 20:55:00,56.0,56.0,29.81,ENE,76,0.0,0.0,100,0.00,,,0.35,VWS V14.01,2013-04-29 00:55:00,
2013-04-28 20:56:00,56.0,56.0,29.81,ENE,76,0.0,0.0,100,0.00,,,0.35,VWS V14.01,2013-04-29 00:56:00,
2013-04-28 20:57:00,55.9,55.9,29.81,ENE,76,0.0,0.0,100,0.00,,,0.35,VWS V14.01,2013-04-29 00:57:00,
2013-04-28 20:58:00,56.0,56.0,29.81,ENE,76,0.0,0.0,100,0.00,,,0.35,VWS V14.01,2013-04-29 00:58:00,
2013-04-28 20:59:00,56.0,56.0,29.82,ENE,76,0.0,0.0,100,0.00,,,0.35,VWS V14.01,2013-04-29 00:59:00,
2013-04-28 21:00:00,55.7,55.7,29.82,ENE,76,0.0,0.0,100,0.00,,,0.35,VWS V14.01,2013-04-29 01:00:00,
2013-04-28 21:01:00,56.0,56.0,29.81,ENE,76,0.0,0.0,100,0.00,,,0.35,VWS V14.01,2013-04-29 01:01:00,
2013-04-28 21:02:00,55.9,55.9,29.81,ENE,76,0.0,0.0,100,0.00,,,0.35,VWS V14.01,2013-04-29 01:02:00,
2013-04-28 21:03:00,55.8,55.8,29.81,ENE,76,0.0,0.0,100,0.00,,,0.35,VWS V14.01,2013-04-29 01:03:00,
2013-04-28 21:04:00,55.8,55.8,29.81,ENE,76,0.0,0.0,100,0.00,,,0.35,VWS V14.01,2013-04-29 01:04:00,
2013-04-28 21:05:00,55.9,55.9,29.81,ENE,76,0.0,0.0,100,0.00,,,0.35,VWS V14.01,2013-04-29 01:05:00,
2013-04-28 21:06:00,55.9,55.9,29.82,ENE,76,0.0,0.0,100,0.00,,,0.35,VWS V14.01,2013-04-29 01:06:00,
2013-04-28 21:07:00,56.0,56.0,29.84,ENE,76,0.0,0.0,100,0.00,,,0.35,VWS V14.01,2013-04-29 01:07:00,
2013-04-28 21:08:00,56.0,56.0,29.82,ENE,76,0.0,0.0,100,0.00,,,0.35,VWS V14.01,2013-04-29 01:08:00,
2013-04-28 21:09:00,55.9,55.9,29.81,ENE,76,0.0,0.0,100,0.00,,,0.35,VWS V14.01,2013-04-29 01:09:00,
2013-04-28 21:10:00,55.8,55.8,29.81,ENE,76,0.0,0.0,100,0.00,,,0.35,VWS V14.01,2013-04-29 01:10:00,
2013-04-28 21:11:00,55.8,55.8,29.81,ENE,76,0.0,0.0,100,0.00,,,0.35,VWS V14.01,2013-04-29 01:11:00,
2013-04-28 21:12:00,55.8,55.8,29.81,ENE,76,0.0,0.0,100,0.00,,,0.35,VWS V14.01,2013-04-29 01:12:00,
2013-04-28 21:13:00,55.8,55.8,29.81,ENE,76,0.0,0.0,100,0.00,,,0.35,VWS V14.01,2013-04-29 01:13:00,
2013-04-28 21:14:00,55.9,55.9,29.81,ENE,76,0.0,0.0,100,0.00,,,0.35,VWS V14.01,2013-04-29 01:14:00,
2013-04-28 21:15:00,55.9,55.9,29.82,ENE,76,0.0,0.0,100,0.00,,,0.35,VWS V14.01,2013-04-29 01:15:00,
2013-04-28 21:16:00,55.8,55.8,29.82,ENE,76,0.0,0.0,100,0.00,,,0.35,VWS V14.01,2013-04-29 01:16:00,
2013-04-28 21:17:00,55.8,55.8,29.82,ENE,76,0.0,0.0,100,0.00,,,0.35,VWS V14.01,2013-04-29 01:17:00,
2013-04-28 21:18:00,55.8,55.8,29.82,ENE,76,0.0,0.0,100,0.00,,,0.35,VWS V14.01,2013-04-29 01:18:00,
2013-04-28 21:19:00,55.8,55.8,29.82,ENE,76,0.0,0.0,100,0.00,,,0.35,VWS V14.01,2013-04-29 01:19:00,
2013-04-28 21:20:00,55.8,55.8,29.81,ENE,76,0.0,0.0,100,0.00,,,0.35,VWS V14.01,2013-04-29 01:20:00,
2013-04-28 21:21:00,55.4,55.4,29.82,NW,324,0.0,0.0,100,0.00,,,0.35,VWS V14.01,2013-04-29 01:21:00,
2013-04-28 21:22:00,55.4,55.4,29.81,NW,324,0.0,0.0,100,0.00,,,0.35,VWS V14.01,2013-04-29 01:22:00,
2013-04-28 21:23:00,55.3,55.3,29.82,NW,323,1.5,2.0,100,0.00,,,0.35,VWS V14.01,2013-04-29 01:23:00,
2013-04-28 21:24:00,55.4,55.4,29.82,NW,323,1.6,1.8,100,0.00,,,0.35,VWS V14.01,2013-04-29 01:24:00,
2013-04-28 21:25:00,55.3,55.3,29.82,NW,323,0.0,1.8,100,0.00,,,0.35,VWS V14.01,2013-04-29 01:25:00,
2013-04-28 21:26:00,55.4,55.4,29.82,NW,323,1.8,1.8,100,0.00,,,0.35,VWS V14.01,2013-04-29 01:26:00,
2013-04-28 21:27:00,55.3,55.3,29.81,NW,323,0.0,1.8,100,0.00,,,0.35,VWS V14.01,2013-04-29 01:27:00,
2013-04-28 21:28:00,55.4,55.4,29.82,NW,323,1.0,1.0,100,0.00,,,0.35,VWS V14.01,2013-04-29 01:28:00,
2013-04-28 21:29:00,55.5,55.5,29.82,NW,323,1.1,1.1,100,0.00,,,0.35,VWS V14.01,2013-04-29 01:29:00,
2013-04-28 21:30:00,55.5,55.5,29.85,NW,320,1.1,1.1,100,0.00,,,0.35,VWS V14.01,2013-04-29 01:30:00,
2013-04-28 21:31:00,55.5,55.5,29.83,NW,317,2.0,2.0,100,0.00,,,0.35,VWS V14.01,2013-04-29 01:31:00,
2013-04-28 21:32:00,55.6,55.6,29.82,NW,310,2.2,2.2,100,0.00,,,0.35,VWS V14.01,2013-04-29 01:32:00,
2013-04-28 21:33:00,55.4,55.4,29.83,NW,310,2.3,2.3,100,0.00,,,0.35,VWS V14.01,2013-04-29 01:33:00,
2013-04-28 21:34:00,55.4,55.4,29.83,NW,310,2.3,2.3,100,0.00,,,0.35,VWS V14.01,2013-04-29 01:34:00,
2013-04-28 21:35:00,55.6,55.6,29.82,WNW,289,3.0,3.0,100,0.00,,,0.35,VWS V14.01,2013-04-29 01:35:00,
2013-04-28 21:36:00,55.5,55.5,29.82,WNW,297,3.7,3.7,100,0.00,,,0.35,VWS V14.01,2013-04-29 01:36:00,
2013-04-28 21:37:00,55.3,55.3,29.82,WNW,301,3.2,3.9,100,0.00,,,0.35,VWS V14.01,2013-04-29 01:37:00,
2013-04-28 21:38:00,55.3,55.3,29.82,NW,308,3.9,3.9,100,0.00,,,0.35,VWS V14.01,2013-04-29 01:38:00,
2013-04-28 21:39:00,55.4,55.4,29.82,WNW,303,4.9,4.9,100,0.00,,,0.35,VWS V14.01,2013-04-29 01:39:00,
2013-04-28 21:40:00,55.4,55.4,29.82,WNW,301,5.1,5.2,100,0.00,,,0.35,VWS V14.01,2013-04-29 01:40:00,
2013-04-28 21:41:00,55.4,55.4,29.82,WNW,301,5.2,5.2,100,0.04,,,0.39,VWS V14.01,2013-04-29 01:41:00,
2013-04-28 21:42:00,55.4,55.4,29.82,NW,309,5.6,5.6,100,0.04,,,0.39,VWS V14.01,2013-04-29 01:42:00,
2013-04-28 21:43:00,55.3,55.3,29.81,NNW,327,4.5,5.6,100,0.04,,,0.39,VWS V14.01,2013-04-29 01:43:00,
2013-04-28 21:44:00,55.4,55.4,29.82,NW,306,4.0,4.5,100,0.04,,,0.39,VWS V14.01,2013-04-29 01:44:00,
2013-04-28 21:45:00,55.2,55.2,29.82,NW,317,3.4,3.4,100,0.04,,,0.39,VWS V14.01,2013-04-29 01:45:00,
2013-04-28 21:46:00,55.4,55.4,29.82,NW,310,4.2,4.2,100,0.04,,,0.39,VWS V14.01,2013-04-29 01:46:00,
2013-04-28 21:47:00,55.3,55.3,29.82,NW,311,5.1,6.1,100,0.04,,,0.39,VWS V14.01,2013-04-29 01:47:00,
2013-04-28 21:48:00,55.2,55.2,29.82,NW,309,6.6,6.6,100,0.04,,,0.39,VWS V14.01,2013-04-29 01:48:00,
2013-04-28 21:49:00,55.3,55.3,29.82,NW,307,4.9,6.6,100,0.04,,,0.39,VWS V14.01,2013-04-29 01:49:00,
2013-04-28 21:50:00,55.3,55.3,29.83,NW,312,5.6,6.3,100,0.04,,,0.39,VWS V14.01,2013-04-29 01:50:00,
2013-04-28 21:51:00,55.2,55.2,29.82,NW,309,4.9,5.6,100,0.04,,,0.39,VWS V14.01,2013-04-29 01:51:00,
2013-04-28 21:52:00,55.3,55.3,29.83,NW,308,5.1,6.3,100,0.04,,,0.39,VWS V14.01,2013-04-29 01:52:00,
2013-04-28 21:53:00,55.2,55.2,29.83,WNW,302,5.4,5.4,100,0.04,,,0.39,VWS V14.01,2013-04-29 01:53:00,
2013-04-28 21:54:00,55.2,55.2,29.82,NW,311,6.9,6.9,100,0.04,,,0.39,VWS V14.01,2013-04-29 01:54:00,
2013-04-28 21:55:00,55.1,55.1,29.83,NW,318,5.4,6.9,100,0.04,,,0.39,VWS V14.01,2013-04-29 01:55:00,
2013-04-28 21:56:00,55.0,55.0,29.82,NW,316,4.9,5.4,100,0.04,,,0.39,VWS V14.01,2013-04-29 01:56:00,
2013-04-28 21:57:00,55.2,55.2,29.83,NW,316,5.6,5.6,100,0.04,,,0.39,VWS V14.01,2013-04-29 01:57:00,
2013-04-28 21:58:00,55.1,55.1,29.83,NW,322,4.5,4.5,100,0.04,,,0.39,VWS V14.01,2013-04-29 01:58:00,
2013-04-28 21:59:00,55.2,55.2,29.86,NW,315,4.0,5.9,100,0.04,,,0.39,VWS V14.01,2013-04-29 01:59:00,
2013-04-28 22:00:00,55.2,55.2,29.86,NW,315,4.0,5.9,100,0.04,,,0.39,VWS V14.01,2013-04-29 02:00:00,
2013-04-28 22:01:00,55.2,55.2,29.83,NW,317,4.7,4.7,100,0.04,,,0.39,VWS V14.01,2013-04-29 02:01:00,
2013-04-28 22:02:00,55.2,55.2,29.83,NNW,330,5.6,5.6,100,0.04,,,0.39,VWS V14.01,2013-04-29 02:02:00,
2013-04-28 22:03:00,55.1,55.1,29.82,NW,323,4.7,5.6,100,0.04,,,0.39,VWS V14.01,2013-04-29 02:03:00,
2013-04-28 22:04:00,55.1,55.1,29.83,NW,316,3.9,5.4,100,0.04,,,0.39,VWS V14.01,2013-04-29 02:04:00,
2013-04-28 22:05:00,54.9,54.9,29.83,NNW,332,3.2,3.9,100,0.04,,,0.39,VWS V14.01,2013-04-29 02:05:00,
2013-04-28 22:06:00,55.1,55.1,29.83,NW,324,3.5,3.5,100,0.04,,,0.39,VWS V14.01,2013-04-29 02:06:00,
2013-04-28 22:07:00,55.1,55.1,29.83,NW,309,3.9,3.9,100,0.04,,,0.39,VWS V14.01,2013-04-29 02:07:00,
2013-04-28 22:08:00,55.1,55.1,29.83,NNW,330,5.6,5.6,100,0.04,,,0.39,VWS V14.01,2013-04-29 02:08:00,
2013-04-28 22:09:00,55.0,55.0,29.83,NW,313,3.9,5.6,100,0.04,,,0.39,VWS V14.01,2013-04-29 02:09:00,
2013-04-28 22:10:00,55.0,55.0,29.83,NNW,335,3.5,3.9,100,0.04,,,0.39,VWS V14.01,2013-04-29 02:10:00,
2013-04-28 22:11:00,55.0,55.0,29.82,NW,309,0.0,2.2,100,0.04,,,0.39,VWS V14.01,2013-04-29 02:11:00,
2013-04-28 22:12:00,55.0,55.1,29.82,NW,325,5.1,5.1,100,0.04,,,0.39,VWS V14.01,2013-04-29 02:12:00,
2013-04-28 22:13:00,55.1,54.9,29.82,NNW,337,3.2,5.1,99,0.04,,,0.39,VWS V14.01,2013-04-29 02:13:00,
2013-04-28 22:14:00,55.0,55.0,29.83,NNW,333,3.5,3.5,100,0.04,,,0.39,VWS V14.01,2013-04-29 02:14:00,
2013-04-28 22:15:00,54.9,54.9,29.83,NNW,347,2.2,3.5,100,0.04,,,0.39,VWS V14.01,2013-04-29 02:15:00,
2013-04-28 22:16:00,54.8,54.8,29.83,NNW,348,3.7,3.7,100,0.04,,,0.39,VWS V14.01,2013-04-29 02:16:00,
2013-04-28 22:17:00,55.0,55.0,29.82,NNW,327,3.7,3.7,100,0.04,,,0.39,VWS V14.01,2013-04-29 02:17:00,
2013-04-28 22:18:00,55.0,55.0,29.83,NNW,331,2.2,3.7,100,0.04,,,0.39,VWS V14.01,2013-04-29 02:18:00,
2013-04-28 22:19:00,55.0,55.0,29.83,NNW,347,1.6,2.2,100,0.04,,,0.39,VWS V14.01,2013-04-29 02:19:00,
2013-04-28 22:20:00,54.7,54.7,29.82,NNW,328,2.5,2.5,100,0.04,,,0.39,VWS V14.01,2013-04-29 02:20:00,
2013-04-28 22:21:00,55.0,55.0,29.82,NNW,338,2.7,2.7,100,0.04,,,0.39,VWS V14.01,2013-04-29 02:21:00,
2013-04-28 22:22:00,55.0,55.0,29.82,NNW,338,2.7,2.7,100,0.04,,,0.39,VWS V14.01,2013-04-29 02:22:00,
2013-04-28 22:23:00,55.0,55.0,29.83,NNW,338,1.5,2.0,100,0.04,,,0.39,VWS V14.01,2013-04-29 02:23:00,
2013-04-28 22:24:00,55.0,55.0,29.83,NW,325,1.8,2.2,100,0.04,,,0.39,VWS V14.01,2013-04-29 02:24:00,
2013-04-28 22:25:00,55.0,55.0,29.83,NW,325,4.0,4.0,100,0.04,,,0.39,VWS V14.01,2013-04-29 02:25:00,
2013-04-28 22:26:00,54.9,54.9,29.83,NW,325,2.5,2.5,100,0.04,,,0.39,VWS V14.01,2013-04-29 02:26:00,
2013-04-28 22:27:00,54.9,54.9,29.83,NW,324,1.0,1.0,100,0.04,,,0.39,VWS V14.01,2013-04-29 02:27:00,
2013-04-28 22:28:00,54.9,54.9,29.83,NW,324,1.0,1.0,100,0.04,,,0.39,VWS V14.01,2013-04-29 02:28:00,
2013-04-28 22:29:00,55.0,55.0,29.83,NW,324,1.8,1.8,100,0.04,,,0.39,VWS V14.01,2013-04-29 02:29:00,
2013-04-28 22:30:00,54.8,54.8,29.82,NW,304,2.8,2.8,100,0.04,,,0.39,VWS V14.01,2013-04-29 02:30:00,
2013-04-28 22:31:00,54.9,54.9,29.82,NW,304,2.8,2.8,100,0.04,,,0.39,VWS V14.01,2013-04-29 02:31:00,
2013-04-28 22:32:00,54.9,54.9,29.83,NW,304,2.2,2.8,100,0.04,,,0.39,VWS V14.01,2013-04-29 02:32:00,
2013-04-28 22:33:00,54.9,54.9,29.83,NW,304,0.0,2.2,100,0.04,,,0.39,VWS V14.01,2013-04-29 02:33:00,
2013-04-28 22:34:00,54.9,54.9,29.83,NW,304,0.0,2.2,100,0.04,,,0.39,VWS V14.01,2013-04-29 02:34:00,
2013-04-28 22:35:00,55.0,55.0,29.83,NW,304,0.0,0.0,100,0.04,,,0.39,VWS V14.01,2013-04-29 02:35:00,
2013-04-28 22:36:00,54.9,54.9,29.83,NW,304,0.0,0.0,100,0.04,,,0.39,VWS V14.01,2013-04-29 02:36:00,
2013-04-28 22:37:00,54.7,54.7,29.83,NW,304,0.0,0.0,100,0.04,,,0.39,VWS V14.01,2013-04-29 02:37:00,
2013-04-28 22:38:00,54.9,54.9,29.82,NW,304,0.0,0.0,100,0.04,,,0.39,VWS V14.01,2013-04-29 02:38:00,
2013-04-28 22:39:00,54.9,54.9,29.82,NW,304,0.0,0.0,100,0.04,,,0.39,VWS V14.01,2013-04-29 02:39:00,
2013-04-28 22:40:00,54.7,54.7,29.82,NW,304,0.0,0.0,100,0.04,,,0.39,VWS V14.01,2013-04-29 02:40:00,
2013-04-28 22:41:00,54.6,54.6,29.82,NW,304,0.0,0.0,100,0.04,,,0.39,VWS V14.01,2013-04-29 02:41:00,
2013-04-28 22:42:00,54.6,54.6,29.83,NW,304,0.0,0.0,100,0.00,,,0.39,VWS V14.01,2013-04-29 02:42:00,
2013-04-28 22:43:00,54.8,53.6,29.82,NW,304,0.0,0.0,96,0.00,,,0.39,VWS V14.01,2013-04-29 02:43:00,
2013-04-28 22:44:00,54.8,54.8,29.82,NW,304,0.0,0.0,100,0.00,,,0.39,VWS V14.01,2013-04-29 02:44:00,
2013-04-28 22:45:00,54.7,54.3,29.82,NNE,13,0.0,0.0,99,0.00,,,0.39,VWS V14.01,2013-04-29 02:45:00,
2013-04-28 22:46:00,54.7,54.7,29.82,NNE,14,0.0,0.0,100,0.00,,,0.39,VWS V14.01,2013-04-29 02:46:00,
2013-04-28 22:47:00,54.6,54.6,29.83,NNE,13,0.0,0.0,100,0.00,,,0.39,VWS V14.01,2013-04-29 02:47:00,
2013-04-28 22:48:00,54.5,54.5,29.83,NNE,13,0.0,0.0,100,0.00,,,0.39,VWS V14.01,2013-04-29 02:48:00,
2013-04-28 22:49:00,54.6,54.6,29.83,NNE,13,0.0,0.0,100,0.00,,,0.39,VWS V14.01,2013-04-29 02:49:00,
2013-04-28 22:50:00,54.7,54.7,29.83,NNE,13,0.0,0.0,100,0.00,,,0.39,VWS V14.01,2013-04-29 02:50:00,
2013-04-28 22:51:00,54.7,54.7,29.83,NNE,13,0.0,0.0,100,0.00,,,0.39,VWS V14.01,2013-04-29 02:51:00,
2013-04-28 22:52:00,54.6,54.6,29.82,NNE,13,0.0,0.0,100,0.00,,,0.39,VWS V14.01,2013-04-29 02:52:00,
2013-04-28 22:53:00,54.7,54.7,29.83,NNE,13,0.0,0.0,100,0.00,,,0.39,VWS V14.01,2013-04-29 02:53:00,
2013-04-28 22:54:00,54.7,54.7,29.83,NNE,13,0.0,0.0,100,0.00,,,0.39,VWS V14.01,2013-04-29 02:54:00,
2013-04-28 22:55:00,54.5,54.5,29.82,NNE,13,0.0,0.0,100,0.00,,,0.39,VWS V14.01,2013-04-29 02:55:00,
2013-04-28 22:56:00,54.6,54.6,29.83,NW,326,0.0,0.0,100,0.00,,,0.39,VWS V14.01,2013-04-29 02:56:00,
2013-04-28 22:57:00,54.7,54.7,29.83,NW,326,0.0,0.0,100,0.00,,,0.39,VWS V14.01,2013-04-29 02:57:00,
2013-04-28 22:58:00,54.6,54.6,29.83,NW,326,0.0,0.0,100,0.00,,,0.39,VWS V14.01,2013-04-29 02:58:00,
2013-04-28 22:59:00,54.7,54.7,29.83,NW,326,0.0,0.0,100,0.00,,,0.39,VWS V14.01,2013-04-29 02:59:00,
2013-04-28 23:00:00,54.6,54.6,29.83,NW,326,0.0,0.0,100,0.00,,,0.39,VWS V14.01,2013-04-29 03:00:00,
2013-04-28 23:02:00,54.3,54.3,29.82,NW,326,0.0,0.0,100,0.00,,,0.00,VWS V14.01,2013-04-29 03:02:00,
2013-04-28 23:03:00,54.4,54.4,29.82,NW,326,0.0,0.0,100,0.00,,,0.00,VWS V14.01,2013-04-29 03:03:00,
2013-04-28 23:04:00,54.4,54.4,29.83,NW,323,2.2,2.2,100,0.00,,,0.00,VWS V14.01,2013-04-29 03:04:00,
2013-04-28 23:06:00,54.3,54.3,29.83,NW,323,1.8,1.8,100,0.00,,,0.00,VWS V14.01,2013-04-29 03:06:00,
2013-04-28 23:07:00,54.5,54.5,29.83,NW,323,1.0,1.8,100,0.00,,,0.00,VWS V14.01,2013-04-29 03:07:00,
2013-04-28 23:08:00,54.7,54.7,29.83,NW,323,0.0,2.0,100,0.00,,,0.00,VWS V14.01,2013-04-29 03:08:00,
2013-04-28 23:09:00,54.5,54.5,29.83,NW,323,0.0,0.0,100,0.00,,,0.00,VWS V14.01,2013-04-29 03:09:00,
2013-04-28 23:12:00,54.7,54.7,29.83,NW,323,0.0,0.0,100,0.00,,,0.00,VWS V14.01,2013-04-29 03:12:00,
2013-04-28 23:13:00,54.3,54.3,29.83,NW,323,0.0,0.0,100,0.00,,,0.00,VWS V14.01,2013-04-29 03:13:00,
2013-04-28 23:16:00,54.3,54.3,29.83,NW,323,0.0,0.0,100,0.00,,,0.00,VWS V14.01,2013-04-29 03:16:00,
2013-04-28 23:18:00,54.7,54.7,29.83,NW,324,0.0,1.0,100,0.00,,,0.00,VWS V14.01,2013-04-29 03:18:00,
2013-04-28 23:19:00,54.7,54.5,29.83,NW,323,1.3,1.3,99,0.00,,,0.00,VWS V14.01,2013-04-29 03:19:00,
2013-04-28 23:21:00,54.6,54.6,29.82,NW,314,0.0,1.8,100,0.00,,,0.00,VWS V14.01,2013-04-29 03:21:00,
2013-04-28 23:23:00,54.6,54.6,29.82,WNW,301,1.6,2.0,100,0.00,,,0.00,VWS V14.01,2013-04-29 03:23:00,
2013-04-28 23:24:00,54.6,54.6,29.82,WNW,301,1.6,2.0,100,0.00,,,0.00,VWS V14.01,2013-04-29 03:24:00,
2013-04-28 23:25:00,54.6,54.6,29.83,WNW,301,1.3,1.8,100,0.00,,,0.00,VWS V14.01,2013-04-29 03:25:00,
2013-04-28 23:26:00,54.5,54.5,29.82,WNW,301,1.8,1.8,100,0.00,,,0.00,VWS V14.01,2013-04-29 03:26:00,
2013-04-28 23:29:00,54.5,54.5,29.82,WNW,301,0.0,1.0,100,0.00,,,0.00,VWS V14.01,2013-04-29 03:29:00,
2013-04-28 23:30:00,54.4,54.4,29.82,WNW,301,0.0,0.0,100,0.00,,,0.00,VWS V14.01,2013-04-29 03:30:00,
2013-04-28 23:31:00,54.5,54.5,29.83,WNW,301,0.0,0.0,100,0.00,,,0.00,VWS V14.01,2013-04-29 03:31:00,
2013-04-28 23:32:00,54.5,54.5,29.83,WNW,301,0.0,0.0,100,0.00,,,0.00,VWS V14.01,2013-04-29 03:32:00,
2013-04-28 23:34:00,54.4,54.4,29.83,NW,316,2.8,2.8,100,0.00,,,0.00,VWS V14.01,2013-04-29 03:34:00,
2013-04-28 23:35:00,54.5,54.5,29.83,NW,321,2.2,2.2,100,0.00,,,0.00,VWS V14.01,2013-04-29 03:35:00,
2013-04-28 23:36:00,54.3,54.3,29.82,NW,321,2.3,2.3,100,0.00,,,0.00,VWS V14.01,2013-04-29 03:36:00,
2013-04-28 23:37:00,54.4,54.4,29.82,NW,321,1.8,2.3,100,0.00,,,0.00,VWS V14.01,2013-04-29 03:37:00,
2013-04-28 23:38:00,54.3,54.3,29.83,NW,321,1.1,2.3,100,0.00,,,0.00,VWS V14.01,2013-04-29 03:38:00,
2013-04-28 23:39:00,54.7,54.7,29.82,NW,321,2.5,2.5,100,0.00,,,0.00,VWS V14.01,2013-04-29 03:39:00,
2013-04-28 23:41:00,54.5,54.5,29.82,NNW,329,0.0,0.0,100,0.00,,,0.00,VWS V14.01,2013-04-29 03:41:00,
2013-04-28 23:42:00,54.5,54.5,29.82,NW,307,1.8,1.8,100,0.00,,,0.00,VWS V14.01,2013-04-29 03:42:00,
2013-04-28 23:43:00,54.5,54.5,29.82,NW,307,1.8,1.8,100,0.00,,,0.00,VWS V14.01,2013-04-29 03:43:00,
2013-04-28 23:44:00,54.5,54.5,29.82,WNW,303,2.3,2.3,100,0.00,,,0.00,VWS V14.01,2013-04-29 03:44:00,
2013-04-28 23:47:00,54.4,54.4,29.83,WNW,288,2.3,2.3,100,0.00,,,0.00,VWS V14.01,2013-04-29 03:47:00,
2013-04-28 23:49:00,54.4,54.4,29.83,WNW,288,2.7,2.8,100,0.00,,,0.00,VWS V14.01,2013-04-29 03:49:00,
2013-04-28 23:50:00,54.3,54.3,29.82,West,279,3.0,3.0,100,0.00,,,0.00,VWS V14.01,2013-04-29 03:50:00,
2013-04-28 23:52:00,54.3,54.3,29.83,West,279,3.0,3.5,100,0.00,,,0.00,VWS V14.01,2013-04-29 03:52:00,
2013-04-28 23:53:00,54.3,54.3,29.82,West,279,3.0,3.0,100,0.00,,,0.00,VWS V14.01,2013-04-29 03:53:00,
2013-04-28 23:54:00,54.3,54.3,29.83,West,279,2.8,3.0,100,0.00,,,0.00,VWS V14.01,2013-04-29 03:54:00,
2013-04-28 23:56:00,54.3,54.3,29.83,WNW,285,3.0,3.4,100,0.00,,,0.00,VWS V14.01,2013-04-29 03:56:00,
2013-04-28 23:58:00,54.4,54.4,29.83,WNW,297,3.2,4.0,100,0.00,,,0.00,VWS V14.01,2013-04-29 03:58:00,
2013-04-28 23:59:00,54.5,54.5,29.83,WNW,297,3.9,3.9,100,0.00,,,0.00,VWS V14.01,2013-04-29 03:59:00,